[[{"header":{"parameterUnit":"m.s-1","parameterCategory":1,"la1":30.6,"la2":28.766,"lo1":-90.7593,"lo2":-88.6598,"dy":0.0162,"dx":0.0183,"nx":116,"ny":114,"refTime":"2023-08-04T12:00:00:Z","depth":0,"parameterNumber":2,"parameterNumberName":"U-component_of_WINDS"},"data":[0.0,0.0,0.0,0.0,0.0,0.0,0.0,0.0,0.0,0.0,0.0,0.0,0.0,0.0,0.0,0.0,0.0,0.0,0.0,0.0,0.0,0.0,0.0,0.0,0.0,0.0,0.0,0.0,0.0,0.0,0.0,0.0,0.0,0.0,0.0,0.0,0.0,0.0,0.0,0.0,0.0,0.0,0.0,0.0,0.0,0.0,0.0,0.0,0.0,0.0,0.0,0.0,0.0,0.0,0.0,0.0,0.0,0.0,0.0,0.0,0.0,0.0,0.0,0.0,0.0,0.0,0.0,0.0,0.0,0.0,0.0,0.0,0.0,0.0,0.0,0.0,0.0,0.0,0.0,0.0,0.0,0.0,0.0,0.0,0.0,0.0,0.0,0.0,0.0,0.0,0.0,0.0,0.0,0.0,0.0,0.0,0.0,0.0,0.0,0.0,0.0,0.0,0.0,0.0,0.0,0.0,0.0,0.0,0.0,0.0,0.0,0.0,0.0,0.0,0.0,0.0,0.0,0.0,0.0,0.0,0.0,0.0,0.0,0.0,0.0,0.0,0.0,0.0,0.0,0.0,0.0,0.0,0.0,0.0,0.0,0.0,0.0,0.0,0.0,0.0,0.0,0.0,0.0,0.0,0.0,0.0,0.0,0.0,0.0,0.0,0.0,0.0,0.0,0.0,0.0,0.0,0.0,0.0,0.0,0.0,0.0,0.0,0.0,0.0,0.0,0.0,0.0,0.0,0.0,0.0,0.0,0.0,0.0,0.0,0.0,0.0,0.0,0.0,0.0,0.0,0.0,0.0,0.0,0.0,0.0,0.0,0.0,0.0,0.0,0.0,0.0,0.0,0.0,0.0,0.0,0.0,0.0,0.0,0.0,0.0,0.0,0.0,0.0,0.0,0.0,0.0,0.0,0.0,0.0,0.0,0.0,0.0,0.0,0.0,0.0,0.0,0.0,0.0,0.0,0.0,0.0,0.0,0.0,0.0,0.0,0.0,0.0,0.0,0.0,0.0,0.0,0.0,0.0,0.0,0.0,0.0,0.0,0.0,0.0,0.0,0.0,0.0,0.0,0.0,0.0,0.0,0.0,0.0,0.0,0.0,0.0,0.0,0.0,0.0,0.0,0.0,0.0,0.0,0.0,0.0,0.0,0.0,0.0,0.0,0.0,0.0,0.0,0.0,0.0,0.0,0.0,0.0,0.0,0.0,0.0,0.0,0.0,0.0,0.0,0.0,0.0,0.0,0.0,0.0,0.0,0.0,0.0,0.0,0.0,0.0,0.0,0.0,0.0,0.0,0.0,0.0,0.0,0.0,0.0,0.0,0.0,0.0,0.0,0.0,0.0,0.0,0.0,0.0,0.0,0.0,0.0,0.0,0.0,0.0,0.0,0.0,0.0,0.0,0.0,0.0,0.0,0.0,0.0,0.0,0.0,0.0,0.0,0.0,0.0,0.0,0.0,0.0,0.0,0.0,0.0,0.0,0.0,0.0,0.0,0.0,0.0,0.0,0.0,0.0,0.0,0.0,0.0,0.0,0.0,0.0,0.0,0.0,0.0,0.0,0.0,0.0,0.0,0.0,0.0,0.0,0.0,0.0,0.0,0.0,0.0,0.0,0.0,0.0,0.0,0.0,0.0,0.0,0.0,0.0,0.0,0.0,0.0,0.0,0.0,0.0,0.0,0.0,0.0,0.0,0.0,0.0,0.0,0.0,0.0,0.0,0.0,0.0,0.0,0.0,0.0,0.0,0.0,0.0,0.0,0.0,0.0,0.0,0.0,0.0,0.0,0.0,0.0,0.0,0.0,0.0,0.0,0.0,0.0,0.0,0.0,0.0,0.0,0.0,0.0,0.0,0.0,0.0,0.0,0.0,0.0,0.0,0.0,0.0,0.0,0.0,0.0,0.0,0.0,0.0,0.0,0.0,0.0,0.0,0.0,0.0,0.0,0.0,0.0,0.0,0.0,0.0,0.0,0.0,0.0,0.0,0.0,0.0,0.0,0.0,0.0,0.0,0.0,0.0,0.0,0.0,0.0,0.0,0.0,0.0,0.0,0.0,0.0,0.0,0.0,0.0,0.0,0.0,0.0,0.0,0.0,0.0,0.0,0.0,0.0,0.0,0.0,0.0,0.0,0.0,0.0,0.0,0.0,0.0,0.0,0.0,0.0,0.0,0.0,0.0,0.0,0.0,0.0,0.0,0.0,0.0,0.0,0.0,0.0,0.0,0.0,0.0,0.0,0.0,0.0,0.0,0.0,0.0,0.0,0.0,0.0,0.0,0.0,0.0,0.0,0.0,0.0,0.0,0.0,0.0,0.0,0.0,0.0,0.0,0.0,0.0,0.0,0.0,0.0,0.0,0.0,0.0,0.0,0.0,0.0,0.0,0.0,0.0,0.0,0.0,0.0,0.0,0.0,0.0,0.0,0.0,0.0,0.0,0.0,0.0,0.0,0.0,0.0,0.0,0.0,0.0,0.0,0.0,0.0,0.0,0.0,0.0,0.0,0.0,0.0,0.0,0.0,0.0,0.0,0.0,0.0,0.0,0.0,0.0,0.0,0.0,0.0,0.0,0.0,0.0,0.0,0.0,0.0,0.0,0.0,0.0,0.0,0.0,0.0,0.0,0.0,0.0,0.0,0.0,0.0,0.0,0.0,0.0,0.0,0.0,0.0,0.0,0.0,0.0,0.0,0.0,0.0,0.0,0.0,0.0,0.0,0.0,0.0,0.0,0.0,0.0,0.0,0.0,0.0,0.0,0.0,0.0,0.0,0.0,0.0,0.0,0.0,0.0,0.0,0.0,0.0,0.0,0.0,0.0,0.0,0.0,0.0,0.0,0.0,0.0,0.0,0.0,0.0,0.0,0.0,0.0,0.0,0.0,0.0,0.0,0.0,0.0,0.0,0.0,0.0,0.0,0.0,0.0,0.0,0.0,0.0,0.0,0.0,0.0,0.0,0.0,0.0,0.0,0.0,0.0,0.0,0.0,0.0,0.0,0.0,0.0,0.0,0.0,0.0,0.0,0.0,0.0,0.0,0.0,0.0,0.0,0.0,0.0,0.0,0.0,0.0,0.0,0.0,0.0,0.0,0.0,0.0,0.0,0.0,0.0,0.0,0.0,0.0,0.0,0.0,0.0,0.0,0.0,0.0,0.0,0.0,0.0,0.0,0.0,0.0,0.0,0.0,0.0,0.0,0.0,0.0,0.0,0.0,0.0,0.0,0.0,0.0,0.0,0.0,0.0,0.0,0.0,0.0,0.0,0.0,0.0,0.0,0.0,0.0,0.0,0.0,0.0,0.0,0.0,0.0,0.0,0.0,0.0,0.0,0.0,0.0,0.0,0.0,0.0,0.0,0.0,0.0,0.0,0.0,0.0,0.0,0.0,0.0,0.0,0.0,0.0,0.0,0.0,0.0,0.0,0.0,0.0,0.0,0.0,0.0,0.0,0.0,0.0,0.0,0.0,0.0,0.0,0.0,0.0,0.0,0.0,0.0,0.0,0.0,0.0,0.0,0.0,0.0,0.0,0.0,0.0,0.0,0.0,0.0,0.0,0.0,0.0,0.0,0.0,0.0,0.0,0.0,0.0,0.0,0.0,0.0,0.0,0.0,0.0,0.0,0.0,0.0,0.0,0.0,0.0,0.0,0.0,0.0,0.0,0.0,0.0,0.0,0.0,0.0,0.0,0.0,0.0,0.0,0.0,0.0,0.0,0.0,0.0,0.0,0.0,0.0,0.0,0.0,0.0,0.0,0.0,0.0,0.0,0.0,0.0,0.0,0.0,0.0,0.0,0.0,0.0,0.0,0.0,0.0,0.0,0.0,0.0,0.0,0.0,0.0,0.0,0.0,0.0,0.0,0.0,0.0,0.0,0.0,0.0,0.0,0.0,0.0,0.0,0.0,0.0,0.0,0.0,0.0,0.0,0.0,0.0,0.0,0.0,0.0,0.0,0.0,0.0,0.0,0.0,0.0,0.0,0.0,0.0,0.0,0.0,0.0,0.0,0.0,0.0,0.0,0.0,0.0,0.0,0.0,0.0,0.0,0.0,0.0,0.0,0.0,0.0,0.0,0.0,0.0,0.0,0.0,0.0,0.0,0.0,0.0,0.0,0.0,0.0,0.0,0.0,0.0,0.0,0.0,0.0,0.0,0.0,0.0,0.0,0.0,0.0,0.0,0.0,0.0,0.0,0.0,0.0,0.0,0.0,0.0,0.0,0.0,0.0,0.0,0.0,0.0,0.0,0.0,0.0,0.0,0.0,0.0,0.0,0.0,0.0,0.0,0.0,0.0,0.0,0.0,0.0,0.0,0.0,0.0,0.0,0.0,0.0,0.0,0.0,0.0,0.0,0.0,0.0,0.0,0.0,0.0,0.0,0.0,0.0,0.0,0.0,0.0,0.0,0.0,0.0,0.0,0.0,0.0,0.0,0.0,0.0,0.0,0.0,0.0,0.0,0.0,0.0,0.0,0.0,0.0,0.0,0.0,0.0,0.0,0.0,0.0,0.0,0.0,0.0,0.0,0.0,0.0,0.0,0.0,0.0,0.0,0.0,0.0,0.0,0.0,0.0,0.0,0.0,0.0,0.0,0.0,0.0,0.0,0.0,0.0,0.0,0.0,0.0,0.0,0.0,0.0,0.0,0.0,0.0,0.0,0.0,0.0,0.0,0.0,0.0,0.0,0.0,0.0,0.0,0.0,0.0,0.0,0.0,0.0,0.0,0.0,0.0,0.0,0.0,0.0,0.0,0.0,0.0,0.0,0.0,0.0,0.0,0.0,0.0,0.0,0.0,0.0,0.0,0.0,0.0,0.0,0.0,0.0,0.0,0.0,0.0,0.0,0.0,0.0,0.0,0.0,0.0,0.0,0.0,0.0,0.0,0.0,0.0,0.0,0.0,0.0,0.0,0.0,0.0,0.0,0.0,0.0,0.0,0.0,0.0,0.0,0.0,0.0,0.0,0.0,0.0,0.0,0.0,0.0,0.0,0.0,0.0,0.0,0.0,0.0,0.0,0.0,0.0,0.0,0.0,0.0,0.0,0.0,0.0,0.0,0.0,0.0,0.0,0.0,0.0,0.0,0.0,0.0,0.0,0.0,0.0,0.0,0.0,0.0,0.0,0.0,0.0,0.0,0.0,0.0,0.0,0.0,0.0,0.0,0.0,0.0,0.0,0.0,0.0,0.0,0.0,0.0,0.0,0.0,0.0,0.0,0.0,0.0,0.0,0.0,0.0,0.0,0.0,0.0,0.0,0.0,0.0,0.0,0.0,0.0,0.0,0.0,0.0,0.0,0.0,0.0,0.0,0.0,0.0,0.0,0.0,0.0,0.0,0.0,0.0,0.0,0.0,0.0,0.0,0.0,0.0,0.0,0.0,0.0,0.0,0.0,0.0,0.0,0.0,0.0,0.0,0.0,0.0,0.0,0.0,0.0,0.0,0.0,0.0,0.0,0.0,0.0,0.0,0.0,0.0,0.0,0.0,0.0,0.0,0.0,0.0,0.0,0.0,0.0,0.0,0.0,0.0,0.0,0.0,0.0,0.0,0.0,0.0,0.0,0.0,0.0,0.0,0.0,0.0,0.0,0.0,0.0,0.0,0.0,0.0,0.0,0.0,0.0,0.0,0.0,0.0,0.0,0.0,0.0,0.0,0.0,0.0,0.0,0.0,0.0,0.0,0.0,0.0,0.0,0.0,0.0,0.0,0.0,0.0,0.0,0.0,0.0,0.0,0.0,0.0,0.0,0.0,0.0,0.0,0.0,0.0,0.0,0.0,0.0,0.0,0.0,0.0,0.0,0.0,0.0,0.0,0.0,0.0,0.0,0.0,0.0,0.0,0.0,0.0,0.0,0.0,0.0,0.0,0.0,0.0,0.0,0.0,0.0,0.0,0.0,0.0,0.0,0.0,0.0,0.0,0.0,0.0,0.0,0.0,0.0,0.0,0.0,0.0,0.0,0.0,0.0,0.0,0.0,0.0,0.0,0.0,0.0,0.0,0.0,0.0,0.0,0.0,0.0,0.0,0.0,0.0,0.0,0.0,0.0,0.0,0.0,0.0,0.0,0.0,0.0,0.0,0.0,0.0,0.0,0.0,0.0,0.0,-0.946,0.0,0.0,0.0,0.0,0.0,0.0,0.0,0.0,0.0,0.0,0.0,0.0,0.0,0.0,0.0,0.0,0.0,0.0,0.0,0.0,0.0,0.0,0.0,0.0,0.0,0.0,0.0,0.0,0.0,0.0,0.0,0.0,0.0,0.0,0.0,0.0,0.0,0.0,0.0,0.0,0.0,0.0,0.0,0.0,0.0,0.0,0.0,0.0,0.0,0.0,0.0,0.0,0.0,0.0,0.0,0.0,0.0,0.0,0.0,0.0,0.0,0.0,0.0,0.0,0.0,0.0,0.0,0.0,0.0,0.0,0.0,0.0,0.0,0.0,0.0,0.0,0.0,0.0,0.0,0.0,0.0,0.0,0.0,0.0,0.0,0.0,0.0,0.0,0.0,0.0,0.0,0.0,0.0,0.0,0.0,0.0,0.0,0.0,0.0,0.0,0.0,0.0,0.0,0.0,0.0,0.0,0.0,0.0,0.0,0.0,0.0,0.0,0.0,0.0,0.0,0.0,-0.9693,0.0,0.0,0.0,0.0,0.0,0.0,0.0,0.0,0.0,0.0,0.0,0.0,0.0,0.0,0.0,0.0,0.0,0.0,0.0,0.0,0.0,0.0,0.0,0.0,0.0,0.0,0.0,0.0,0.0,0.0,0.0,0.0,0.0,0.0,0.0,0.0,0.0,0.0,0.0,0.0,0.0,0.0,0.0,0.0,0.0,0.0,0.0,0.0,0.0,0.0,0.0,0.0,0.0,0.0,0.0,0.0,0.0,0.0,0.0,0.0,0.0,0.0,0.0,0.0,0.0,0.0,0.0,0.0,0.0,0.0,0.0,0.0,0.0,0.0,0.0,0.0,0.0,0.0,0.0,0.0,0.0,0.0,0.0,0.0,0.0,0.0,0.0,0.0,0.0,0.0,0.0,0.0,0.0,0.0,0.0,0.0,0.0,0.0,0.0,0.0,0.0,0.0,0.0,0.0,0.0,0.0,0.0,0.0,-0.9758,-0.9953,-1.0128,-1.0679,-1.0962,-1.0954,-1.0281,-1.0048,-0.9975,0.0,0.0,0.0,0.0,0.0,0.0,0.0,0.0,0.0,0.0,0.0,0.0,0.0,0.0,0.0,0.0,0.0,0.0,0.0,0.0,0.0,0.0,0.0,0.0,0.0,0.0,0.0,0.0,0.0,0.0,0.0,0.0,0.0,0.0,0.0,0.0,0.0,0.0,0.0,-1.139,-1.2062,-1.264,-1.3008,-1.2886,0.0,0.0,0.0,0.0,0.0,0.0,0.0,0.0,0.0,0.0,0.0,0.0,0.0,0.0,0.0,0.0,0.0,0.0,0.0,0.0,0.0,0.0,0.0,0.0,0.0,0.0,0.0,0.0,0.0,0.0,0.0,0.0,0.0,0.0,0.0,0.0,0.0,0.0,0.0,0.0,0.0,0.0,0.0,-0.5557,-0.5598,0.0,0.0,0.0,0.0,0.0,0.0,0.0,0.0,0.0,0.0,0.0,0.0,0.0,-0.9104,-0.9482,-0.9795,-1.0067,-1.0298,-1.0631,-1.0883,-1.1053,-1.1261,-1.1447,-1.1712,-1.1593,0.0,-1.0985,-1.0963,0.0,0.0,0.0,0.0,0.0,0.0,0.0,0.0,0.0,0.0,0.0,0.0,0.0,0.0,0.0,0.0,0.0,0.0,0.0,0.0,0.0,0.0,0.0,0.0,0.0,0.0,0.0,0.0,0.0,0.0,0.0,0.0,0.0,0.0,0.0,0.0,-1.0783,-1.1612,-1.2345,-1.2825,-1.3326,-1.3758,-1.3639,-1.3696,-1.3756,-1.36,0.0,0.0,0.0,0.0,0.0,0.0,0.0,0.0,0.0,0.0,0.0,0.0,0.0,0.0,0.0,0.0,0.0,0.0,0.0,0.0,0.0,0.0,0.0,0.0,0.0,0.0,0.0,0.0,0.0,0.0,0.0,0.0,0.0,0.0,0.0,0.0,0.0,0.0,0.0,-0.5399,-0.578,-0.5956,-0.627,-0.653,0.0,0.0,0.0,0.0,0.0,0.0,0.0,0.0,0.0,-0.9453,-0.9713,-1.0022,-1.0375,-1.0631,-1.085,-1.1037,-1.1395,-1.1602,-1.1683,-1.187,-1.1996,-1.2077,-1.2077,-1.1971,-1.1812,-1.1498,-1.1214,-1.1071,0.0,0.0,0.0,0.0,-1.1401,-1.1522,0.0,0.0,0.0,0.0,0.0,0.0,0.0,0.0,0.0,0.0,0.0,0.0,0.0,0.0,0.0,-0.8653,0.0,0.0,0.0,0.0,0.0,0.0,0.0,0.0,0.0,0.0,0.0,0.0,-1.1547,-1.2284,-1.3083,-1.349,-1.3882,-1.4185,-1.4421,-1.4456,-1.4289,-1.4142,-1.396,0.0,0.0,0.0,0.0,0.0,0.0,0.0,0.0,0.0,0.0,0.0,0.0,0.0,0.0,0.0,0.0,0.0,0.0,0.0,0.0,0.0,0.0,0.0,0.0,0.0,0.0,0.0,0.0,0.0,0.0,0.0,0.0,0.0,0.0,0.0,0.0,0.0,0.0,-0.564,-0.6051,-0.6391,-0.6816,-0.713,0.0,0.0,0.0,0.0,0.0,0.0,-0.936,-0.9665,-1.0018,-1.042,-1.0566,-1.083,-1.1236,-1.1366,-1.152,-1.1711,-1.2065,-1.2235,-1.2243,-1.2475,-1.258,-1.258,-1.258,-1.258,-1.2536,-1.1947,-1.1717,-1.1766,-1.1752,-1.2038,-1.2315,-1.2427,-1.2651,-1.2758,0.0,0.0,0.0,0.0,0.0,0.0,0.0,0.0,0.0,0.0,0.0,0.0,0.0,0.0,-0.907,-0.9391,-0.9459,-0.946,0.0,0.0,0.0,0.0,0.0,0.0,0.0,0.0,0.0,-1.165,-1.2159,-1.2647,-1.3121,-1.3882,-1.4244,-1.4376,-1.5084,-1.5023,-1.4186,-1.3894,-1.3841,-1.3777,0.0,0.0,0.0,0.0,0.0,0.0,0.0,0.0,0.0,0.0,0.0,0.0,0.0,0.0,0.0,0.0,0.0,0.0,0.0,0.0,0.0,0.0,0.0,0.0,0.0,0.0,0.0,0.0,0.0,0.0,0.0,0.0,0.0,0.0,0.0,0.0,0.0,0.0,0.0,-0.6647,-0.7054,0.0,0.0,0.0,0.0,-0.875,-0.9226,-0.9611,-1.0099,-1.029,-1.0631,-1.1151,-1.1179,-1.1439,-1.1971,-1.1983,-1.2081,-1.2272,-1.2625,-1.2795,-1.2808,-1.3157,-1.3319,-1.3319,-1.3319,-1.3319,-1.3262,-1.2556,-1.2154,-1.1987,-1.272,-1.2838,-1.2782,-1.3384,-1.3627,-1.3627,0.0,0.0,0.0,0.0,0.0,0.0,0.0,0.0,0.0,0.0,0.0,0.0,0.0,-0.9181,-0.9521,-1.0246,-1.0363,-1.0385,-1.0409,0.0,0.0,0.0,0.0,0.0,0.0,0.0,-1.1665,-1.2176,-1.2957,-1.3525,-1.3888,-1.4352,-1.4654,-1.4829,-1.5117,-1.5095,-1.482,-1.4823,-1.469,-1.4482,-1.3926,-1.3341,0.0,0.0,0.0,0.0,0.0,0.0,0.0,0.0,0.0,0.0,0.0,0.0,0.0,0.0,0.0,0.0,0.0,0.0,0.0,0.0,0.0,0.0,0.0,0.0,0.0,0.0,0.0,0.0,0.0,0.0,0.0,0.0,0.0,0.0,0.0,0.0,0.0,-0.7248,-0.7675,0.0,-0.8153,-0.8405,-0.8769,-0.9345,-0.9821,-1.0224,-1.0842,-1.1236,-1.1549,-1.1736,-1.1857,-1.2012,-1.2207,-1.2434,-1.258,-1.2653,-1.3011,-1.3181,-1.3185,-1.3311,-1.3372,-1.3372,-1.3372,-1.3372,-1.3352,-1.3096,-1.3017,-1.3105,-1.3631,-1.3771,-1.3848,-1.436,-1.4492,-1.4492,0.0,0.0,0.0,0.0,0.0,0.0,0.0,0.0,0.0,0.0,0.0,-0.8941,-0.9642,-0.9919,-1.0314,-1.1002,-1.1047,-1.1122,-1.1127,0.0,0.0,0.0,0.0,0.0,0.0,-1.1852,-1.2413,-1.2933,-1.3638,-1.4177,-1.4443,-1.4811,-1.5071,-1.5246,-1.533,-1.5421,-1.5493,-1.5614,-1.5476,-1.5027,-1.4477,-1.3927,-1.3288,0.0,0.0,0.0,0.0,0.0,0.0,0.0,0.0,0.0,0.0,0.0,0.0,0.0,0.0,0.0,0.0,0.0,0.0,0.0,0.0,0.0,0.0,0.0,0.0,0.0,0.0,0.0,0.0,0.0,0.0,0.0,0.0,0.0,0.0,0.0,-0.7499,-0.7855,-0.8252,-0.857,-0.8767,-0.9034,-0.9409,-1.0133,-1.0514,-1.0905,-1.1496,-1.1894,-1.215,-1.2207,-1.2328,-1.245,-1.2572,-1.2808,-1.2954,-1.3019,-1.3319,-1.3465,-1.3465,-1.3522,-1.3583,-1.3644,-1.3644,-1.3677,-1.3725,-1.3664,-1.371,-1.3855,-1.4078,-1.4191,-1.4471,-1.4874,-1.5011,-1.5144,0.0,0.0,0.0,0.0,0.0,0.0,0.0,0.0,0.0,0.0,-0.8936,-0.9561,-1.0238,-1.0923,-1.1375,-1.15,-1.1606,-1.1702,-1.165,-1.1211,0.0,0.0,0.0,0.0,-1.2351,-1.2472,-1.2951,-1.3918,-1.4183,-1.4461,-1.4751,-1.5264,-1.5499,-1.5523,-1.5783,-1.6042,-1.6278,-1.629,-1.5855,-1.5137,-1.4865,-1.4386,-1.389,0.0,0.0,0.0,0.0,0.0,0.0,0.0,0.0,0.0,0.0,0.0,0.0,0.0,0.0,0.0,0.0,0.0,0.0,0.0,0.0,0.0,0.0,0.0,0.0,0.0,0.0,0.0,0.0,0.0,0.0,0.0,0.0,0.0,-0.6996,-0.7463,-0.8004,-0.8445,-0.8771,-0.9072,-0.9367,-0.9887,-1.0278,-1.0793,-1.1329,-1.1677,-1.2044,-1.2223,-1.2402,-1.2576,-1.258,-1.2747,-1.31,-1.3108,-1.3202,-1.338,-1.3563,-1.3652,-1.3656,-1.3831,-1.401,-1.418,-1.4184,-1.4278,-1.442,-1.4253,-1.4188,-1.4131,-1.4018,-1.4207,-1.4609,-1.4887,-1.5301,-1.5719,0.0,0.0,0.0,0.0,0.0,0.0,0.0,0.0,0.0,0.0,-0.9416,-0.984,-1.0584,-1.1234,-1.1716,-1.1794,-1.2061,-1.2155,-1.1872,0.0,0.0,0.0,0.0,0.0,-1.2613,-1.3189,-1.3686,-1.4189,-1.4467,-1.4835,-1.5288,-1.5433,-1.5602,-1.5795,-1.6054,-1.6223,-1.6314,-1.6507,-1.6459,-1.6223,-1.5553,-1.4885,-1.4195,0.0,0.0,0.0,0.0,0.0,0.0,0.0,0.0,0.0,0.0,0.0,0.0,0.0,0.0,0.0,0.0,0.0,0.0,0.0,0.0,0.0,0.0,0.0,0.0,0.0,0.0,0.0,0.0,0.0,0.0,0.0,0.0,-0.8424,-0.8219,-0.8714,-0.918,-0.9435,-0.9854,-1.0201,-1.0397,-1.069,-1.0979,-1.1518,-1.181,-1.2163,-1.2418,-1.2592,-1.2771,-1.2942,-1.2946,-1.3059,-1.3291,-1.3425,-1.3518,-1.3571,-1.3746,-1.3831,-1.3835,-1.4018,-1.4131,-1.4184,-1.431,-1.4387,-1.4428,-1.4379,-1.4363,-1.4322,-1.4349,-1.4604,-1.4885,-1.5303,-1.5723,-1.6013,0.0,0.0,0.0,0.0,0.0,0.0,0.0,0.0,0.0,0.0,-0.9794,-1.0236,-1.0959,-1.1721,-1.2174,-1.2144,-1.2445,-1.2487,-1.2291,0.0,0.0,0.0,0.0,-1.3188,-1.3218,-1.3799,-1.4187,-1.4473,-1.4745,-1.5089,-1.5499,-1.5608,-1.5741,-1.5903,-1.6163,-1.635,-1.6495,-1.6754,-1.6863,-1.6839,-1.6192,-1.5493,-1.4595,-1.4384,-1.3706,-1.2853,-1.2753,-1.2381,-1.1876,-1.1533,0.0,0.0,0.0,0.0,0.0,0.0,0.0,0.0,0.0,0.0,0.0,0.0,0.0,0.0,0.0,0.0,0.0,0.0,0.0,0.0,0.0,0.0,0.0,0.0,-0.9272,-0.9484,-0.9707,-0.9854,-1.0073,-1.0196,-1.0543,-1.0849,-1.1076,-1.1377,-1.1803,-1.2102,-1.2405,-1.2769,-1.2901,-1.3003,-1.3104,-1.3206,-1.321,-1.3299,-1.3486,-1.3591,-1.3681,-1.3754,-1.3855,-1.39,-1.3908,-1.4095,-1.4217,0.0,-1.4469,-1.459,-1.4651,-1.472,-1.484,0.0,0.0,0.0,0.0,0.0,-1.6107,-1.6183,0.0,0.0,0.0,0.0,0.0,0.0,0.0,0.0,0.0,0.0,0.0,-1.0632,-1.1223,-1.214,-1.2632,-1.246,-1.2699,-1.282,0.0,0.0,0.0,-1.3016,-1.3557,-1.3888,-1.3966,-1.4272,-1.4512,-1.4862,-1.5093,-1.5354,-1.5652,-1.5883,-1.5998,-1.601,-1.6308,-1.6575,-1.683,-1.7128,-1.725,-1.7135,-1.6898,-1.6222,-1.5235,-1.5206,-1.4333,-1.3295,-1.3062,-1.2796,-1.2487,-1.2053,0.0,0.0,0.0,0.0,0.0,0.0,0.0,0.0,0.0,0.0,0.0,0.0,0.0,0.0,0.0,0.0,0.0,0.0,0.0,0.0,0.0,0.0,0.0,0.0,-1.0083,-1.0496,-1.1216,-1.0876,-1.0772,-1.0906,-1.1106,-1.1343,-1.1656,-1.2235,-1.2543,-1.2708,-1.3142,-1.3372,-1.3372,0.0,0.0,0.0,0.0,-1.349,-1.3673,-1.3673,-1.375,-1.39,-1.39,-1.39,-1.3908,-1.4115,-1.429,-1.444,-1.4647,-1.4826,-1.5105,-1.5249,-1.5483,-1.5458,-1.5261,-1.5476,-1.5753,-1.6299,-1.6405,-1.6254,0.0,0.0,0.0,0.0,0.0,0.0,0.0,0.0,0.0,-0.9673,-1.0049,-1.0509,-1.136,-1.1896,-1.2165,-1.2102,-1.2372,-1.2625,0.0,0.0,-1.3037,-1.3296,-1.3843,-1.4167,-1.4134,-1.464,-1.5177,-1.5632,-1.5683,-1.5959,-1.6442,-1.6499,-1.6524,-1.6543,-1.7058,-1.7433,-1.7403,-1.7675,-1.7775,-1.7769,-1.7529,-1.6827,-1.5958,-1.5528,-1.5121,-1.469,-1.444,-1.3936,-1.3363,-1.2975,-1.2642,-1.2097,-1.1446,0.0,0.0,0.0,0.0,0.0,0.0,0.0,0.0,0.0,0.0,0.0,0.0,0.0,0.0,0.0,0.0,0.0,0.0,0.0,0.0,-1.0413,-1.0872,-1.1382,-1.1634,-1.1913,-1.2097,-1.1757,-1.2138,-1.2419,-1.2501,-1.2809,-1.2986,-1.3166,-1.3352,-1.3372,-1.3372,-1.3372,-1.3437,-1.3587,-1.3591,-1.3677,-1.3851,-1.3851,-1.3868,-1.39,0.0,0.0,-1.3912,-1.4233,-1.4399,-1.4448,-1.508,-1.5399,-1.5582,-1.5858,-1.6294,-1.6407,-1.6053,-1.6062,-1.6204,-1.6608,-1.6717,-1.6684,0.0,0.0,0.0,0.0,0.0,0.0,0.0,0.0,0.0,0.0,-0.9979,-1.0408,-1.0961,-1.1623,-1.1994,-1.2034,-1.2255,0.0,0.0,-1.2883,-1.3159,-1.3509,-1.4213,-1.4501,-1.4405,-1.4971,-1.5474,-1.57,-1.584,-1.6119,-1.6526,-1.6666,-1.673,-1.6749,-1.7188,-1.7461,-1.762,-1.7932,-1.7993,-1.7993,-1.7871,-1.7393,-1.6788,-1.6092,-1.5476,-1.5007,-1.4767,-1.435,-1.3893,-1.3669,-1.3194,-1.2738,-1.2229,-1.1898,-1.163,0.0,0.0,0.0,0.0,0.0,0.0,0.0,0.0,0.0,0.0,0.0,0.0,0.0,0.0,-0.9938,0.0,0.0,-1.0712,-1.1163,-1.1464,-1.1764,-1.2121,-1.2398,-1.2532,-1.2442,-1.267,-1.2901,-1.3088,-1.3267,-1.3409,-1.3502,-1.3587,-1.3636,-1.3636,-1.3636,-1.3677,-1.377,-1.3774,-1.3815,-1.39,-1.39,-1.39,-1.39,-1.39,-1.39,-1.3908,-1.418,-1.4498,-1.4749,-1.5324,-1.565,-1.5897,-1.6352,-1.6811,-1.7098,-1.6889,-1.6745,-1.6652,-1.6953,-1.6892,-1.6802,0.0,0.0,0.0,0.0,0.0,0.0,0.0,0.0,0.0,0.0,-0.9856,-1.0343,-1.061,-1.1349,-1.1836,0.0,0.0,0.0,0.0,-1.295,-1.3413,-1.3709,-1.4602,-1.4986,-1.486,-1.5378,-1.5632,-1.5692,-1.5918,-1.6201,-1.6426,-1.6657,-1.6785,-1.6849,-1.7143,-1.7405,-1.7642,-1.7917,-1.8039,-1.8039,-1.7925,-1.7754,-1.7395,-1.6727,-1.602,-1.5398,-1.5094,-1.4711,-1.4445,-1.4096,-1.3705,-1.3314,-1.2991,-1.2612,-1.2154,-1.1646,-1.117,0.0,0.0,0.0,0.0,0.0,0.0,0.0,0.0,0.0,-1.0412,-1.0595,-1.0632,-1.0745,-1.0896,-1.1001,-1.1281,-1.1748,-1.1886,-1.2077,-1.2631,-1.2754,-1.2865,-1.305,-1.3165,-1.3181,-1.3401,-1.3559,-1.366,-1.3833,-1.3965,-1.4043,-1.4047,-1.4047,-1.4047,-1.4047,-1.4047,-1.4047,-1.4047,-1.4047,-1.4047,-1.4047,-1.4043,-1.4043,-1.4051,-1.4235,-1.4566,-1.5193,-1.5411,-1.5898,-1.651,-1.6811,-1.7116,-1.7426,-1.7426,-1.7317,-1.7166,-1.7166,-1.7062,-1.6925,0.0,0.0,0.0,0.0,0.0,0.0,0.0,0.0,0.0,0.0,0.0,0.0,0.0,0.0,0.0,0.0,0.0,0.0,-1.2785,-1.3404,-1.3877,-1.4191,-1.4824,-1.5297,-1.5569,-1.591,-1.6181,-1.6579,-1.6613,-1.6812,-1.7148,-1.7078,-1.7231,-1.749,-1.7782,-1.7941,-1.8001,-1.7955,-1.7961,-1.7961,-1.7633,-1.7357,-1.711,-1.7001,-1.6963,-1.673,-1.6002,-1.5632,-1.5248,-1.4495,-1.4027,-1.3747,-1.332,-1.2935,-1.2664,-1.2403,0.0,-1.1192,-1.1167,-1.0944,-1.0726,-1.0749,-1.091,-1.1165,0.0,0.0,-1.1336,-1.1612,-1.1419,-1.1322,-1.1342,-1.1561,-1.1756,-1.1967,-1.2268,-1.2623,-1.2942,-1.3367,-1.3776,-1.4231,-1.3583,-1.323,-1.3579,-1.3632,-1.385,-1.4294,-1.4466,-1.4621,-1.4906,-1.4906,-1.4906,-1.4906,-1.4906,-1.4906,-1.4906,-1.4906,-1.4906,-1.4906,-1.4621,-1.4621,-1.491,-1.466,-1.4997,-1.5645,-1.6308,-1.694,-1.7273,-1.7273,-1.7426,-1.7426,-1.7426,-1.7412,-1.7388,-1.7388,-1.7379,-1.7355,0.0,0.0,0.0,0.0,0.0,0.0,0.0,0.0,0.0,0.0,0.0,0.0,0.0,0.0,0.0,0.0,0.0,0.0,-1.2319,-1.2942,-1.3502,-1.3992,-1.4601,-1.5077,-1.5385,-1.5693,-1.5979,-1.6331,-1.6504,-1.6808,-1.7131,-1.731,-1.7557,-1.7853,-1.7977,-1.8232,-1.8475,-1.8483,-1.8537,-1.8537,-1.8319,-1.8037,-1.7627,-1.7627,-1.7519,-1.7255,-1.6452,-1.584,0.0,0.0,-1.4728,-1.4286,-1.3981,-1.3561,-1.3145,-1.2757,-1.2248,0.0,-1.1381,-1.1196,0.0,0.0,-1.159,-1.1855,-1.2276,-1.2262,-1.2325,-1.2592,-1.248,-1.2364,-1.226,-1.239,-1.2383,0.0,-1.2722,-1.2988,-1.3483,-1.3866,-1.4109,-1.4433,-1.4212,-1.4203,-1.4339,-1.4364,-1.454,-1.4759,-1.4763,-1.4906,-1.5048,-1.5048,-1.5048,-1.5048,-1.5048,-1.5048,-1.5048,-1.5048,-1.5048,-1.5048,-1.4906,-1.4906,-1.5052,-1.4841,-1.5329,-1.5932,-1.666,-1.7156,-1.7426,-1.7426,-1.7426,-1.7426,-1.7426,-1.7426,-1.7426,-1.7426,-1.7426,-1.7426,0.0,0.0,0.0,0.0,0.0,0.0,0.0,0.0,0.0,0.0,0.0,0.0,0.0,0.0,0.0,0.0,0.0,0.0,0.0,-1.26,-1.3245,-1.3698,-1.4321,-1.4837,-1.5241,-1.5467,-1.569,-1.6084,-1.631,-1.6483,-1.6791,-1.7106,-1.752,-1.7823,-1.8002,-1.8292,-1.8709,-1.8709,-1.8709,-1.8709,-1.8709,-1.8447,-1.7943,-1.7943,-1.7596,-1.719,-1.6491,-1.5982,0.0,0.0,-1.4981,-1.4559,-1.4276,-1.4002,-1.3532,-1.3068,-1.2565,-1.2188,-1.1601,0.0,0.0,-1.1912,-1.2195,-1.2493,-1.2857,-1.298,-1.3049,-1.331,-1.3332,-1.3228,-1.3065,-1.2999,-1.3063,-1.3251,-1.3285,-1.3462,-1.3988,-1.4183,-1.4495,-1.4629,-1.4826,-1.501,-1.5158,-1.5128,-1.5048,-1.519,-1.5186,-1.519,-1.5332,-1.5332,-1.5332,-1.5332,-1.5332,-1.5332,-1.5332,-1.5332,-1.5332,-1.5332,-1.519,-1.519,-1.5332,-1.5386,-1.5741,-1.6365,-1.6866,-1.7227,-1.7426,-1.7426,-1.7426,-1.7426,-1.7426,-1.7426,-1.7426,-1.7273,-1.7269,-1.7269,0.0,0.0,0.0,0.0,0.0,0.0,0.0,0.0,0.0,0.0,0.0,0.0,0.0,0.0,0.0,0.0,0.0,0.0,0.0,-1.2789,-1.3506,-1.3521,-1.415,-1.4794,-1.5347,-1.5369,-1.5597,-1.6042,-1.6049,-1.6034,-1.6155,-1.6657,-1.707,-1.748,-1.7978,-1.8214,-1.8236,-1.8236,-1.8236,-1.8236,-1.8236,-1.8031,-1.7825,-1.7825,-1.7239,-1.655,-1.6386,0.0,0.0,0.0,-1.4412,-1.4185,-1.4004,-1.3897,0.0,-1.3239,-1.2904,-1.2573,0.0,0.0,-1.2733,-1.2417,-1.2734,-1.3098,-1.332,-1.3523,-1.3606,-1.3464,-1.3656,-1.3726,-1.3554,-1.3589,-1.3651,-1.384,-1.387,-1.4002,-1.4403,-1.4581,-1.4847,-1.511,-1.5437,-1.5574,0.0,-1.5248,-1.519,-1.5607,-1.5607,-1.5749,-1.6183,-1.6183,-1.6183,-1.6183,-1.6183,-1.6183,-1.6183,-1.6183,-1.6183,-1.6183,-1.5749,-1.5749,-1.6188,-1.6386,-1.6594,-1.6816,-1.7015,-1.7227,-1.7426,-1.7426,-1.7426,-1.7426,-1.7426,-1.7426,-1.7426,-1.6959,-1.6806,-1.6806,0.0,0.0,0.0,0.0,0.0,0.0,0.0,0.0,0.0,0.0,0.0,0.0,0.0,0.0,0.0,0.0,0.0,0.0,0.0,-1.2034,-1.2497,-1.314,-1.3741,-1.4253,-1.4699,-1.4986,-1.5307,-1.5665,-1.5665,-1.594,-1.6396,-1.6507,-1.6944,-1.7472,-1.7677,-1.7961,-1.8357,-1.8357,-1.8589,-1.8799,-1.8799,-1.8432,-1.794,-1.794,-1.7439,-1.6801,0.0,0.0,0.0,0.0,0.0,0.0,-1.4231,0.0,-1.4036,-1.3547,-1.3155,-1.2936,0.0,0.0,-1.2949,-1.3121,-1.3184,-1.3334,-1.3542,-1.3641,-1.375,-1.3845,-1.3939,-1.3922,-1.3748,-1.3893,-1.4006,-1.4069,-1.4191,-1.4403,-1.467,-1.4846,-1.5105,-1.5233,-1.5427,0.0,0.0,0.0,0.0,-1.5826,-1.5957,-1.6037,-1.6183,-1.6183,-1.6183,-1.6183,-1.6183,-1.6183,-1.6183,-1.6183,-1.6183,-1.6183,-1.6037,-1.6037,-1.6183,-1.6254,-1.6396,-1.6599,-1.6816,-1.702,-1.7223,-1.7364,-1.7426,-1.7426,-1.7426,-1.7426,-1.7273,-1.6662,-1.6357,-1.6357,0.0,0.0,0.0,0.0,0.0,0.0,0.0,0.0,0.0,0.0,0.0,0.0,0.0,0.0,0.0,0.0,0.0,0.0,0.0,0.0,-1.1911,-1.2587,-1.308,-1.354,-1.3998,-1.4275,-1.4615,-1.4957,-1.5078,-1.5438,-1.5866,-1.6275,-1.6622,-1.7148,-1.7476,-1.7916,-1.8331,-1.8448,-1.8629,-1.884,-1.884,-1.8481,-1.7902,-1.7902,-1.7397,0.0,0.0,0.0,0.0,0.0,0.0,0.0,0.0,-1.4103,-1.395,-1.3738,-1.3551,-1.3393,-1.322,-1.3255,-1.3401,-1.3458,-1.363,-1.3651,-1.366,-1.375,-1.3844,-1.3981,-1.4071,-1.4032,-1.4034,-1.4042,-1.4134,-1.4134,-1.43,-1.4563,-1.4697,-1.4997,-1.5125,-1.5125,-1.5252,-1.5337,0.0,0.0,0.0,-1.5852,-1.606,-1.6183,-1.6183,-1.6183,-1.6183,-1.6183,-1.6183,-1.6183,-1.6183,-1.6183,-1.6183,-1.6183,-1.6183,-1.6183,-1.6183,-1.6183,-1.6292,-1.649,-1.6627,-1.6849,-1.7114,-1.7251,-1.7355,-1.7426,-1.7426,-1.7269,-1.7121,-1.651,-1.6055,-1.5897,0.0,0.0,0.0,0.0,0.0,0.0,0.0,0.0,0.0,0.0,0.0,0.0,0.0,0.0,0.0,0.0,0.0,0.0,0.0,0.0,0.0,-1.192,-1.2261,-1.274,-1.3385,-1.3485,-1.366,-1.4004,-1.4324,-1.4567,-1.4821,-1.5707,-1.6189,-1.6482,-1.7351,-1.7837,-1.7803,-1.814,-1.8296,-1.8313,-1.8313,-1.8054,-1.7628,-1.7628,0.0,0.0,0.0,0.0,0.0,0.0,0.0,0.0,0.0,-1.3811,-1.3579,-1.3883,-1.3898,-1.3837,-1.3545,-1.391,-1.4215,-1.364,-1.3849,-1.4172,-1.3813,-1.384,-1.3977,-1.3977,-1.4123,-1.4246,0.0,0.0,-1.4279,-1.4279,-1.4468,-1.4619,-1.4633,-1.4799,-1.4922,0.0,0.0,0.0,0.0,0.0,0.0,-1.5829,0.0,-1.6183,-1.6183,-1.6183,-1.6183,-1.6183,-1.6183,-1.6183,-1.6183,-1.6183,-1.6183,-1.6183,-1.6183,-1.6183,-1.6183,-1.6183,-1.6287,-1.6467,-1.6476,-1.6708,-1.7072,-1.7095,-1.7227,-1.7412,-1.7421,-1.7116,-1.6806,-1.6357,-1.5888,-1.5569,0.0,0.0,0.0,0.0,0.0,0.0,0.0,0.0,0.0,0.0,0.0,0.0,0.0,0.0,0.0,0.0,0.0,0.0,0.0,0.0,0.0,0.0,0.0,0.0,0.0,0.0,0.0,0.0,0.0,-1.4082,-1.4668,-1.4925,-1.5153,-1.5512,-1.6037,-1.6382,-1.6661,-1.7031,-1.7335,-1.7573,0.0,-1.7335,-1.7033,0.0,0.0,0.0,0.0,0.0,0.0,0.0,0.0,0.0,0.0,-1.4046,-1.386,-1.4084,-1.4188,-1.4134,-1.4074,-1.4243,-1.4329,-1.4215,-1.4321,-1.4535,-1.4411,-1.4089,-1.3892,-1.3892,-1.3687,-1.3381,0.0,0.0,0.0,-1.3849,-1.4156,0.0,-1.461,-1.4676,0.0,0.0,0.0,-1.4931,-1.4931,-1.5167,0.0,0.0,-1.5975,-1.6183,-1.6183,-1.6183,-1.6183,-1.6183,-1.6183,-1.6183,-1.6183,-1.6183,-1.6183,-1.6183,-1.6183,-1.6183,-1.6183,-1.6183,-1.6212,-1.6268,-1.6415,-1.6542,-1.6665,-1.6977,-1.7138,-1.7204,-1.7364,-1.7116,-1.6806,-1.6357,-1.5802,-1.5371,0.0,0.0,0.0,0.0,0.0,0.0,0.0,0.0,0.0,0.0,0.0,0.0,0.0,0.0,0.0,0.0,0.0,0.0,0.0,0.0,0.0,0.0,0.0,0.0,0.0,0.0,0.0,0.0,0.0,0.0,0.0,-1.4013,-1.4354,-1.479,-1.5221,-1.5664,-1.5981,-1.6427,0.0,0.0,0.0,0.0,0.0,0.0,0.0,0.0,0.0,0.0,0.0,0.0,0.0,-1.4266,-1.4471,-1.4334,-1.4068,-1.452,0.0,-1.4458,-1.4411,-1.4571,-1.4633,-1.4286,-1.4448,-1.4478,-1.4361,-1.4139,-1.3904,-1.3804,-1.3576,0.0,0.0,0.0,0.0,0.0,0.0,0.0,-1.4576,-1.4707,-1.4923,0.0,-1.4874,0.0,-1.4931,-1.5115,-1.5323,0.0,-1.5857,-1.6084,-1.6178,-1.6183,-1.6183,-1.6183,-1.6183,-1.6183,-1.6183,-1.6183,-1.6183,-1.6183,-1.6183,-1.6183,-1.6183,-1.6183,-1.6183,-1.6188,0.0,-1.6401,-1.65,-1.6731,-1.6791,-1.6824,-1.694,-1.6733,-1.6195,-1.605,-1.562,-1.4989,0.0,0.0,0.0,0.0,0.0,0.0,0.0,0.0,0.0,0.0,0.0,0.0,0.0,0.0,0.0,0.0,0.0,0.0,0.0,0.0,0.0,0.0,0.0,0.0,0.0,0.0,0.0,0.0,0.0,0.0,0.0,0.0,0.0,0.0,0.0,0.0,0.0,0.0,0.0,0.0,0.0,0.0,0.0,0.0,0.0,0.0,0.0,0.0,0.0,0.0,-1.4281,-1.4358,-1.4717,-1.4571,-1.427,-1.4906,-1.4844,-1.4698,-1.4646,-1.4875,-1.4872,-1.4314,-1.4382,-1.4432,-1.4055,-1.3917,-1.3831,-1.3593,0.0,-1.3507,-1.3507,0.0,-1.3623,-1.3743,0.0,-1.4548,-1.4639,-1.4898,-1.5033,-1.5116,-1.5038,-1.4903,-1.4931,-1.5092,-1.5281,-1.5498,-1.5706,-1.5928,-1.6169,-1.6183,-1.6183,-1.6183,-1.6183,-1.6183,-1.6183,-1.6183,-1.6183,-1.6183,-1.6183,-1.6183,-1.6183,-1.6183,-1.6178,-1.6178,-1.6178,0.0,-1.6299,-1.6327,-1.6406,-1.6292,-1.6346,-1.6015,-1.5548,-1.5578,-1.5151,-1.4647,0.0,0.0,0.0,0.0,0.0,0.0,0.0,0.0,0.0,0.0,-1.0456,-1.0205,0.0,0.0,0.0,0.0,0.0,0.0,0.0,0.0,0.0,0.0,0.0,0.0,0.0,0.0,0.0,0.0,0.0,0.0,0.0,0.0,0.0,0.0,0.0,0.0,0.0,0.0,0.0,0.0,0.0,0.0,0.0,0.0,0.0,0.0,0.0,0.0,0.0,0.0,-1.3993,-1.4316,-1.4475,-1.4408,-1.4286,-1.4543,-1.4652,-1.4759,-1.4955,-1.5166,-1.5302,-1.4983,-1.5054,-1.5063,-1.4532,-1.4004,0.0,0.0,0.0,-1.2815,-1.2815,-1.2866,0.0,-1.3396,0.0,0.0,0.0,0.0,-1.4779,0.0,0.0,0.0,0.0,0.0,0.0,0.0,0.0,-1.5782,-1.6164,-1.6183,-1.6183,-1.6183,-1.6183,-1.6183,-1.6183,-1.6183,-1.6183,-1.6183,-1.6183,-1.6183,-1.6183,-1.6183,-1.6037,-1.5749,-1.5749,0.0,-1.5252,-1.5556,-1.5663,-1.5611,-1.5931,-1.5776,-1.5366,-1.5527,-1.5068,-1.4473,0.0,0.0,0.0,0.0,0.0,0.0,0.0,0.0,-1.092,-1.1029,-1.0708,-1.0351,-1.0088,-0.9813,0.0,0.0,0.0,0.0,0.0,0.0,0.0,0.0,0.0,0.0,0.0,0.0,0.0,0.0,0.0,0.0,0.0,0.0,0.0,0.0,0.0,0.0,0.0,0.0,0.0,0.0,0.0,0.0,0.0,0.0,0.0,0.0,0.0,0.0,0.0,0.0,-1.3873,-1.3882,-1.442,-1.4489,-1.4436,-1.4867,-1.4874,-1.467,-1.4975,-1.5059,-1.493,-1.4618,-1.4702,-1.4652,-1.4226,0.0,0.0,0.0,0.0,-1.2527,-1.2527,0.0,0.0,0.0,0.0,0.0,0.0,0.0,0.0,0.0,0.0,0.0,0.0,0.0,0.0,0.0,0.0,-1.5692,-1.5999,-1.6122,-1.6183,-1.6183,-1.6183,-1.6183,-1.6183,-1.6183,-1.6183,-1.6183,-1.6183,-1.6037,-1.5895,-1.5895,-1.5612,-1.5328,-1.5328,0.0,-1.5057,-1.5149,-1.5097,-1.5052,-1.5238,-1.5134,-1.5014,-1.5105,-1.4964,-1.4732,0.0,0.0,0.0,0.0,0.0,0.0,0.0,-1.1198,-1.1185,-1.1185,-1.086,-1.0467,-1.0166,-0.9932,-0.9655,0.0,0.0,0.0,0.0,0.0,0.0,0.0,0.0,0.0,0.0,0.0,0.0,0.0,0.0,0.0,0.0,0.0,0.0,0.0,0.0,0.0,0.0,0.0,0.0,0.0,0.0,0.0,0.0,0.0,0.0,0.0,0.0,0.0,0.0,0.0,-1.3487,-1.3425,-1.4172,-1.4364,-1.4475,-1.4989,-1.4841,-1.4706,-1.4904,-1.4873,-1.4719,-1.4361,-1.4236,-1.4185,-1.3841,-1.3635,0.0,0.0,-1.2558,-1.2427,-1.2427,0.0,0.0,0.0,0.0,0.0,0.0,0.0,0.0,0.0,0.0,0.0,0.0,0.0,0.0,0.0,0.0,0.0,-1.5919,-1.6089,-1.6183,-1.6183,-1.6183,-1.6183,-1.6183,-1.6183,-1.6183,-1.6183,-1.6178,-1.5895,-1.5607,-1.5465,-1.5328,-1.4906,-1.4906,0.0,0.0,-1.4763,-1.4702,-1.4541,-1.4583,-1.4633,-1.4598,-1.4785,-1.4836,-1.4969,0.0,0.0,0.0,0.0,0.0,0.0,0.0,-1.1389,-1.1185,-1.1185,-1.086,-1.0505,-1.0312,-1.001,-0.9655,0.0,0.0,0.0,0.0,0.0,0.0,0.0,0.0,0.0,0.0,0.0,0.0,0.0,0.0,0.0,0.0,0.0,0.0,0.0,0.0,0.0,0.0,0.0,0.0,0.0,0.0,0.0,0.0,0.0,0.0,0.0,0.0,0.0,0.0,0.0,0.0,-1.3055,-1.3243,-1.3629,-1.405,-1.413,0.0,0.0,-1.4675,-1.4838,-1.4886,-1.4731,-1.4518,-1.4185,-1.3659,0.0,0.0,-1.2808,-1.2551,-1.2356,-1.2356,-1.2281,0.0,0.0,0.0,0.0,0.0,0.0,0.0,0.0,0.0,0.0,0.0,0.0,0.0,0.0,0.0,0.0,-1.6131,-1.6174,-1.6183,-1.6183,-1.6183,-1.6183,-1.6183,-1.6183,-1.6183,-1.6183,-1.5891,-1.5603,-1.5603,-1.5186,-1.4906,-1.4621,-1.4621,0.0,0.0,-1.4043,-1.4055,-1.3941,-1.4111,-1.4196,-1.4245,-1.4847,-1.4931,-1.4766,0.0,0.0,0.0,0.0,0.0,0.0,0.0,-1.1421,-1.1185,-1.1185,-1.086,-1.0505,-1.0322,-1.0049,-0.9734,0.0,0.0,0.0,0.0,0.0,0.0,0.0,0.0,0.0,0.0,0.0,0.0,0.0,0.0,0.0,0.0,0.0,0.0,0.0,0.0,0.0,0.0,0.0,0.0,0.0,0.0,0.0,0.0,0.0,0.0,0.0,0.0,0.0,0.0,0.0,0.0,0.0,-1.2735,-1.2954,0.0,0.0,-1.4103,-1.4222,-1.4327,-1.4425,-1.4484,-1.4313,-1.4169,-1.3966,-1.3386,0.0,0.0,-1.2352,-1.2122,-1.1835,-1.1749,-1.1905,-1.2128,0.0,0.0,0.0,0.0,0.0,0.0,0.0,0.0,0.0,0.0,0.0,0.0,0.0,0.0,0.0,-1.616,-1.6183,-1.6183,-1.6183,-1.6183,-1.6183,-1.6183,-1.6183,-1.6037,-1.5891,-1.5749,-1.5323,-1.4901,-1.4763,-1.4479,-1.4189,-1.4189,0.0,0.0,-1.39,-1.39,-1.3908,-1.4272,-1.4368,-1.4612,-1.4975,-1.525,-1.5474,0.0,0.0,0.0,0.0,0.0,-1.1756,-1.1645,-1.1373,-1.1185,-1.1185,-1.086,-1.0505,-1.0322,-1.0137,-0.9813,-0.9359,0.0,0.0,0.0,0.0,0.0,0.0,0.0,0.0,0.0,0.0,0.0,0.0,0.0,0.0,0.0,0.0,0.0,0.0,0.0,0.0,0.0,0.0,0.0,0.0,0.0,0.0,0.0,0.0,0.0,0.0,0.0,0.0,0.0,0.0,0.0,0.0,0.0,0.0,0.0,0.0,-1.3776,-1.3843,-1.3887,-1.3976,-1.3975,-1.3793,-1.3667,-1.3516,0.0,0.0,0.0,-1.1983,-1.175,-1.1558,-1.1383,-1.1599,-1.185,0.0,0.0,0.0,0.0,0.0,0.0,0.0,0.0,0.0,0.0,0.0,0.0,0.0,0.0,0.0,0.0,-1.6183,-1.6183,-1.6183,-1.6183,-1.6183,-1.6183,-1.6183,-1.6037,-1.5607,-1.5465,-1.5044,-1.4479,-1.4332,-1.4189,-1.39,-1.39,0.0,0.0,-1.39,-1.3904,-1.4047,-1.4336,-1.4555,-1.4809,-1.5241,-1.5534,-1.5826,0.0,0.0,0.0,0.0,0.0,0.0,0.0,-1.1335,-1.1185,-1.1185,-1.086,-1.0505,-1.0322,-1.0137,-0.9813,-0.9359,0.0,0.0,0.0,0.0,0.0,0.0,0.0,0.0,0.0,0.0,0.0,-0.892,-0.8773,0.0,0.0,0.0,0.0,0.0,0.0,0.0,0.0,0.0,0.0,0.0,0.0,0.0,0.0,0.0,0.0,0.0,0.0,0.0,0.0,0.0,0.0,0.0,0.0,0.0,0.0,0.0,-1.328,-1.3348,-1.348,-1.3477,-1.3467,-1.3322,-1.3104,-1.282,0.0,0.0,-1.2172,-1.1926,-1.1766,-1.1601,-1.1598,-1.14,-1.1398,-1.1623,-1.1903,0.0,0.0,0.0,0.0,0.0,0.0,0.0,0.0,0.0,0.0,0.0,0.0,0.0,0.0,-1.6183,-1.6183,-1.6183,-1.6183,-1.6183,-1.6183,-1.6183,-1.6037,-1.5607,-1.5186,-1.4763,-1.4479,-1.4047,-1.39,0.0,0.0,0.0,0.0,-1.39,-1.4189,-1.4479,-1.4479,-1.4763,-1.5052,-1.547,-1.5607,-1.5607,0.0,0.0,0.0,0.0,0.0,0.0,0.0,-1.1335,-1.1185,-1.1185,-1.086,-1.0505,-1.0322,-1.0137,-0.9813,-0.9359,0.0,0.0,0.0,0.0,0.0,0.0,0.0,0.0,0.0,0.0,-0.8773,-0.8773,-0.8724,-0.8716,-0.8716,-0.8724,0.0,0.0,0.0,0.0,0.0,0.0,0.0,0.0,0.0,0.0,0.0,0.0,0.0,0.0,0.0,0.0,0.0,0.0,0.0,0.0,0.0,0.0,0.0,0.0,0.0,0.0,-1.2742,-1.3023,-1.328,-1.2989,-1.3021,-1.2939,-1.2451,0.0,-1.1889,-1.1655,-1.1576,-1.1443,-1.1209,-1.1339,-1.1506,-1.1408,-1.179,0.0,0.0,0.0,0.0,0.0,0.0,0.0,0.0,0.0,0.0,0.0,0.0,0.0,0.0,-1.6183,-1.6183,-1.6183,-1.6183,-1.6183,-1.6183,-1.6183,-1.59,-1.519,-1.5048,-1.4621,-1.4047,-1.39,-1.39,0.0,0.0,0.0,0.0,-1.4189,-1.4336,-1.4621,-1.5044,-1.5323,-1.5465,-1.5895,-1.6037,-1.6037,0.0,0.0,0.0,0.0,0.0,0.0,0.0,-1.0798,-1.0754,-1.0899,-1.0603,-1.0316,-1.0302,-1.0098,-0.9734,-0.9319,0.0,0.0,0.0,0.0,0.0,0.0,0.0,0.0,0.0,-0.8602,-0.857,-0.8521,-0.8472,-0.8431,-0.8431,-0.8431,-0.8431,-0.8431,0.0,0.0,0.0,0.0,0.0,0.0,0.0,0.0,-0.9223,0.0,0.0,0.0,0.0,0.0,0.0,0.0,0.0,0.0,0.0,0.0,0.0,0.0,-1.2059,0.0,0.0,-1.2685,-1.2764,-1.2405,-1.2472,0.0,0.0,0.0,-1.1403,-1.1208,-1.1151,-1.1059,-1.0956,-1.1158,-1.1294,-1.1295,-1.1741,0.0,0.0,0.0,0.0,0.0,0.0,0.0,0.0,0.0,0.0,0.0,0.0,0.0,0.0,-1.6183,-1.6183,-1.6183,-1.6183,-1.6183,-1.6183,-1.6037,-1.5616,-1.5048,-1.4906,-1.4474,-1.39,-1.39,-1.39,0.0,0.0,0.0,0.0,-1.4479,-1.4759,-1.4897,-1.5465,-1.5749,-1.5895,-1.6042,-1.6183,-1.6183,0.0,0.0,0.0,0.0,0.0,0.0,0.0,0.0,0.0,-1.0403,-1.0093,-0.9956,-1.0185,-0.9924,-0.9573,-0.9239,0.0,0.0,0.0,0.0,0.0,0.0,0.0,0.0,0.0,-0.8406,-0.8291,-0.8175,-0.807,-0.8021,-0.8021,-0.8021,-0.8021,-0.8021,-0.8118,0.0,0.0,0.0,0.0,0.0,0.0,0.0,0.0,0.0,0.0,0.0,0.0,0.0,0.0,0.0,0.0,0.0,0.0,0.0,0.0,0.0,0.0,0.0,0.0,0.0,0.0,0.0,0.0,0.0,0.0,0.0,0.0,-1.0736,-1.0503,-1.0522,-1.0815,-1.0874,-1.0953,-1.1273,0.0,0.0,0.0,0.0,0.0,0.0,0.0,0.0,0.0,0.0,0.0,0.0,0.0,0.0,0.0,-1.6183,-1.6183,-1.6183,-1.6183,-1.6183,-1.6183,-1.5891,-1.547,-1.5048,-1.4763,-1.4336,-1.4047,-1.39,-1.39,0.0,0.0,0.0,0.0,-1.4906,-1.5328,-1.5607,-1.5603,-1.5891,-1.6183,-1.6183,-1.6183,-1.6183,0.0,0.0,0.0,0.0,0.0,0.0,0.0,0.0,0.0,0.0,-0.9654,-0.9397,-0.9322,-0.905,-0.8765,0.0,0.0,0.0,0.0,0.0,0.0,0.0,0.0,0.0,0.0,-0.8103,-0.8062,-0.807,-0.8021,-0.8021,-0.8021,-0.8021,-0.8021,-0.8021,-0.8021,-0.807,0.0,0.0,0.0,0.0,0.0,0.0,0.0,0.0,0.0,0.0,-0.8626,-0.8986,0.0,0.0,0.0,0.0,0.0,0.0,0.0,0.0,-1.1218,-1.1214,-1.1525,0.0,-1.1948,-1.1619,-1.1734,0.0,0.0,0.0,0.0,0.0,0.0,0.0,0.0,0.0,0.0,0.0,0.0,0.0,0.0,0.0,0.0,0.0,0.0,0.0,0.0,0.0,0.0,0.0,0.0,0.0,0.0,-1.6183,-1.6183,-1.6183,-1.6183,-1.6183,-1.6183,-1.6042,-1.5895,-1.5465,-1.5048,-1.4763,-1.4763,-1.4479,-1.4479,0.0,0.0,0.0,-1.4906,-1.5328,-1.5465,-1.5603,-1.5895,-1.6178,-1.6183,-1.6183,-1.6183,-1.6183,0.0,0.0,0.0,0.0,0.0,0.0,0.0,0.0,0.0,0.0,0.0,0.0,0.0,0.0,0.0,0.0,0.0,0.0,0.0,0.0,0.0,0.0,0.0,0.0,-0.7863,-0.7863,-0.7821,-0.7739,-0.7739,-0.7739,-0.7739,-0.7773,-0.7773,-0.7773,-0.7773,-0.7773,0.0,0.0,0.0,0.0,-0.7739,0.0,0.0,0.0,0.0,0.0,-0.8275,-0.8565,0.0,-0.9261,-0.9535,-0.9781,0.0,0.0,0.0,0.0,-1.0692,-1.0714,-1.0937,-1.1209,-1.1437,-1.1333,-1.1365,-1.1227,0.0,0.0,0.0,0.0,0.0,0.0,0.0,0.0,0.0,0.0,0.0,0.0,0.0,0.0,0.0,0.0,0.0,0.0,0.0,0.0,0.0,0.0,0.0,0.0,0.0,-1.6183,-1.6183,-1.6183,-1.6183,-1.6183,-1.6183,-1.6037,-1.5749,-1.5607,-1.519,-1.5048,-1.5048,-1.4763,-1.4763,0.0,0.0,0.0,-1.5328,-1.5753,-1.5891,-1.5895,-1.6178,-1.6183,-1.6183,-1.6183,-1.6183,-1.6183,0.0,0.0,0.0,0.0,0.0,0.0,0.0,0.0,0.0,0.0,0.0,0.0,0.0,0.0,0.0,0.0,0.0,0.0,0.0,0.0,0.0,0.0,0.0,-0.7811,-0.767,-0.7635,-0.7545,-0.7419,-0.7377,-0.7377,-0.7419,-0.7447,-0.7482,-0.7482,-0.7482,-0.7482,0.0,0.0,0.0,0.0,-0.7419,0.0,0.0,0.0,0.0,0.0,0.0,0.0,0.0,-0.9081,-0.9369,-0.9475,-0.9893,0.0,0.0,0.0,0.0,0.0,-1.0371,-1.0551,-1.0664,-1.0968,-1.0814,-1.0504,0.0,0.0,0.0,0.0,0.0,0.0,0.0,0.0,0.0,0.0,0.0,0.0,0.0,0.0,0.0,0.0,0.0,0.0,0.0,0.0,0.0,0.0,0.0,0.0,0.0,-1.6183,-1.6183,-1.6183,-1.6183,-1.6183,-1.6183,-1.5895,-1.5749,-1.5749,-1.5328,-1.519,-1.519,-1.519,-1.519,-1.519,0.0,0.0,-1.5749,-1.6037,-1.6183,-1.6183,-1.6183,-1.6183,-1.6183,-1.6183,-1.6183,-1.6315,0.0,0.0,0.0,0.0,0.0,0.0,0.0,0.0,0.0,0.0,0.0,0.0,0.0,0.0,0.0,0.0,0.0,0.0,0.0,0.0,0.0,0.0,-0.7165,-0.7346,-0.7454,-0.7335,-0.7293,-0.7419,-0.7293,-0.7293,-0.7419,-0.7412,-0.7412,-0.7412,-0.7412,-0.7412,-0.7412,-0.7419,-0.7419,-0.7419,-0.7419,0.0,0.0,0.0,0.0,0.0,0.0,0.0,0.0,-0.8859,-0.923,-0.9616,-0.9893,0.0,0.0,0.0,0.0,0.0,-0.9924,-0.988,-0.9932,-1.0546,-1.0624,-1.0494,-1.0023,0.0,0.0,0.0,0.0,0.0,0.0,0.0,0.0,0.0,0.0,0.0,0.0,0.0,0.0,0.0,0.0,0.0,0.0,0.0,0.0,0.0,0.0,0.0,-1.616,-1.6183,-1.6183,-1.6183,-1.6183,-1.6183,-1.6183,-1.6183,-1.6042,-1.6042,-1.5749,-1.5753,-1.6042,-1.5607,-1.5753,-1.6042,0.0,-1.6042,-1.6178,-1.6178,-1.6183,-1.6183,-1.6183,-1.6183,-1.6183,-1.6183,-1.632,-1.671,0.0,0.0,0.0,0.0,0.0,0.0,0.0,0.0,0.0,0.0,0.0,0.0,0.0,0.0,0.0,0.0,0.0,0.0,0.0,0.0,0.0,-0.6535,-0.6579,-0.6802,-0.7189,-0.7083,-0.7047,-0.6999,-0.7158,-0.7275,-0.7362,-0.7449,-0.7446,-0.7412,-0.7335,-0.7293,-0.7293,-0.7202,-0.7196,-0.7196,0.0,0.0,0.0,0.0,0.0,0.0,0.0,0.0,0.0,0.0,-0.858,-0.8948,-0.927,0.0,0.0,0.0,0.0,0.0,-0.9626,-0.955,-0.9491,-1.0098,-1.0211,-1.0177,-0.9977,0.0,0.0,0.0,0.0,0.0,0.0,0.0,0.0,0.0,0.0,0.0,0.0,0.0,0.0,0.0,0.0,0.0,0.0,0.0,0.0,0.0,0.0,0.0,-1.616,-1.6183,-1.6183,-1.6183,-1.6183,-1.6183,-1.6183,-1.6183,-1.6183,-1.6183,-1.6037,-1.6037,-1.6183,-1.6037,-1.6037,-1.6183,0.0,-1.6183,-1.6183,-1.6183,-1.6183,-1.6183,-1.6183,-1.6183,-1.6169,-1.6336,-1.6568,-1.6823,0.0,0.0,0.0,0.0,0.0,0.0,0.0,0.0,0.0,0.0,0.0,0.0,0.0,0.0,0.0,0.0,0.0,0.0,0.0,0.0,-0.604,-0.6382,-0.6146,-0.6343,-0.6972,-0.6865,-0.6787,-0.6715,-0.6962,-0.7147,-0.7198,-0.7375,-0.7421,-0.7286,-0.7209,-0.7125,-0.7125,-0.7027,-0.6943,-0.6943,0.0,0.0,0.0,0.0,0.0,0.0,0.0,0.0,0.0,0.0,0.0,0.0,0.0,0.0,0.0,-0.9054,-0.8903,-0.8824,-0.9284,-0.9259,-0.9219,-0.967,0.0,-0.9922,-0.9965,0.0,0.0,0.0,0.0,0.0,0.0,0.0,0.0,0.0,0.0,0.0,0.0,0.0,0.0,0.0,0.0,0.0,0.0,0.0,0.0,0.0,0.0,0.0,-1.6164,-1.6183,-1.6183,-1.6183,-1.6183,-1.6183,-1.6183,-1.6183,-1.6183,-1.6183,-1.6183,-1.6183,-1.6183,-1.6183,-1.6183,-1.6183,-1.6183,-1.6183,-1.6183,-1.6183,-1.6183,-1.6178,-1.6127,-1.622,-1.6158,-1.655,-1.6766,-1.7016,0.0,0.0,0.0,0.0,0.0,0.0,0.0,0.0,0.0,0.0,0.0,0.0,0.0,0.0,0.0,0.0,0.0,0.0,0.0,0.0,-0.5967,-0.6382,-0.6035,-0.6156,-0.6901,-0.6653,-0.6575,-0.6715,-0.6593,-0.6685,-0.6947,-0.7018,-0.7041,-0.7021,-0.7021,-0.6985,-0.6914,-0.6914,-0.6836,-0.6715,-0.6715,0.0,0.0,0.0,0.0,0.0,0.0,0.0,0.0,0.0,0.0,0.0,0.0,0.0,-0.8626,-0.8626,-0.8527,-0.8495,-0.871,-0.8733,-0.8873,-0.9288,-0.9673,0.0,-1.0132,-1.0179,0.0,0.0,0.0,0.0,0.0,0.0,0.0,0.0,0.0,0.0,0.0,0.0,0.0,0.0,0.0,0.0,0.0,0.0,0.0,0.0,0.0,0.0,-1.6169,-1.6183,-1.6183,-1.6183,-1.6183,-1.6183,-1.6183,-1.6183,-1.6183,-1.6183,-1.6183,-1.6183,-1.6183,-1.6183,-1.6183,-1.6183,-1.6183,-1.6183,-1.6183,-1.6183,-1.6183,-1.6164,-1.5961,-1.6048,-1.6157,-1.6953,-1.7219,-1.7188,0.0,0.0,0.0,0.0,0.0,0.0,0.0,0.0,0.0,0.0,0.0,0.0,0.0,0.0,0.0,0.0,0.0,0.0,0.0,0.0,-0.5967,-0.6382,-0.5998,-0.6117,-0.6738,-0.6538,-0.6453,-0.6502,-0.6749,-0.6963,-0.7132,-0.7258,-0.7201,-0.6979,-0.6943,-0.6914,-0.6914,-0.6793,-0.6751,-0.6715,-0.6715,-0.6715,0.0,0.0,0.0,0.0,0.0,0.0,0.0,0.0,-0.7393,-0.7745,-0.7856,-0.8107,-0.8374,-0.8374,-0.8286,-0.8281,-0.8527,-0.8739,-0.9006,-0.9355,0.0,0.0,0.0,0.0,0.0,0.0,0.0,0.0,0.0,0.0,0.0,0.0,0.0,0.0,0.0,0.0,0.0,0.0,0.0,0.0,0.0,0.0,0.0,0.0,0.0,0.0,0.0,-1.6183,-1.632,-1.6457,-1.6457,-1.6598,-1.6885,-1.6885,-1.6885,-1.6885,-1.6466,-1.6183,-1.6183,-1.6183,-1.6183,-1.6183,-1.6183,-1.6183,-1.6174,-1.6037,-1.6125,-1.6385,-1.6299,-1.6581,-1.6772,-1.6892,-1.7107,-1.7347,0.0,0.0,0.0,0.0,0.0,0.0,0.0,0.0,0.0,0.0,0.0,0.0,0.0,0.0,0.0,0.0,0.0,0.0,0.0,-0.5967,-0.5967,-0.6382,-0.5998,-0.6078,-0.6702,-0.6502,-0.6416,-0.6416,-0.6768,-0.7039,-0.7121,-0.7284,-0.7221,-0.6985,-0.6914,-0.6872,-0.6787,-0.6666,-0.6581,-0.6532,-0.6496,-0.6496,0.0,0.0,0.0,0.0,0.0,0.0,0.0,0.0,-0.6898,-0.7296,-0.7296,-0.7621,-0.8002,-0.8002,-0.8032,-0.8068,-0.8264,-0.864,-0.9029,0.0,0.0,0.0,0.0,0.0,0.0,0.0,0.0,0.0,0.0,0.0,0.0,0.0,0.0,0.0,0.0,0.0,0.0,0.0,0.0,0.0,0.0,0.0,0.0,0.0,0.0,0.0,0.0,-1.6608,-1.6603,-1.6875,-1.6875,-1.7021,-1.7308,-1.7308,-1.7273,-1.7207,-1.6646,-1.6545,-1.6608,-1.6608,-1.6569,-1.6511,-1.6511,-1.6467,-1.625,-1.6239,-1.6275,-1.6343,-1.6596,-1.6763,-1.6953,-1.6918,-1.6991,-1.7233,0.0,0.0,0.0,0.0,0.0,0.0,0.0,0.0,0.0,0.0,0.0,0.0,0.0,0.0,0.0,0.0,0.0,0.0,-0.6315,-0.5998,-0.5967,-0.6375,-0.6028,-0.6078,-0.6696,-0.6496,-0.6416,-0.6416,-0.6581,-0.6715,-0.6715,-0.6901,-0.6943,-0.6914,-0.6914,-0.6745,-0.6483,-0.641,-0.6319,-0.6184,-0.6062,-0.5976,-0.5976,0.0,0.0,0.0,0.0,0.0,0.0,0.0,-0.6633,-0.6912,-0.6912,0.0,-0.7521,-0.7521,-0.7698,-0.7892,-0.7966,-0.8331,0.0,0.0,0.0,0.0,0.0,0.0,0.0,0.0,0.0,0.0,0.0,0.0,0.0,0.0,0.0,0.0,0.0,0.0,0.0,0.0,0.0,0.0,0.0,0.0,0.0,0.0,0.0,0.0,0.0,-1.7308,-1.7308,-1.7308,-1.7308,-1.7308,-1.7308,-1.7308,-1.7197,-1.6985,-1.6985,-1.7096,-1.7303,-1.7303,-1.7187,-1.6985,-1.6985,-1.6854,-1.6636,-1.6636,-1.6505,-1.6313,-1.67,-1.6692,-1.6499,-1.6877,-1.7001,-1.7001,0.0,0.0,0.0,0.0,0.0,0.0,0.0,0.0,0.0,0.0,0.0,0.0,0.0,0.0,0.0,0.0,0.0,0.0,-0.6315,-0.5998,-0.5906,-0.611,-0.593,-0.5984,-0.6391,-0.6301,-0.6319,-0.6416,-0.6489,-0.6568,-0.6568,-0.6702,-0.6793,-0.6751,-0.666,-0.6532,-0.6404,-0.6196,-0.6062,-0.5922,-0.5847,-0.5809,-0.5809,0.0,0.0,0.0,0.0,0.0,0.0,0.0,0.0,0.0,-0.6568,0.0,-0.7122,-0.7228,-0.7385,-0.7537,-0.7866,-0.8311,0.0,0.0,0.0,0.0,0.0,0.0,0.0,0.0,0.0,0.0,0.0,0.0,0.0,0.0,0.0,0.0,0.0,0.0,0.0,0.0,0.0,0.0,0.0,0.0,0.0,0.0,0.0,0.0,0.0,-1.7308,-1.7449,-1.7726,-1.7726,-1.7793,-1.7919,-1.7914,-1.7797,-1.7559,-1.7559,-1.7182,-1.6838,-1.6838,-1.6803,-1.6742,-1.6742,-1.6702,-1.6626,-1.6732,-1.6669,-1.6473,-1.6854,-1.6936,-1.6877,-1.7001,-1.7001,-1.7001,0.0,0.0,0.0,0.0,0.0,0.0,0.0,0.0,0.0,0.0,0.0,0.0,0.0,0.0,0.0,0.0,0.0,0.0,0.0,0.0,-0.5798,-0.5875,-0.5842,-0.5958,-0.6266,-0.6187,-0.6147,-0.6239,-0.6404,-0.6483,-0.6526,-0.673,-0.683,-0.6787,-0.6754,-0.6669,-0.649,-0.6163,-0.5897,-0.5704,-0.5576,-0.5463,-0.542,0.0,0.0,0.0,0.0,0.0,0.0,0.0,0.0,0.0,-0.6339,0.0,0.0,-0.7038,-0.7201,-0.7411,-0.7792,0.0,0.0,0.0,0.0,0.0,0.0,0.0,0.0,0.0,0.0,0.0,0.0,0.0,0.0,0.0,0.0,0.0,0.0,0.0,0.0,0.0,0.0,0.0,0.0,0.0,0.0,0.0,0.0,0.0,0.0,-1.7684,-1.7872,-1.8147,-1.8062,-1.7951,-1.8094,-1.7997,-1.7825,-1.7583,-1.7583,-1.7267,-1.6778,-1.6959,-1.6996,-1.6908,-1.6814,-1.6768,-1.6757,-1.6886,-1.6744,-1.6753,-1.6877,-1.7001,-1.7001,-1.7001,-1.7001,-1.7001,0.0,0.0,0.0,0.0,0.0,0.0,0.0,0.0,0.0,0.0,0.0,0.0,0.0,0.0,0.0,0.0,0.0,0.0,0.0,0.0,-0.5669,-0.5658,-0.5721,-0.5878,-0.6167,-0.6013,-0.5976,-0.5976,-0.6239,-0.6422,-0.6477,-0.6868,-0.6993,-0.6881,-0.6984,-0.69,-0.6642,-0.6189,-0.5821,-0.5569,-0.5311,-0.5096,-0.4969,-0.4994,0.0,0.0,0.0,0.0,0.0,0.0,0.0,0.0,-0.6161,-0.6418,-0.6643,-0.6894,-0.7105,-0.736,0.0,0.0,0.0,0.0,0.0,0.0,0.0,0.0,0.0,0.0,0.0,0.0,0.0,0.0,0.0,0.0,0.0,0.0,0.0,0.0,0.0,0.0,0.0,0.0,0.0,0.0,0.0,0.0,0.0,0.0,0.0,-1.8256,-1.8369,-1.8369,-1.8169,-1.8051,-1.8029,-1.7803,-1.7572,-1.7346,-1.7346,-1.7227,-1.7017,-1.7453,-1.754,-1.7335,-1.7103,-1.7001,-1.7001,-1.7001,-1.7007,-1.7007,-1.7136,-1.713,-1.7007,-1.7007,-1.7001,-1.7001,0.0,0.0,0.0,0.0,0.0,0.0,0.0,0.0,0.0,0.0,0.0,0.0,0.0,0.0,0.0,0.0,0.0,0.0,0.0,0.0,-0.5463,-0.5222,-0.5293,-0.5488,-0.5867,-0.5707,-0.5669,-0.5766,-0.5981,-0.6209,-0.6445,-0.6503,-0.6632,-0.6723,-0.6684,-0.6519,-0.6379,-0.5935,-0.5726,-0.5567,-0.512,-0.4947,-0.4887,-0.4723,-0.4666,0.0,0.0,0.0,0.0,0.0,0.0,0.0,-0.5638,-0.5845,-0.6078,-0.655,-0.6744,-0.6941,0.0,0.0,0.0,0.0,0.0,0.0,0.0,0.0,0.0,0.0,0.0,0.0,0.0,0.0,0.0,0.0,0.0,0.0,0.0,0.0,0.0,0.0,0.0,0.0,0.0,0.0,0.0,0.0,0.0,0.0,-1.7793,-1.7846,-1.7873,-1.7873,-1.7825,-1.7717,-1.7534,-1.748,-1.733,0.0,-1.7087,-1.7055,-1.7007,-1.7109,-1.713,-1.7082,-1.7028,-1.7001,-1.7007,-1.7265,-1.74,-1.74,-1.7653,-1.7653,-1.74,-1.74,-1.7265,-1.7001,0.0,0.0,0.0,0.0,0.0,0.0,0.0,0.0,0.0,0.0,0.0,0.0,0.0,0.0,0.0,0.0,0.0,0.0,0.0,0.0,0.0,-0.5055,-0.497,-0.51,-0.548,-0.5275,-0.5236,-0.5376,-0.5517,-0.5811,0.0,-0.6541,-0.6721,-0.69,-0.6817,-0.6662,-0.6457,-0.5991,-0.5645,-0.5334,-0.4986,-0.4766,-0.4658,-0.4611,-0.4621,-0.4621,-0.476,0.0,0.0,0.0,0.0,0.0,0.0,0.0,-0.6041,-0.6401,-0.6614,-0.6908,0.0,0.0,0.0,0.0,0.0,0.0,0.0,0.0,0.0,0.0,0.0,0.0,0.0,0.0,0.0,0.0,0.0,0.0,0.0,0.0,0.0,0.0,0.0,0.0,0.0,0.0,0.0,0.0,0.0,-1.7432,-1.755,-1.7658,-1.7717,-1.7717,-1.7615,-1.7496,-1.7378,-1.726,-1.7136,-1.7001,-1.7001,-1.7136,-1.7265,-1.7007,-1.7136,-1.7265,-1.7265,-1.7265,-1.7518,-1.7653,-1.7781,-1.7787,-1.791,-1.791,-1.7781,-1.7535,-1.74,-1.7271,0.0,0.0,0.0,0.0,0.0,0.0,0.0,0.0,0.0,0.0,0.0,0.0,0.0,0.0,0.0,0.0,0.0,0.0,0.0,0.0,0.0,-0.4904,-0.4656,-0.4625,-0.4961,-0.4753,-0.4714,-0.4854,-0.4942,0.0,0.0,0.0,0.0,-0.7012,-0.6945,-0.6815,-0.6588,-0.6034,-0.5545,-0.5113,-0.4875,-0.4653,-0.4453,-0.4576,-0.4618,-0.4618,-0.4861,-0.4981,-0.5085,-0.5392,0.0,0.0,0.0,0.0,-0.6106,-0.6362,-0.6599,-0.698,0.0,0.0,0.0,0.0,0.0,0.0,0.0,0.0,0.0,0.0,0.0,0.0,0.0,0.0,0.0,0.0,0.0,0.0,0.0,0.0,0.0,0.0,0.0,0.0,0.0,0.0,0.0,0.0,0.0,-1.7313,-1.7313,-1.7496,-1.7599,-1.7599,-1.741,-1.7313,-1.7313,-1.7109,-1.7001,-1.7001,-1.7007,-1.7265,-1.7529,-1.7265,-1.7265,-1.7535,-1.7535,-1.7781,-1.8033,-1.8039,-1.8039,-1.8168,-1.8168,-1.8168,-1.8039,-1.7793,-1.7664,-1.7405,0.0,0.0,0.0,0.0,0.0,0.0,0.0,0.0,0.0,0.0,0.0,0.0,0.0,0.0,0.0,0.0,0.0,0.0,-0.5372,0.0,0.0,-0.4475,-0.4228,-0.4182,-0.4399,-0.4268,-0.4224,-0.4224,0.0,0.0,0.0,0.0,0.0,-0.6714,0.0,-0.6282,-0.6228,-0.5655,-0.5316,-0.5249,-0.4801,-0.4629,-0.4562,-0.4572,-0.4618,-0.4618,-0.4759,-0.5014,-0.5263,-0.5288,-0.5508,0.0,0.0,0.0,-0.6009,-0.6316,-0.645,0.0,0.0,0.0,0.0,0.0,0.0,0.0,0.0,0.0,0.0,0.0,0.0,0.0,0.0,0.0,0.0,0.0,0.0,0.0,0.0,0.0,0.0,0.0,0.0,0.0,0.0,0.0,0.0,0.0,-1.7033,-1.7055,-1.7055,-1.7082,-1.7098,-1.7098,-1.7071,-1.7055,-1.7055,-1.7023,-1.7001,-1.7001,-1.7271,-1.7658,-1.791,-1.791,-1.791,-1.791,-1.791,-1.791,-1.8039,-1.8437,-1.8571,-1.8571,-1.8822,-1.8822,-1.8571,-1.8442,-1.805,-1.7535,0.0,0.0,0.0,0.0,0.0,0.0,0.0,0.0,0.0,0.0,0.0,0.0,0.0,0.0,0.0,-0.6029,-0.5718,-0.5271,-0.473,-0.4333,-0.4106,-0.4071,-0.3951,-0.3926,-0.3957,-0.3741,-0.3656,-0.3836,0.0,0.0,0.0,-0.5309,-0.5916,0.0,0.0,0.0,0.0,0.0,0.0,-0.5354,-0.4987,-0.4901,-0.4955,-0.4998,-0.5135,-0.5242,-0.5464,-0.5626,-0.5758,-0.5875,-0.5987,-0.6125,-0.6003,0.0,0.0,0.0,0.0,0.0,0.0,0.0,0.0,0.0,0.0,0.0,0.0,0.0,0.0,0.0,0.0,0.0,0.0,0.0,0.0,0.0,0.0,0.0,0.0,0.0,0.0,0.0,0.0,0.0,0.0,0.0,0.0,0.0,-1.7518,-1.7518,-1.7518,-1.7518,-1.7518,-1.7518,-1.7518,-1.7518,-1.7518,-1.7518,-1.7518,-1.7518,-1.7653,-1.8045,-1.8302,-1.8302,-1.8302,-1.8302,-1.8302,-1.8431,-1.8688,-1.8822,-1.8822,-1.895,-1.9078,-1.895,-1.8828,-1.8699,-1.8442,-1.8056,0.0,0.0,0.0,0.0,0.0,0.0,0.0,0.0,0.0,0.0,0.0,0.0,0.0,0.0,0.0,0.0,-0.5404,-0.4921,-0.4268,-0.4093,-0.3939,-0.3758,-0.3692,-0.3626,-0.352,-0.3262,-0.322,0.0,0.0,0.0,-0.4324,-0.4656,-0.5304,0.0,-0.6151,0.0,0.0,0.0,0.0,0.0,-0.5154,-0.5175,-0.5276,-0.5463,-0.5674,-0.5956,-0.6137,-0.6384,-0.6507,-0.6634,-0.6736,-0.6706,-0.652,-0.6517,0.0,0.0,0.0,0.0,0.0,0.0,0.0,0.0,0.0,0.0,0.0,0.0,0.0,0.0,0.0,0.0,0.0,0.0,0.0,0.0,0.0,0.0,0.0,0.0,0.0,0.0,0.0,0.0,0.0,0.0,0.0,0.0,-1.8033,-1.8033,-1.8033,-1.8033,-1.8033,-1.8033,-1.8033,-1.8033,-1.8033,-1.8033,-1.8039,-1.8168,-1.8168,-1.8302,-1.8699,-1.8699,-1.8699,-1.8699,-1.8699,-1.8822,-1.9078,-1.9078,-1.9078,-1.9078,-1.9078,-1.9078,-1.9078,-1.8822,-1.8699,-1.8571,0.0,0.0,0.0,0.0,0.0,0.0,0.0,0.0,0.0,0.0,0.0,0.0,-0.6052,-0.5905,-0.571,-0.5453,-0.5106,-0.474,-0.4307,-0.3934,-0.3701,-0.3604,-0.3423,0.0,-0.2954,-0.2912,0.0,0.0,0.0,0.0,-0.377,-0.3955,-0.4515,-0.5261,-0.5502,-0.5627,-0.5634,0.0,0.0,0.0,0.0,0.0,0.0,-0.5761,-0.6117,-0.6457,0.0,-0.7037,-0.7497,-0.7562,-0.7631,-0.7697,-0.7489,-0.7371,-0.7234,0.0,0.0,0.0,0.0,0.0,0.0,0.0,0.0,0.0,0.0,0.0,0.0,0.0,0.0,0.0,0.0,0.0,0.0,0.0,0.0,0.0,0.0,0.0,0.0,0.0,0.0,0.0,0.0,0.0,0.0,0.0,-1.8033,-1.8033,-1.8033,-1.8033,-1.8033,-1.8033,-1.8033,-1.8033,-1.8033,-1.8033,-1.8173,-1.8571,-1.8571,-1.8699,-1.9078,-1.9078,-1.9078,-1.9078,-1.9078,-1.9078,-1.9078,-1.9078,-1.9078,-1.9078,-1.9078,-1.9078,-1.9078,-1.9078,-1.8822,-1.8571,0.0,0.0,0.0,0.0,0.0,0.0,0.0,0.0,0.0,0.0,0.0,0.0,0.0,-0.5816,-0.5665,-0.5538,-0.5092,-0.4701,-0.4396,-0.4098,-0.383,-0.3551,-0.3442,-0.3215,-0.2912,-0.2732,0.0,0.0,0.0,-0.2916,-0.3271,-0.3652,-0.413,-0.461,-0.5093,-0.5512,-0.5777,-0.5513,0.0,0.0,0.0,0.0,0.0,0.0,0.0,0.0,0.0,0.0,0.0,-0.8275,-0.8334,-0.8314,-0.8019,-0.784,-0.7776,-0.7699,0.0,0.0,0.0,0.0,0.0,0.0,0.0,0.0,0.0,0.0,0.0,0.0,0.0,0.0,0.0,0.0,0.0,0.0,0.0,0.0,0.0,0.0,0.0,0.0,0.0,0.0,0.0,0.0,0.0,0.0,0.0,-1.851,-1.8676,-1.8688,-1.8688,-1.8688,-1.8688,-1.8688,-1.8688,-1.8688,-1.8816,-1.895,-1.895,-1.895,-1.9078,-1.9078,-1.9078,-1.9078,-1.9078,-1.9078,-1.9078,-1.9078,-1.9078,-1.9078,-1.9078,-1.9078,-1.9078,-1.9078,-1.9078,-1.895,0.0,0.0,0.0,0.0,0.0,0.0,0.0,0.0,0.0,0.0,0.0,0.0,0.0,0.0,-0.5731,-0.5509,-0.5066,-0.4719,-0.4499,-0.4221,-0.395,-0.3595,-0.3477,-0.322,-0.2823,-0.2595,0.0,0.0,0.0,0.0,0.0,-0.3324,-0.3704,-0.4059,-0.4588,-0.5077,0.0,0.0,0.0,-0.6076,0.0,0.0,-0.7204,0.0,0.0,0.0,0.0,0.0,0.0,0.0,-0.9474,-0.9385,-0.9003,-0.8587,0.0,0.0,0.0,0.0,0.0,0.0,0.0,0.0,0.0,0.0,0.0,0.0,0.0,0.0,0.0,0.0,0.0,0.0,0.0,0.0,0.0,0.0,0.0,0.0,0.0,0.0,0.0,0.0,0.0,0.0,0.0,0.0,0.0,0.0,-1.8807,-1.8897,-1.8982,-1.9072,-1.9078,-1.9078,-1.9078,-1.9078,-1.9078,-1.9078,-1.9078,-1.9078,-1.9078,-1.9078,-1.9206,-1.9328,-1.9328,-1.92,-1.9078,-1.9078,-1.9078,-1.9078,-1.9078,-1.9078,-1.9078,-1.9078,-1.9078,-1.9078,0.0,0.0,0.0,0.0,0.0,0.0,0.0,0.0,0.0,-0.6666,0.0,0.0,0.0,0.0,0.0,-0.5357,-0.5012,-0.4757,-0.4613,-0.4295,-0.4001,-0.3737,-0.3527,-0.3176,-0.2732,-0.2595,-0.2417,0.0,0.0,0.0,0.0,0.0,-0.3249,-0.3818,-0.3942,-0.4382,-0.509,0.0,-0.5717,-0.5949,0.0,-0.7253,-0.7727,0.0,0.0,0.0,-0.9989,-1.0405,0.0,-1.0983,0.0,0.0,0.0,0.0,0.0,0.0,0.0,0.0,0.0,0.0,0.0,0.0,0.0,0.0,0.0,0.0,0.0,0.0,0.0,0.0,0.0,0.0,0.0,0.0,0.0,0.0,0.0,0.0,0.0,0.0,0.0,0.0,0.0,0.0,0.0,0.0,-1.8281,-1.8281,-1.8294,-1.8535,-1.8788,-1.9042,-1.9054,-1.9054,-1.9054,-1.9054,-1.9054,-1.9054,-1.9054,-1.9048,-1.9048,-1.9054,-1.9304,-1.9553,-1.9553,-1.9431,-1.9054,-1.9066,-1.9072,-1.9072,-1.9078,-1.9078,-1.9078,-1.9078,-1.9078,-1.9078,0.0,0.0,0.0,0.0,0.0,0.0,0.0,0.0,0.0,0.0,0.0,0.0,-0.6253,-0.6179,-0.6056,-0.5813,-0.56,-0.5334,-0.5056,-0.4667,-0.4262,-0.3877,-0.3663,-0.3312,-0.2868,-0.2821,-0.2642,0.0,0.0,0.0,0.0,0.0,0.0,0.0,-0.3945,-0.4397,-0.4758,-0.5329,0.0,0.0,-0.7142,-0.7859,0.0,0.0,0.0,0.0,0.0,-1.1249,-1.1736,0.0,-1.1701,-1.1424,0.0,0.0,0.0,0.0,0.0,0.0,-0.9871,0.0,0.0,0.0,0.0,0.0,0.0,0.0,0.0,0.0,0.0,0.0,0.0,0.0,0.0,0.0,0.0,0.0,0.0,0.0,0.0,0.0,0.0,0.0,0.0,0.0,0.0,0.0,-1.7992,-1.8076,-1.8281,-1.836,-1.8432,-1.8511,-1.8511,-1.8511,-1.8511,-1.8511,-1.8511,-1.8511,-1.8747,-1.8865,-1.8871,-1.9112,-1.923,-1.9353,-1.9353,-1.923,-1.9137,-1.9416,-1.945,-1.945,-1.92,-1.9078,-1.9078,-1.9078,-1.9078,-1.9078,0.0,0.0,0.0,0.0,0.0,0.0,0.0,0.0,0.0,0.0,0.0,0.0,-0.6719,-0.6557,-0.6478,-0.6502,-0.6197,-0.5874,-0.5647,-0.5226,-0.4813,-0.4411,-0.4111,-0.3712,-0.3257,-0.3169,-0.2938,0.0,0.0,0.0,0.0,0.0,0.0,0.0,0.0,0.0,0.0,0.0,0.0,0.0,-0.7647,0.0,0.0,-0.997,-1.0736,0.0,0.0,0.0,-1.2786,-1.2949,-1.2766,0.0,0.0,0.0,0.0,0.0,0.0,0.0,0.0,0.0,0.0,0.0,0.0,0.0,-1.2881,-1.3385,0.0,0.0,0.0,0.0,0.0,0.0,0.0,0.0,0.0,0.0,0.0,0.0,0.0,0.0,0.0,0.0,0.0,-1.7769,-1.7898,-1.8052,-1.8064,-1.8188,-1.8471,-1.8483,-1.8532,-1.8643,-1.8649,-1.8649,-1.8649,-1.8649,-1.8649,-1.8649,-1.8882,-1.8882,-1.8882,-1.9126,-1.9248,-1.9376,-1.9376,-1.9498,-1.9639,-1.948,-1.9431,-1.9416,-1.9158,-1.9078,-1.9078,-1.9078,-1.9078,-1.9078,0.0,0.0,0.0,0.0,0.0,0.0,0.0,0.0,0.0,0.0,-0.715,-0.7135,-0.7315,-0.7075,-0.6991,-0.7182,-0.6755,-0.6423,-0.6282,-0.5883,-0.5496,-0.5162,-0.4753,-0.4287,-0.3812,-0.363,-0.3348,0.0,0.0,0.0,0.0,0.0,0.0,0.0,0.0,0.0,0.0,0.0,0.0,-0.7045,-0.834,-0.9096,0.0,0.0,-1.163,-1.2075,-1.3205,-1.3677,-1.3787,-1.4198,-1.401,0.0,0.0,0.0,0.0,0.0,-1.0756,0.0,0.0,0.0,0.0,0.0,0.0,0.0,-1.3129,-1.3447,-1.3773,0.0,0.0,0.0,0.0,0.0,0.0,0.0,0.0,0.0,0.0,0.0,0.0,0.0,0.0,0.0,-1.7963,-1.818,-1.8326,-1.8326,-1.8358,-1.8491,-1.8771,-1.8784,-1.8898,-1.914,-1.9153,-1.9153,-1.9153,-1.9153,-1.9153,-1.9153,-1.9153,-1.9153,-1.9153,-1.9153,-1.9401,-1.9657,-1.9657,-1.9899,-2.002,-1.944,-1.9246,-1.915,-1.9048,-1.9036,-1.9036,-1.9066,-1.9078,-1.9078,-0.7488,0.0,0.0,0.0,0.0,0.0,0.0,0.0,0.0,0.0,-0.7498,-0.7569,-0.7628,-0.7506,-0.7437,-0.7379,-0.7146,-0.696,-0.6713,-0.6326,-0.5936,-0.5594,-0.5309,-0.4901,-0.4364,-0.4319,-0.4073,0.0,0.0,0.0,0.0,0.0,0.0,0.0,0.0,0.0,0.0,0.0,0.0,-0.825,-0.9007,0.0,-1.0376,-1.1271,-1.2254,-1.3298,-1.3722,-1.416,-1.4496,-1.4545,-1.4383,-1.4062,0.0,0.0,0.0,-1.219,0.0,0.0,0.0,0.0,0.0,0.0,0.0,0.0,-1.3351,-1.3774,-1.4222,0.0,0.0,0.0,0.0,0.0,0.0,0.0,0.0,0.0,0.0,0.0,0.0,0.0,0.0,0.0,-1.7553,-1.7603,-1.7635,-1.7635,-1.7957,-1.8211,-1.8485,-1.8498,-1.8523,-1.8574,-1.858,-1.858,-1.858,-1.858,-1.858,-1.858,-1.8809,-1.8927,-1.8927,-1.9292,-1.9415,-1.9422,-1.9422,-1.9539,-1.9553,-1.906,-1.9076,-1.924,-1.8906,-1.8758,-1.8782,-1.9,-1.9078,-1.9078,-0.7958,0.0,0.0,0.0,0.0,0.0,0.0,0.0,0.0,0.0,0.0,0.0,0.0,-0.8357,-0.8426,-0.8659,-0.8421,-0.8209,-0.8043,-0.7563,-0.7133,-0.6804,-0.633,-0.5803,-0.5228,-0.5089,-0.479,0.0,0.0,0.0,0.0,0.0,0.0,0.0,0.0,0.0,0.0,0.0,-0.8107,-0.8971,-0.9637,0.0,-1.1033,-1.2048,-1.3014,-1.3848,-1.4493,-1.5152,-1.566,-1.5706,-1.5466,0.0,0.0,-1.4007,-1.3475,0.0,-1.2687,-1.2569,0.0,0.0,0.0,-1.3027,0.0,0.0,0.0,-1.4272,-1.4546,0.0,0.0,0.0,0.0,0.0,0.0,0.0,0.0,0.0,0.0,0.0,0.0,0.0,0.0,0.0,-1.7583,-1.7624,-1.7773,-1.8027,-1.817,-1.8379,-1.8666,-1.8679,-1.8744,-1.8887,-1.8894,-1.8894,-1.8894,-1.8894,-1.8894,-1.8894,-1.912,-1.912,-1.9127,-1.9366,-1.9366,-1.9366,-1.9366,-1.9366,-1.9133,-1.8803,-1.8595,-1.8646,-1.8576,-1.8487,-1.8523,-1.8782,-1.8879,-1.8903,-0.8447,0.0,0.0,0.0,0.0,0.0,0.0,0.0,0.0,0.0,0.0,0.0,0.0,0.0,0.0,0.0,-0.9865,-0.9663,-0.9544,0.0,-0.8562,-0.8212,-0.7545,-0.688,-0.6276,-0.6009,-0.5712,0.0,0.0,0.0,0.0,0.0,0.0,0.0,0.0,0.0,0.0,0.0,0.0,-0.9858,0.0,-1.1182,-1.1799,-1.2878,-1.365,-1.4313,-1.5388,-1.6216,-1.6807,-1.6807,-1.6447,-1.6006,-1.5435,-1.481,0.0,0.0,0.0,0.0,0.0,0.0,0.0,0.0,0.0,-1.4195,0.0,0.0,0.0,0.0,0.0,0.0,0.0,0.0,0.0,0.0,0.0,0.0,0.0,0.0,0.0,0.0,0.0,0.0,0.0,-1.7748,-1.7916,-1.8319,-1.8283,-1.8444,-1.8738,-1.8804,-1.8978,-1.9272,-1.9279,-1.9305,-1.9366,-1.9366,-1.9366,-1.9366,-1.9366,-1.9366,-1.9366,-1.9366,-1.9366,-1.9366,-1.9366,-1.912,-1.8874,-1.8538,-1.8194,-1.8022,-1.8143,-1.8215,-1.8245,-1.8511,-1.8644,-1.8716,-0.8561,-0.8324,0.0,0.0,0.0,0.0,0.0,0.0,0.0,0.0,0.0,0.0,0.0,0.0,0.0,0.0,0.0,0.0,-1.0461,0.0,0.0,-0.9169,-0.8792,-0.828,-0.7704,-0.7331,-0.7086,-0.6959,0.0,0.0,0.0,0.0,0.0,0.0,-0.7191,0.0,0.0,0.0,-1.011,0.0,-1.2159,-1.2629,0.0,-1.3315,-1.4259,-1.5439,-1.6355,-1.6787,-1.7021,0.0,-1.69,-1.6613,0.0,-1.5615,-1.5196,-1.4659,0.0,0.0,0.0,0.0,0.0,0.0,-1.4415,0.0,0.0,0.0,-1.5406,-1.5439,0.0,0.0,0.0,0.0,0.0,0.0,0.0,0.0,0.0,0.0,0.0,0.0,0.0,0.0,0.0,-1.7344,-1.7299,-1.7592,-1.7647,-1.7822,-1.813,-1.8397,-1.8677,-1.8965,-1.8978,-1.9098,-1.9366,-1.9366,-1.9366,-1.9366,-1.9366,-1.9366,-1.9366,-1.9366,-1.9366,-1.9366,-1.912,-1.8997,-1.8881,-1.8311,-1.8089,-1.8003,-1.793,-1.7919,-1.7956,-1.8233,-1.8487,-1.8686,-0.8928,-0.8529,0.0,0.0,0.0,0.0,0.0,0.0,0.0,0.0,0.0,0.0,0.0,0.0,0.0,0.0,0.0,-1.2467,0.0,0.0,0.0,0.0,-1.0375,-0.9823,-0.9174,-0.8834,-0.8438,-0.7995,-0.7878,0.0,0.0,0.0,0.0,0.0,-0.8204,0.0,-0.9642,0.0,0.0,0.0,0.0,0.0,0.0,-1.4245,-1.5095,-1.6368,-1.717,-1.7687,-1.7839,0.0,-1.7626,0.0,0.0,0.0,0.0,0.0,0.0,0.0,0.0,0.0,0.0,0.0,0.0,0.0,-1.5263,0.0,-1.5635,0.0,0.0,0.0,0.0,0.0,0.0,0.0,-1.549,0.0,0.0,0.0,0.0,0.0,0.0,0.0,0.0,0.0,0.0,0.0,-1.6954,-1.7203,-1.7742,-1.7896,-1.8183,-1.8657,-1.8838,-1.8985,-1.9112,-1.9279,-1.9366,-1.9366,-1.9366,-1.9366,-1.9366,-1.9366,-1.9366,-1.9366,-1.9004,-1.8765,-1.8532,-1.82,-1.7849,-1.7732,-1.7724,-1.7648,-1.7678,-1.795,-1.8118,-1.8257,-0.9635,0.0,0.0,0.0,0.0,0.0,0.0,0.0,0.0,0.0,0.0,0.0,-1.2671,-1.3103,0.0,0.0,-1.4055,-1.4,0.0,0.0,-1.3233,0.0,0.0,0.0,0.0,-1.0317,-0.9884,-0.9379,-0.9238,0.0,0.0,0.0,0.0,0.0,0.0,-0.9734,-1.0536,0.0,0.0,-1.3234,-1.3722,-1.4658,-1.5832,-1.553,-1.6192,-1.7278,-1.7988,-1.8351,-1.8534,-1.8534,-1.8289,0.0,-1.749,0.0,0.0,0.0,0.0,0.0,-1.6098,0.0,0.0,0.0,0.0,0.0,0.0,0.0,0.0,0.0,0.0,0.0,0.0,0.0,0.0,0.0,0.0,0.0,0.0,0.0,0.0,0.0,0.0,0.0,0.0,0.0,0.0,-1.6374,-1.645,-1.663,-1.7068,-1.7328,-1.7702,-1.8223,-1.8531,-1.8758,-1.8925,-1.9138,-1.9285,-1.9366,-1.9366,-1.9366,-1.9366,-1.9366,-1.9366,-1.9243,-1.8887,-1.8532,-1.8305,-1.796,-1.7726,-1.7485,-1.7485,-1.7485,-1.7503,-1.7696,-1.7811,-1.769,-1.082,-0.9776,0.0,0.0,0.0,0.0,0.0,0.0,0.0,0.0,0.0,0.0,0.0,0.0,0.0,0.0,0.0,-1.5481,-1.5119,0.0,-1.4429,0.0,0.0,-1.3159,0.0,0.0,-1.1527,-1.1326,-1.0823,-1.0416,0.0,0.0,0.0,0.0,0.0,-1.0572,-1.1234,-1.1763,-1.2789,-1.42,-1.4703,-1.5828,-1.705,0.0,-1.7666,-1.7995,-1.8636,0.0,0.0,-1.8869,-1.8862,0.0,0.0,0.0,0.0,0.0,0.0,0.0,0.0,0.0,0.0,-1.7113,0.0,0.0,0.0,0.0,-1.6581,0.0,0.0,0.0,0.0,0.0,0.0,0.0,0.0,0.0,0.0,0.0,0.0,0.0,0.0,0.0,0.0,0.0,0.0,-1.5707,-1.5996,-1.615,-1.5885,-1.67,-1.7301,-1.7602,-1.7909,-1.8343,-1.8918,-1.8931,-1.9085,-1.9366,-1.9366,-1.9366,-1.9366,-1.9366,-1.9243,-1.8874,-1.8532,-1.8311,-1.7972,-1.7608,-1.7485,-1.7485,-1.7485,-1.7485,-1.7485,-1.7491,-1.7422,-1.7402,0.0,0.0,0.0,0.0,0.0,0.0,0.0,-1.139,0.0,0.0,0.0,0.0,0.0,-1.579,-1.6442,0.0,0.0,-1.7147,-1.6881,-1.6813,0.0,0.0,0.0,-1.4852,0.0,0.0,-1.3174,-1.2817,-1.2345,-1.1734,0.0,0.0,0.0,0.0,0.0,-1.1615,0.0,0.0,0.0,0.0,0.0,-1.7088,-1.7879,0.0,0.0,-1.833,-1.8955,-1.9175,0.0,-1.9175,-1.9078,-1.8855,-1.8636,-1.849,-1.8247,-1.8149,-1.7974,0.0,0.0,0.0,-1.7591,-1.7485,0.0,0.0,0.0,0.0,0.0,0.0,0.0,0.0,0.0,0.0,0.0,0.0,0.0,0.0,0.0,0.0,0.0,0.0,0.0,0.0,0.0,0.0,0.0,-1.5021,-1.4984,-1.5273,-1.5785,-1.6112,-1.6587,-1.7275,-1.7589,-1.7822,-1.8,-1.8612,-1.8858,-1.8836,-1.9156,-1.9366,-1.9366,-1.9127,-1.8997,-1.8874,-1.8311,-1.8083,-1.7972,-1.7602,-1.7485,-1.7485,-1.7485,-1.7367,-1.7138,-1.7138,-1.7191,-1.7054,-1.2438,0.0,0.0,0.0,0.0,0.0,0.0,0.0,0.0,0.0,-1.4703,0.0,-1.6154,0.0,-1.7476,0.0,-1.8162,-1.8225,-1.8197,-1.8118,0.0,-1.7173,-1.6715,0.0,0.0,0.0,-1.4801,-1.4308,-1.3811,-1.3196,0.0,0.0,0.0,0.0,0.0,0.0,0.0,0.0,-1.4588,0.0,0.0,-1.8018,0.0,0.0,-1.8759,-1.8788,0.0,-1.9279,-1.9279,-1.9279,-1.9175,-1.9078,-1.9078,-1.8855,-1.8743,-1.884,-1.8704,-1.8642,-1.8745,-1.8593,0.0,-1.8311,-1.8282,0.0,-1.7876,0.0,0.0,0.0,0.0,0.0,0.0,0.0,0.0,0.0,0.0,0.0,0.0,-1.4475,0.0,0.0,0.0,0.0,0.0,0.0,-1.4151,-1.4295,-1.4358,-1.4654,0.0,0.0,-1.6092,-1.666,-1.7065,-1.7364,-1.7447,-1.8026,-1.8255,-1.835,-1.8768,-1.8912,-1.901,-1.8765,-1.8648,-1.8538,-1.82,-1.7966,-1.7849,-1.7602,-1.7485,-1.7485,-1.7485,-1.725,-1.7026,-1.7026,-1.6908,-1.6577,0.0,0.0,0.0,0.0,-1.125,0.0,0.0,0.0,-1.3725,0.0,-1.5564,-1.6218,-1.7637,-1.8002,-1.8408,-1.9221,-1.9049,-1.8885,-1.8885,-1.8704,0.0,0.0,-1.7977,-1.7803,-1.7556,0.0,0.0,0.0,-1.5294,-1.4568,0.0,0.0,0.0,0.0,-1.2664,0.0,-1.3333,-1.3975,-1.4895,-1.593,-1.7609,-1.8503,-1.8783,-1.9433,-1.9576,-1.9376,-1.9376,-1.9376,-1.9376,-1.9376,-1.9376,-1.9376,-1.9376,-1.9376,-1.9376,-1.968,-1.968,-1.9783,-2.0078,-2.0078,-2.001,-1.9704,0.0,0.0,0.0,0.0,-1.8533,0.0,0.0,0.0,0.0,0.0,0.0,0.0,0.0,0.0,0.0,0.0,0.0,0.0,0.0,0.0,0.0,-1.386,-1.371,-1.3475,-1.4008,0.0,0.0,0.0,-1.5772,-1.5825,-1.6347,-1.6834,-1.7153,-1.7212,-1.741,-1.797,-1.7983,-1.8129,-1.8396,-1.8396,-1.8181,-1.7972,-1.7966,-1.7843,-1.7485,-1.7485,-1.7485,-1.7485,-1.7485,-1.725,-1.7026,-1.6903,-1.6554,-1.6081,-1.3924,-1.3386,-1.3222,0.0,-1.3136,-1.3067,0.0,0.0,0.0,0.0,-1.7055,-1.8065,-1.8461,-1.9287,-1.9903,-2.0192,-2.0201,0.0,0.0,0.0,0.0,-1.9208,-1.8848,-1.8709,-1.862,-1.7906,-1.7416,-1.7329,0.0,0.0,-1.4996,0.0,0.0,0.0,0.0,0.0,-1.3605,-1.4847,-1.618,-1.7581,-1.8357,-1.8942,0.0,0.0,-1.9983,-1.9879,-1.9879,-1.9879,-1.9879,-1.9879,-1.9879,-1.9879,-1.9879,-1.9879,-1.9879,-1.9983,-1.9983,-1.9975,-2.0078,-2.0078,-2.0063,-1.9979,-1.9964,-1.9872,0.0,0.0,0.0,0.0,0.0,0.0,0.0,0.0,0.0,0.0,0.0,0.0,0.0,0.0,0.0,-1.3453,0.0,0.0,0.0,-1.2988,-1.3003,-1.314,-1.3155,0.0,0.0,0.0,0.0,-1.5514,-1.5763,-1.5931,-1.6229,-1.6711,-1.6921,-1.706,-1.7489,-1.7843,-1.8116,-1.788,-1.7877,-1.7972,-1.7726,-1.7602,-1.7485,-1.7485,-1.7485,-1.7485,-1.7485,-1.7126,-1.6543,-1.6436,-1.6081,-1.572,-1.5119,0.0,0.0,-1.4997,0.0,0.0,-1.4716,0.0,0.0,-1.7125,-1.8115,0.0,-1.9466,-2.0125,-2.0597,-2.0669,-2.0792,0.0,-2.0898,0.0,0.0,-2.0602,-2.0121,-1.9845,-1.9679,-1.9101,0.0,-1.8194,0.0,0.0,-1.5873,0.0,0.0,0.0,0.0,-1.4061,0.0,-1.5539,-1.687,-1.8215,-1.8551,0.0,0.0,-2.0169,-2.0403,-2.0498,-2.0498,-2.0292,-2.0078,-2.0078,-2.0078,-2.0078,-2.0078,-2.0078,-2.0078,-2.0189,-2.03,-2.03,-2.0395,-2.0498,-2.0498,-2.0498,-2.0498,-2.0349,-2.0171,-2.0008,-1.9752,0.0,0.0,0.0,0.0,0.0,0.0,0.0,0.0,0.0,0.0,0.0,0.0,0.0,-1.2785,0.0,0.0,-1.2304,-1.2297,-1.2457,0.0,0.0,0.0,0.0,0.0,-1.4948,-1.5031,-1.5316,-1.5729,-1.6106,-1.6336,-1.6624,-1.6882,-1.7279,-1.7551,-1.743,-1.7584,-1.7726,-1.7602,-1.7485,-1.7485,-1.7485,-1.7485,-1.7485,-1.7367,-1.7015,-1.6661,-1.6431,-1.6076,-1.5844,0.0,0.0,0.0,0.0,0.0,0.0,0.0,-1.6813,0.0,-1.8725,0.0,-1.956,-2.0665,-2.0738,-2.0926,-2.1293,0.0,-2.139,-2.1746,-2.1494,-2.1447,-2.1873,-2.1422,-2.1077,-2.0644,-2.0397,-1.9794,0.0,0.0,0.0,0.0,0.0,0.0,0.0,0.0,0.0,0.0,-1.6216,-1.7296,-1.8378,-1.8716,-1.9353,-2.0101,-2.0405,-2.0719,-2.0925,-2.0925,-2.0609,-2.0181,-2.0181,-2.0181,-2.0181,-2.0181,-2.0181,-2.0292,-2.0514,-2.0514,-2.0617,-2.0822,-2.0925,-2.0925,-2.0925,-2.0925,-2.0925,-2.0925,-2.0686,-2.0261,-1.9716,-1.9364,-1.8838,0.0,0.0,0.0,0.0,0.0,0.0,0.0,0.0,0.0,0.0,0.0,0.0,0.0,0.0,0.0,0.0,0.0,0.0,0.0,0.0,0.0,-1.4002,-1.4384,-1.4843,-1.5382,0.0,-1.5692,-1.6181,-1.6211,-1.6495,-1.699,-1.7026,-1.7183,-1.7436,-1.7467,-1.7485,-1.7485,-1.7485,-1.7485,-1.7485,-1.7138,-1.702,-1.6903,-1.6661,-1.6431,-1.62,0.0,0.0,0.0,0.0,0.0,-1.8169,-1.9221,-1.9062,-1.9077,-1.9687,-2.0604,-2.1455,-2.2114,-2.2292,-2.2464,-2.2862,-2.2526,0.0,0.0,0.0,0.0,-2.2167,-2.2081,-2.1856,-2.1596,-2.1002,-2.0594,0.0,0.0,0.0,0.0,0.0,0.0,0.0,0.0,0.0,-1.6266,-1.6914,0.0,-1.904,-1.9568,-2.0117,-2.0735,-2.0798,-2.0822,-2.0925,-2.0925,-2.0814,-2.0712,-2.0712,-2.0712,-2.0712,-2.0712,-2.0712,-2.0814,-2.0822,-2.0822,-2.0822,-2.0925,-2.0925,-2.0925,-2.0925,-2.0925,-2.0925,-2.0925,-2.0869,-2.0726,-2.0277,-1.9823,-1.9186,-1.8567,0.0,0.0,0.0,0.0,0.0,0.0,0.0,0.0,0.0,0.0,-1.2359,0.0,0.0,0.0,0.0,0.0,0.0,0.0,0.0,0.0,0.0,-1.374,0.0,0.0,0.0,-1.533,-1.5638,-1.5855,-1.6121,-1.6429,-1.6664,-1.6911,-1.7171,-1.7388,-1.7485,-1.7485,-1.7485,-1.7485,-1.7479,-1.7485,-1.725,-1.702,-1.6903,-1.6903,-1.6785,0.0,0.0,0.0,0.0,0.0,0.0,0.0,-2.0784,0.0,-2.0936,-2.1646,-2.2318,-2.2735,-2.3051,-2.3279,-2.3467,-2.3205,-2.3015,-2.3235,-2.2862,-2.2759,-2.3062,-2.2886,-2.2691,-2.2303,-2.1803,-2.1318,-2.0746,0.0,0.0,0.0,0.0,0.0,0.0,0.0,-1.6213,0.0,0.0,0.0,-1.9321,-1.976,-2.0405,-2.0925,-2.0925,-2.0925,-2.0925,-2.0925,-2.0925,-2.0925,-2.0925,-2.0925,-2.0925,-2.0925,-2.0925,-2.0925,-2.0925,-2.0925,-2.0925,-2.0925,-2.0925,-2.0925,-2.0925,-2.0925,-2.0925,-2.0925,-2.0925,-2.0821,-2.0464,-1.9917,-1.9225,-1.8335,-1.7356,0.0,0.0,0.0,0.0,0.0,0.0,0.0,0.0,0.0,0.0,0.0,0.0,0.0,0.0,0.0,0.0,0.0,0.0,0.0,0.0,0.0,0.0,0.0,0.0,0.0,-1.5499,-1.5765,-1.603,-1.6308,-1.6579,-1.6845,-1.7105,-1.737,-1.7485,-1.7485,-1.7485,-1.7485,-1.7485,-1.7485,-1.7367,-1.7256,-1.7256,-1.7256,-1.725,0.0,-1.9558,0.0,0.0,-2.0385,0.0,-2.1617,-2.2109,-2.2313,-2.2131,-2.2503,-2.2961,-2.3458,-2.3718,-2.3946,-2.4032,-2.3749,-2.3699,-2.4035,-2.3666,-2.3519,-2.3836,-2.3646,-2.3412,-2.3001,-2.261,-2.2011,0.0,0.0,0.0,0.0,0.0,0.0,0.0,0.0,0.0,0.0,0.0,-1.888,-1.9626,-2.0069,-2.0476,-2.0925,-2.0925,-2.0925,-2.0925,-2.0925,-2.0925,-2.0925,-2.0925,-2.0925,-2.0925,-2.0925,-2.0925,-2.0925,-2.0925,-2.0925,-2.0925,-2.0925,-2.0925,-2.0925,-2.0925,-2.0925,-2.0925,-2.0925,-2.0822,-2.0743,-2.0466,-1.9873,-1.8985,-1.7841,-1.7059,0.0,0.0,0.0,0.0,0.0,0.0,0.0,0.0,0.0,0.0,-1.2421,0.0,0.0,0.0,0.0,0.0,0.0,0.0,0.0,0.0,0.0,-1.3713,-1.4129,0.0,-1.5215,-1.5421,-1.5734,-1.6006,-1.6229,-1.6495,-1.6754,-1.7026,-1.7286,-1.743,-1.7485,-1.7485,-1.7485,-1.7485,-1.7485,-1.7485,-1.7485,-1.7485,-1.7485,-1.7485,0.0,0.0,0.0,0.0,0.0,0.0,-2.2383,-2.2726,-2.2999,-2.3096,-2.3378,-2.3952,-2.4863,-2.4716,-2.4708,-2.5091,-2.4916,-2.4632,-2.4473,-2.4375,-2.4304,-2.4152,-2.4152,-2.4035,-2.3692,-2.3313,-2.2619,0.0,0.0,-2.0508,0.0,0.0,0.0,0.0,0.0,0.0,0.0,-1.9082,-1.9634,-1.9984,-2.0632,-2.0893,-2.0925,-2.0925,-2.0925,-2.0925,-2.0925,-2.0925,-2.0925,-2.0925,-2.0925,-2.0925,-2.0925,-2.0925,-2.0925,-2.0925,-2.0925,-2.0925,-2.0925,-2.0925,-2.0925,-2.0925,-2.0925,-2.0925,-2.0925,-2.0719,-2.0506,-2.0475,-1.9537,-1.8484,-1.7544,-1.6958,-1.6588,0.0,0.0,0.0,0.0,0.0,-1.3933,-1.3181,0.0,0.0,0.0,-1.2451,0.0,0.0,0.0,0.0,0.0,0.0,0.0,-1.2337,0.0,-1.3538,-1.3586,-1.46,-1.5119,-1.5149,-1.565,-1.5903,-1.594,-1.6199,-1.6471,-1.6754,-1.7014,-1.7267,-1.7485,-1.7485,-1.7485,-1.7485,-1.7485,-1.7485,-1.7485,-1.7485,-1.7485,-1.7485,0.0,0.0,0.0,0.0,0.0,0.0,0.0,-2.4098,-2.4466,-2.4735,-2.4638,-2.4687,-2.5029,-2.5217,-2.5354,-2.5518,-2.5333,-2.5128,-2.5039,-2.4833,-2.4735,-2.4637,-2.444,-2.4341,-2.4242,-2.366,-2.3175,0.0,0.0,0.0,0.0,0.0,0.0,0.0,0.0,-1.8732,-1.9202,-1.9649,-1.9975,-2.0332,-2.068,-2.0925,-2.0925,-2.0925,-2.0925,-2.0925,-2.0925,-2.0925,-2.0925,-2.0925,-2.0925,-2.0925,-2.0925,-2.0925,-2.0925,-2.0925,-2.0925,-2.0925,-2.0925,-2.0925,-2.0925,-2.0925,-2.0925,-2.0822,-2.0719,-2.0617,-2.0411,-2.03,-1.9451,-1.8446,-1.7706,-1.7188,-1.6784,0.0,0.0,0.0,0.0,0.0,0.0,-1.3896,0.0,-1.3079,0.0,0.0,0.0,0.0,0.0,0.0,0.0,0.0,0.0,-1.2536,0.0,-1.3592,-1.3749,-1.4654,-1.5107,-1.5113,-1.5638,-1.5891,-1.5897,-1.6163,-1.6519,-1.6942,-1.7044,-1.7359,-1.7843,-1.7843,-1.7843,-1.8071,-1.8071,-1.7954,-1.7843,-1.7843,-1.7726,-1.7485,-2.3497,0.0,-2.3513,0.0,-2.4042,-2.4354,-2.4655,-2.5088,-2.548,-2.5782,-2.565,-2.5549,-2.5549,-2.573,-2.583,-2.583,-2.5528,-2.5333,-2.5342,-2.5137,-2.4932,-2.4932,-2.4735,0.0,-2.4637,-2.4054,-2.3666,-2.3372,-2.2784,0.0,0.0,0.0,0.0,0.0,-1.9384,-1.9548,-1.9748,-1.9998,-2.0356,-2.0668,-2.0915,-2.1019,-2.1121,-2.1121,-2.1121,-2.1121,-2.1019,-2.1019,-2.1027,-2.0925,-2.0925,-2.0925,-2.0925,-2.0925,-2.0925,-2.0925,-2.0925,-2.0925,-2.0925,-2.0925,-2.0925,-2.0925,-2.0822,-2.0719,-2.0522,-2.0418,-2.0174,-1.9758,-1.9082,-1.8393,-1.7874,-1.737,-1.6878,-1.6683,0.0,0.0,0.0,-1.4905,0.0,0.0,-1.3768,-1.332,-1.3248,-1.2988,0.0,0.0,0.0,0.0,0.0,0.0,0.0,0.0,0.0,0.0,0.0,-1.4702,-1.5107,-1.5113,-1.5638,-1.5891,-1.5897,-1.6271,-1.6716,-1.7089,-1.7169,-1.7473,-1.7965,-1.7965,-1.8119,-1.8421,-1.8421,-1.8311,-1.8083,-1.8089,-1.7849,-1.7602,-2.5614,-2.5533,-2.5442,-2.525,-2.5168,-2.5168,-2.5178,-2.5541,-2.5822,-2.5822,-2.6215,-2.6486,-2.6486,-2.6294,-2.61,-2.61,-2.582,-2.5538,-2.5333,-2.5333,-2.5137,0.0,0.0,-2.4932,-2.4932,-2.4627,-2.4235,-2.3565,0.0,0.0,-2.1778,0.0,-2.0749,-2.0273,-2.0281,-2.0271,-2.0384,-2.0392,-2.0692,-2.1318,-2.1318,-2.142,-2.1725,-2.1725,-2.1725,-2.1623,-2.142,-2.1326,-2.1224,-2.1027,-2.0925,-2.0925,-2.0925,-2.0925,-2.0925,-2.0925,-2.0925,-2.0925,-2.0925,-2.0925,-2.0925,-2.0925,-2.0719,-2.0522,-2.0522,-2.0101,-1.959,-1.8964,-1.8533,-1.8203,-1.7874,-1.737,-1.6878,-1.6683,0.0,0.0,0.0,0.0,0.0,-1.4322,-1.4092,-1.3797,-1.3538,0.0,0.0,0.0,0.0,0.0,0.0,0.0,0.0,-1.3103,-1.3375,0.0,-1.3906,-1.4702,-1.5107,-1.5113,-1.5638,-1.5891,-1.5897,-1.6488,-1.6842,-1.7091,-1.7363,-1.7635,-1.8014,-1.8014,-1.8173,-1.8421,-1.8421,-1.8421,-1.8305,-1.8083,-1.7972,-1.7966,-2.5896,-2.5805,-2.5805,-2.5704,-2.5961,-2.6177,-2.6177,-2.6557,-2.6855,-2.6855,-2.6979,-2.7071,-2.7071,-2.6688,-2.639,0.0,-2.611,-2.5907,0.0,-2.5625,-2.5538,-2.544,-2.5235,-2.5137,-2.5137,-2.4932,-2.4571,-2.4245,0.0,0.0,0.0,-2.1612,-2.1228,-2.0925,-2.118,-2.1252,-2.1249,-2.1249,-2.1415,-2.1522,-2.1522,-2.1623,-2.1725,-2.1725,-2.1725,-2.1725,-2.1623,-2.142,-2.1326,-2.1224,-2.1019,-2.0925,-2.0925,-2.0925,-2.0925,-2.0925,-2.0925,-2.0925,-2.0925,-2.0925,-2.0822,-2.0719,-2.0522,-2.0418,-1.999,-1.968,-1.9346,-1.914,-1.8862,-1.8533,-1.8211,-1.7696,-1.7127,-1.6718,-1.6407,0.0,0.0,0.0,-1.4956,-1.457,-1.4202,-1.3876,0.0,-1.3544,0.0,0.0,0.0,0.0,0.0,0.0,0.0,0.0,-1.3737,0.0,-1.4455,-1.489,-1.5197,-1.5378,-1.594,-1.6318,-1.6418,-1.6612,-1.687,-1.7066,-1.7155,-1.7572,-1.8052,-1.8052,-1.8333,-1.8715,-1.8715,-1.8718,-1.8648,-1.8421,-1.82,-1.7966,-2.6576,-2.6576,-2.6484,-2.6403,-2.6641,-2.6827,-2.6827,-2.7076,-2.7262,-2.7262,-2.7262,-2.7262,-2.7262,-2.6976,0.0,-2.6699,-2.64,-2.6294,-2.6294,-2.611,-2.6024,-2.6024,-2.582,-2.5723,-2.5616,-2.5323,0.0,-2.4833,-2.4332,-2.3601,-2.2472,-2.2292,-2.1894,-2.1595,-2.1719,-2.1827,-2.1725,-2.1725,-2.1725,-2.1818,-2.1818,-2.1928,-2.203,-2.203,-2.203,-2.203,-2.1928,-2.1725,-2.142,-2.1318,-2.1121,-2.0925,-2.0925,-2.0925,-2.0925,-2.0925,-2.0925,-2.0925,-2.0925,-2.0822,-2.0719,-2.0522,-2.0315,-2.0101,-1.968,-1.9376,-1.9279,-1.9279,-1.9016,-1.8686,-1.8364,-1.7848,-1.7241,-1.6732,-1.6407,-1.6028,-1.554,0.0,-1.4981,0.0,0.0,0.0,0.0,-1.3815,-1.3664,0.0,0.0,0.0,0.0,0.0,0.0,-1.3894,-1.4002,0.0,-1.4801,-1.5178,-1.5542,-1.5811,-1.6293,-1.6636,-1.6842,-1.6842,-1.7051,-1.7333,-1.7333,-1.7603,-1.798,-1.798,-1.8262,-1.8764,-1.8764,-1.8824,-1.884,-1.8487,-1.8332,-1.8083,-2.7726,-2.7631,-2.7536,0.0,-2.7357,0.0,-2.7357,-2.7357,-2.7357,-2.7357,-2.7357,-2.7357,-2.7357,-2.7357,-2.7262,-2.6996,0.0,0.0,0.0,-2.6496,-2.6496,-2.6496,-2.6496,-2.64,-2.6091,-2.5897,-2.5606,-2.5235,-2.4538,-2.3836,-2.3447,-2.3147,-2.2736,-2.2123,-2.2123,-2.203,-2.1725,-2.1725,-2.1928,-2.2131,-2.2131,-2.2333,-2.2644,-2.2644,-2.2644,-2.2544,-2.2232,-2.1928,-2.1623,-2.142,-2.1121,-2.0925,-2.0925,-2.0925,-2.0925,-2.0925,-2.0925,-2.0925,-2.0925,-2.0719,-2.0522,-2.0418,-2.0101,-1.9576,-1.9376,-1.9279,-1.9279,-1.9279,-1.903,-1.8716,-1.8364,-1.7771,-1.727,-1.6637,-1.6312,-1.6028,-1.5547,0.0,0.0,0.0,0.0,0.0,0.0,-1.4075,-1.393,0.0,0.0,0.0,0.0,0.0,-1.3713,-1.3954,-1.4195,-1.4655,-1.5146,-1.5661,-1.6031,-1.6355,-1.6609,-1.6955,-1.7179,-1.7179,-1.7384,-1.7582,-1.7582,-1.7749,-1.8016,-1.8016,-1.819,-1.8464,-1.8464,-1.8637,-1.8778,-1.8558,-1.8391,-1.8396,0.0,0.0,-2.7904,-2.7809,-2.7809,-2.7809,-2.7809,-2.7809,-2.7809,-2.7809,-2.7809,-2.7809,-2.7809,-2.7809,-2.7809,-2.7726,-2.7167,-2.6805,-2.6805,-2.6592,-2.6496,-2.6496,-2.6496,-2.6496,-2.64,-2.61,-2.5713,-2.503,-2.443,-2.3935,-2.3646,-2.3247,-2.2946,-2.2745,-2.2544,-2.2443,-2.2443,-2.2443,-2.2443,-2.2443,-2.2443,-2.2544,-2.2644,-2.2644,-2.2644,-2.2544,-2.2232,-2.1928,-2.1623,-2.142,-2.1121,-2.0925,-2.0925,-2.0925,-2.0925,-2.0925,-2.0925,-2.0822,-2.0617,-2.0522,-2.0418,-1.999,-1.9687,-1.9376,-1.9272,-1.9279,-1.9279,-1.9279,-1.9213,-1.8986,-1.8117,-1.7754,-1.7232,-1.6402,-1.5933,-1.5547,-1.5267,-1.4981,0.0,0.0,-1.4298,-1.4298,-1.4298,-1.4244,-1.4208,0.0,0.0,0.0,0.0,-1.4467,-1.4461,-1.4521,-1.4771,-1.5134,-1.5723,-1.6053,-1.6431,-1.697,-1.7035,-1.7272,-1.7483,-1.7483,-1.7582,-1.7582,-1.7582,-1.7622,-1.7695,-1.7695,-1.7876,-1.815,-1.815,-1.8337,-1.8617,-1.8486,-1.8268,-1.8135,-2.8196,-2.8196,-2.8092,-2.7998,-2.7998,-2.7998,-2.7998,-2.7998,-2.7998,-2.7998,-2.7998,-2.7998,-2.7998,-2.7998,-2.7998,-2.7998,-2.7631,-2.7357,-2.7272,-2.7071,-2.6976,-2.688,-2.688,-2.6784,-2.6699,-2.6496,-2.61,-2.5314,-2.4726,-2.4233,-2.3945,-2.3546,-2.3347,-2.3147,-2.3046,-2.2946,-2.2946,-2.2946,-2.2846,-2.2745,-2.2745,-2.2745,-2.2644,-2.2644,-2.2644,-2.2544,-2.2232,-2.1928,-2.1623,-2.142,-2.1121,-2.0925,-2.0925,-2.0925,-2.0925,-2.0719,-2.0719,-2.0719,-2.0522,-2.0308,-1.9998,-1.9583,-1.9376,-1.9279,-1.9279,-1.9279,-1.9279,-1.9279,-1.9058,-1.8702,-1.801,-1.7506,-1.696,-1.63,-1.5832,-1.5452,-1.5178,-1.4885,0.0,-1.4298,-1.4298,-1.4298,-1.4298,-1.4413,-1.4485,-1.4485,-1.46,0.0,-1.489,-1.4896,-1.4896,-1.5089,-1.5306,-1.5719,-1.6336,-1.6658,-1.701,-1.7378,-1.7378,-1.7483,-1.7582,-1.7582,-1.7582,-1.7582,-1.7582,-1.7582,-1.7582,-1.7582,-1.7682,-1.7836,-1.7836,-1.8023,-1.8303,-1.8229,-1.8229,-1.8135,-2.8488,-2.8488,-2.8384,-2.8186,-2.8081,-2.8081,-2.8081,-2.8081,-2.8081,-2.8081,-2.8081,-2.8081,-2.8081,-2.8081,-2.8081,-2.8081,-2.8081,-2.7998,-2.7726,-2.7631,-2.7536,-2.7347,-2.7357,-2.7262,-2.6996,-2.69,-2.6496,-2.5693,-2.5128,-2.4637,-2.4134,-2.3945,-2.3646,-2.3447,-2.3447,-2.3447,-2.3447,-2.3447,-2.3247,-2.3046,-2.3046,-2.2846,-2.2644,-2.2644,-2.2544,-2.2443,-2.2131,-2.1827,-2.1623,-2.1318,-2.1121,-2.0925,-2.0925,-2.0917,-2.0822,-2.0522,-2.0411,-2.0418,-2.0418,-1.9998,-1.9576,-1.9376,-1.9279,-1.9279,-1.9279,-1.9279,-1.9264,-1.9213,-1.8788,-1.8282,-1.7818,-1.7141,-1.658,-1.6177,-1.5743,-1.5356,-1.5178,0.0,-1.4592,-1.4298,-1.4298,-1.4316,-1.4358,-1.4576,-1.4733,-1.4775,-1.498,-1.5125,-1.5161,-1.5167,-1.5383,-1.5719,-1.5816,-1.6251,-1.6918,-1.7364,-1.7582,-1.7582,-1.7582,-1.7582,-1.7582,-1.7582,-1.7582,-1.7582,-1.7582,-1.7582,-1.7582,-1.7582,-1.7582,-1.7582,-1.7582,-1.7742,-1.7983,-1.8029,-1.813,-1.8214,-2.8757,-2.8757,-2.8757,-2.8653,-2.8664,-2.8664,-2.8664,-2.8664,-2.8664,-2.8664,-2.8664,-2.8664,-2.8664,-2.8664,-2.8664,-2.8664,-2.8664,-2.8466,-2.7998,-2.7904,-2.7809,-2.7536,-2.7536,-2.7452,-2.7262,-2.6784,-2.6294,-2.5693,-2.5128,-2.4735,-2.443,-2.4044,-2.3755,-2.3755,-2.3546,-2.3447,-2.3447,-2.3447,-2.3347,-2.3347,-2.3046,-2.2946,-2.2946,-2.2644,-2.2434,-2.2131,-2.1827,-2.1623,-2.1326,-2.1019,-2.0917,-2.0925,-2.0925,-2.0719,-2.0514,-2.0514,-2.0205,-1.9783,-1.9783,-1.9583,-1.9376,-1.9272,-1.9279,-1.9279,-1.9279,-1.9279,-1.9199,-1.8621,-1.8432,-1.8117,-1.7043,-1.6808,-1.6483,-1.5974,-1.5458,-1.5178,-1.5083,0.0,-1.4394,-1.4298,-1.4298,-1.4389,-1.463,-1.469,-1.4805,-1.5028,-1.5083,-1.5203,-1.5427,-1.5652,-1.5958,-1.6491,-1.6314,-1.6645,-1.7515,-1.7562,-1.7582,-1.7582,-1.7582,-1.7582,-1.7582,-1.7582,-1.7582,-1.7582,-1.7582,-1.7582,-1.7582,-1.7582,-1.7582,-1.7582,-1.7582,-1.7609,-1.7689,-1.7949,-1.7879,-1.7766,-2.8757,-2.8757,-2.8757,-2.8757,-2.885,-2.8943,-2.8943,-2.9117,-2.9209,-2.9209,-2.9209,-2.9209,-2.9209,-2.9209,-2.9117,-2.8943,-2.8943,-2.885,-2.8466,-2.829,-2.8102,-2.7809,-2.7726,-2.7536,-2.7262,-2.6784,-2.64,-2.6091,-2.5421,-2.4932,-2.4735,-2.4341,-2.4143,-2.4053,-2.3854,-2.3845,-2.3845,-2.3845,-2.3755,-2.3546,-2.3347,-2.3147,-2.2946,-2.2745,-2.2434,-2.2021,-2.1827,-2.1522,-2.1224,-2.1019,-2.0925,-2.0925,-2.0925,-2.0719,-2.0522,-2.03,-1.999,-1.968,-1.948,-1.9376,-1.9279,-1.9279,-1.9175,-1.9078,-1.9078,-1.883,-1.8561,-1.8214,-1.7816,-1.7301,-1.6828,-1.6443,-1.6088,-1.5852,-1.5547,0.0,0.0,-1.4879,-1.4496,-1.4496,-1.4528,-1.4576,-1.4702,-1.4974,-1.5191,-1.5312,-1.5451,-1.5578,-1.5704,-1.5927,-1.6299,-1.6723,-1.6924,-1.7232,-1.7582,-1.7582,-1.7582,-1.7582,-1.7582,-1.7582,-1.7582,-1.7582,-1.7582,-1.7582,-1.7582,-1.7582,-1.7582,-1.7582,-1.7582,-1.7582,-1.7582,-1.7582,-1.7602,-1.7742,-1.7795,-1.784,-2.8932,-2.8932,-2.8932,-2.8932,-2.9128,-2.922,-2.922,-2.9393,-2.9485,-2.9485,-2.9485,-2.9485,-2.9485,-2.9485,-2.9393,-2.922,-2.922,-2.9128,-2.885,-2.8675,-2.8384,-2.8092,-2.782,-2.7547,-2.7357,-2.688,-2.6592,-2.6496,-2.5713,-2.5226,-2.4932,-2.4637,-2.444,-2.4152,-2.4152,-2.4152,-2.4152,-2.4152,-2.4053,-2.3854,-2.3546,-2.3247,-2.3046,-2.2745,-2.2333,-2.203,-2.1725,-2.153,-2.1224,-2.0925,-2.0925,-2.0925,-2.0925,-2.0719,-2.0403,-2.0189,-1.9879,-1.9576,-1.9376,-1.9279,-1.9175,-1.9175,-1.8966,-1.8743,-1.8672,-1.8355,-1.7925,-1.7785,-1.7196,-1.6655,-1.649,-1.6081,-1.5832,-1.5832,0.0,0.0,0.0,-1.507,-1.479,-1.479,-1.4844,-1.4936,-1.4898,-1.533,-1.5627,-1.5584,-1.5777,-1.5891,-1.5998,-1.6211,-1.653,-1.6942,-1.7371,-1.7582,-1.7582,-1.7582,-1.7582,-1.7582,-1.7582,-1.7582,-1.7582,-1.7582,-1.7582,-1.7582,-1.7582,-1.7582,-1.7582,-1.7582,-1.7582,-1.7582,-1.7582,-1.7582,-1.7582,-1.7582,-1.7736,-1.7828,-2.9485,-2.9485,-2.9485,-2.9485,-2.9485,-2.9485,-2.9485,-2.9485,-2.9485,-2.9485,-2.9485,-2.9485,-2.9485,-2.9485,-2.9485,-2.9485,-2.9485,-2.9405,-2.9128,-2.9035,-2.885,-2.8395,-2.7925,-2.7631,-2.7536,-2.7081,-2.6709,-2.6496,-2.5897,-2.5411,-2.4932,-2.4637,-2.444,-2.4152,-2.4152,-2.4152,-2.4152,-2.4152,-2.4152,-2.4152,-2.3655,-2.3356,-2.3347,-2.2846,-2.2241,-2.1725,-2.1725,-2.1326,-2.0925,-2.0925,-2.0925,-2.0925,-2.0925,-2.0498,-2.0078,-2.0086,-1.9783,-1.9383,-1.9279,-1.9071,-1.8981,-1.8981,-1.8646,-1.8352,-1.8168,-1.7988,-1.7806,-1.6952,-1.671,-1.649,-1.6014,-1.5845,-1.5832,-1.5832,0.0,0.0,-1.554,-1.5267,-1.5083,-1.5083,-1.5331,-1.5394,-1.5444,-1.5741,-1.5922,-1.5843,-1.5879,-1.5998,-1.6217,-1.6524,-1.6942,-1.7477,-1.7582,-1.7582,-1.7582,-1.7582,-1.7582,-1.7582,-1.7582,-1.7582,-1.7582,-1.7582,-1.7582,-1.7582,-1.7582,-1.7582,-1.7582,-1.7582,-1.7582,-1.7582,-1.7582,-1.7582,-1.7582,-1.7582,-1.7595,-1.7615,-2.9485,-2.9485,-2.9485,-2.9485,-2.968,-2.9783,-2.9783,-2.9614,-2.9499,-2.9499,-2.9499,-2.9499,-2.9499,-2.9761,-2.9852,-2.9783,-2.9783,-2.96,-2.9128,-2.9128,-2.885,-2.8395,-2.8008,-2.7809,-2.7631,-2.7177,-2.6805,-2.6496,-2.61,-2.5713,-2.5137,-2.5039,-2.4833,-2.4646,-2.444,-2.4341,-2.4341,-2.4242,-2.4152,-2.4152,-2.3646,-2.3447,-2.3347,-2.2846,-2.2333,-2.1928,-2.1725,-2.142,-2.1121,-2.0917,-2.0925,-2.0925,-2.0925,-2.0506,-2.0078,-1.968,-1.9332,-1.8979,-1.8979,-1.9022,-1.9027,-1.8729,-1.8363,-1.8065,-1.7555,-1.7141,-1.6844,-1.6522,-1.6429,-1.6361,-1.6048,-1.6211,-1.6298,-1.6298,0.0,-1.5933,-1.5933,-1.5642,-1.5356,-1.5356,-1.5569,-1.5789,-1.5796,-1.611,-1.6417,-1.6411,-1.6418,-1.6343,-1.6279,-1.6426,-1.6638,-1.7041,-1.7434,-1.7721,-1.7799,-1.7806,-1.7905,-1.8108,-1.7905,-1.7806,-1.7799,-1.7687,-1.7582,-1.7582,-1.7582,-1.7582,-1.7582,-1.7582,-1.7582,-1.7582,-1.7582,-1.7582,-1.7582,-1.7582,-1.7582,-1.7582,-2.976,-2.976,-2.976,-2.976,-2.9863,-2.992,-2.9772,-2.9633,-2.9435,-2.9263,-2.924,-2.924,-2.924,-2.955,-2.9656,-2.9499,-2.9499,-2.9319,-2.8947,-2.8921,-2.8789,-2.8571,-2.8186,-2.7904,-2.7726,-2.7262,-2.689,-2.6602,-2.64,-2.5907,-2.5421,-2.5333,-2.5137,-2.4932,-2.4735,-2.4529,-2.4538,-2.4341,-2.4251,-2.4152,-2.3755,-2.3447,-2.3347,-2.2946,-2.2443,-2.2021,-2.1827,-2.1522,-2.1224,-2.1019,-2.0925,-2.0925,-2.0925,-2.0506,-1.996,-1.9457,-1.9067,-1.8767,-1.8664,-1.8803,-1.8921,-1.8405,-1.803,-1.7743,-1.7237,-1.6813,-1.6531,-1.6443,-1.6354,-1.6312,-1.6312,-1.6494,-1.6588,-1.6588,-1.6407,-1.6312,-1.6312,-1.6021,-1.5825,-1.5737,-1.598,-1.6114,-1.6004,-1.6439,-1.6746,-1.6723,-1.6654,-1.6482,-1.6311,-1.6416,-1.652,-1.6807,-1.7313,-1.7778,-1.8081,-1.8178,-1.822,-1.8422,-1.822,-1.8122,-1.8122,-1.7898,-1.7898,-1.7898,-1.7793,-1.7694,-1.7694,-1.7582,-1.7582,-1.7582,-1.7582,-1.7582,-1.7582,-1.7582,-1.7582,-1.7582,-3.0216,-3.0216,-3.0216,-3.0216,-3.0216,-3.0055,-2.9573,-2.9493,-2.9297,-2.8758,-2.8689,-2.8689,-2.8689,-2.87,-2.87,-2.87,-2.87,-2.8626,-2.8389,-2.8422,-2.8539,-2.8828,-2.8279,-2.7998,-2.7998,-2.7536,-2.7177,-2.69,-2.6602,-2.6197,-2.5693,-2.5421,-2.5137,-2.4932,-2.4932,-2.4735,-2.4538,-2.4529,-2.4341,-2.4152,-2.3954,-2.3646,-2.3347,-2.3147,-2.2644,-2.2021,-2.1827,-2.1522,-2.1224,-2.1019,-2.0925,-2.0925,-2.0925,-2.0498,-2.001,-1.9378,-1.8977,-1.8708,-1.8386,-1.8299,-1.82,-1.7917,-1.7711,-1.7421,-1.7106,-1.7036,-1.6945,-1.6644,-1.6588,-1.6588,-1.6588,-1.6588,-1.6588,-1.6588,-1.6588,-1.6588,-1.6588,-1.6588,-1.6494,-1.6218,-1.6491,-1.6596,-1.6293,-1.6579,-1.6756,-1.6711,-1.6475,-1.6298,-1.6332,-1.6506,-1.68,-1.7114,-1.7415,-1.7879,-1.8389,-1.8379,-1.8422,-1.8422,-1.8422,-1.8422,-1.8422,-1.8422,-1.8422,-1.8422,-1.8122,-1.8016,-1.8016,-1.7694,-1.7582,-1.7582,-1.7582,-1.7582,-1.7582,-1.7582,-1.7582,-1.7582,-3.0216,-3.0216,-3.0216,-3.0216,-2.994,-2.9665,-2.9515,-2.8896,-2.8379,-2.8218,-2.8195,-2.8195,-2.8195,-2.8494,-2.87,-2.87,-2.87,-2.8528,-2.8105,-2.7999,-2.8043,-2.8233,-2.8304,-2.8196,-2.7998,-2.7726,-2.7262,-2.69,-2.6805,-2.6602,-2.6294,-2.6004,-2.581,-2.5713,-2.5323,-2.5137,-2.5039,-2.4637,-2.444,-2.4341,-2.3945,-2.3746,-2.3646,-2.3147,-2.2846,-2.2644,-2.2131,-2.1928,-2.1827,-2.1318,-2.1224,-2.1121,-2.0719,-2.0342,-1.993,-1.9628,-1.9064,-1.8581,-1.829,-1.8097,-1.7779,-1.7628,-1.7483,-1.7301,-1.6791,-1.6721,-1.6693,-1.6602,-1.6777,-1.6878,-1.6878,-1.6965,-1.7052,-1.7052,-1.6965,-1.6878,-1.6878,-1.6683,-1.6581,-1.6494,-1.6766,-1.6876,-1.6893,-1.7082,-1.7275,-1.7345,-1.6916,-1.6513,-1.6321,-1.631,-1.6395,-1.6491,-1.7386,-1.786,-1.806,-1.8494,-1.8862,-1.9063,-1.8855,-1.8757,-1.8757,-1.8534,-1.8422,-1.8422,-1.8318,-1.822,-1.8016,-1.7911,-1.7799,-1.7582,-1.7582,-1.7582,-1.7582,-1.7582,-1.7483,-1.7279,-3.0397,-3.0306,-3.0216,-3.0216,-2.9814,-2.9424,-2.9217,-2.8505,-2.7908,-2.7713,-2.7679,-2.7679,-2.7679,-2.7943,-2.8115,-2.8115,-2.8115,-2.8026,-2.7715,-2.7576,-2.7623,-2.773,-2.7854,-2.7909,-2.7907,-2.7639,-2.7275,-2.6909,-2.6804,-2.6707,-2.6699,-2.64,-2.6294,-2.6197,-2.581,-2.5518,-2.5421,-2.503,-2.4726,-2.443,-2.4143,-2.3954,-2.3755,-2.3447,-2.3147,-2.2946,-2.2434,-2.2224,-2.2021,-2.1623,-2.1428,-2.1224,-2.0822,-2.0382,-1.9976,-1.9645,-1.9115,-1.8567,-1.8248,-1.7965,-1.7766,-1.7589,-1.7442,-1.7296,-1.6907,-1.6864,-1.6864,-1.6864,-1.6965,-1.716,-1.716,-1.7239,-1.7326,-1.7326,-1.7246,-1.716,-1.716,-1.6965,-1.6864,-1.6777,-1.6947,-1.6987,-1.7106,-1.7303,-1.7557,-1.7531,-1.7102,-1.6701,-1.6402,-1.6408,-1.6407,-1.6508,-1.7393,-1.7917,-1.8016,-1.8847,-1.9279,-1.9279,-1.9175,-1.9078,-1.9078,-1.8855,-1.8743,-1.8743,-1.8646,-1.8541,-1.8338,-1.8128,-1.7905,-1.7799,-1.7687,-1.7582,-1.7582,-1.7582,-1.7483,-1.7173,-3.0668,-3.0397,-3.0295,-3.0249,-2.9745,-2.9251,-2.8712,-2.823,-2.7748,-2.7288,-2.7231,-2.7231,-2.7231,-2.7231,-2.7231,-2.7231,-2.7231,-2.7178,-2.7211,-2.7234,-2.7275,-2.7228,-2.725,-2.7368,-2.7634,-2.7425,-2.7162,-2.6875,-2.6588,-2.6641,-2.6935,-2.6638,-2.6552,-2.6592,-2.6294,-2.5994,-2.5693,-2.5421,-2.503,-2.4538,-2.4529,-2.4242,-2.3854,-2.3854,-2.3546,-2.3046,-2.2636,-2.2426,-2.2131,-2.1827,-2.1522,-2.1318,-2.1019,-2.0561,-1.999,-1.9677,-1.9124,-1.8578,-1.8264,-1.8179,-1.8087,-1.7815,-1.7527,-1.7333,-1.7333,-1.7326,-1.7326,-1.7326,-1.7326,-1.7326,-1.7326,-1.7326,-1.7326,-1.7326,-1.7326,-1.7326,-1.7326,-1.7326,-1.7246,-1.7073,-1.7073,-1.7094,-1.7105,-1.7323,-1.7491,-1.7463,-1.7197,-1.6903,-1.6602,-1.6581,-1.6784,-1.6979,-1.7685,-1.8108,-1.8397,-1.9249,-1.9576,-1.9376,-1.9376,-1.9376,-1.9376,-1.9376,-1.9376,-1.9272,-1.9078,-1.8974,-1.8869,-1.8338,-1.8016,-1.8016,-1.7694,-1.7582,-1.7582,-1.7582,-1.7378,-1.7067,-3.0883,-3.0883,-3.0664,-3.0267,-2.9677,-2.8993,-2.8472,-2.7796,-2.7346,-2.7242,-2.7231,-2.7231,-2.7231,-2.7231,-2.7231,-2.7231,-2.7231,-2.7101,-2.6801,-2.6718,-2.6774,-2.6758,-2.678,-2.6748,-2.6846,-2.6961,-2.6965,-2.6674,-2.6584,-2.6827,-2.7199,-2.6703,-2.6711,-2.7071,-2.6592,-2.6294,-2.5994,-2.5703,-2.5411,-2.5137,-2.4637,-2.443,-2.4341,-2.3945,-2.3755,-2.3546,-2.3046,-2.2846,-2.2736,-2.2232,-2.1827,-2.1623,-2.1522,-2.0897,-2.0183,-2.0111,-1.9439,-1.8745,-1.8497,-1.8381,-1.8381,-1.8087,-1.7994,-1.78,-1.7419,-1.7326,-1.7326,-1.7326,-1.7326,-1.7326,-1.7326,-1.7326,-1.7326,-1.7326,-1.7326,-1.7326,-1.7326,-1.752,-1.7628,-1.7535,-1.7721,-1.7841,-1.7683,-1.752,-1.74,-1.7155,-1.7078,-1.6903,-1.6602,-1.6784,-1.6972,-1.7239,-1.8052,-1.8693,-1.8905,-1.9649,-1.9879,-1.9576,-1.9783,-1.9879,-1.9879,-1.9879,-1.9776,-1.9576,-1.9576,-1.9279,-1.8869,-1.8764,-1.8443,-1.8016,-1.7911,-1.7799,-1.7582,-1.7582,-1.7265,-1.6736,-3.1139,-3.0861,-3.0526,-3.0255,-2.9476,-2.8783,-2.8514,-2.7788,-2.7371,-2.7371,-2.7219,-2.7231,-2.7231,-2.7231,-2.7231,-2.7231,-2.7231,-2.7056,-2.6644,-2.6644,-2.6507,-2.6267,-2.6289,-2.6289,-2.6289,-2.6529,-2.6509,-2.6363,-2.6363,-2.6608,-2.6998,-2.6925,-2.6972,-2.7129,-2.6968,-2.6688,-2.6496,-2.6091,-2.5703,-2.5421,-2.503,-2.4735,-2.4412,-2.403,-2.3663,-2.3439,-2.2966,-2.2716,-2.2577,-2.207,-2.1887,-2.1827,-2.1725,-2.1139,-2.0475,-2.0378,-1.9668,-1.892,-1.8743,-1.8651,-1.8566,-1.8381,-1.828,-1.8187,-1.78,-1.7613,-1.7527,-1.7527,-1.7426,-1.7326,-1.7326,-1.7326,-1.7326,-1.7326,-1.7326,-1.7333,-1.7434,-1.7628,-1.7721,-1.7908,-1.7994,-1.8123,-1.817,-1.7927,-1.7734,-1.7719,-1.7574,-1.7414,-1.7347,-1.7434,-1.7527,-1.7707,-1.8446,-1.8996,-1.9102,-2.0062,-2.0395,-2.03,-2.0189,-2.0078,-2.0078,-2.0078,-1.9983,-1.9879,-1.9783,-1.9583,-1.9279,-1.8974,-1.8653,-1.822,-1.8016,-1.7799,-1.7582,-1.7582,-1.7265,-1.6624,-3.1276,-3.0743,-3.0237,-3.006,-2.9294,-2.8681,-2.8586,-2.7965,-2.7603,-2.7603,-2.7464,-2.7313,-2.7231,-2.7231,-2.7231,-2.7231,-2.7231,-2.7056,-2.6644,-2.6644,-2.6396,-2.6063,-2.599,-2.5979,-2.599,-2.6157,-2.6261,-2.6217,-2.6217,-2.6379,-2.6686,-2.6992,-2.7126,-2.6936,-2.7129,-2.7053,-2.6788,-2.637,-2.6091,-2.5693,-2.5518,-2.4992,-2.4389,-2.4063,-2.3597,-2.3015,-2.2595,-2.2398,-2.2186,-2.1872,-2.1894,-2.2047,-2.1912,-2.1337,-2.0765,-2.0475,-1.9857,-1.9188,-1.892,-1.8827,-1.8743,-1.8566,-1.8574,-1.8473,-1.8187,-1.7908,-1.7721,-1.7628,-1.7426,-1.7326,-1.7326,-1.7326,-1.7326,-1.7326,-1.7333,-1.7426,-1.7628,-1.7822,-1.7908,-1.8187,-1.8179,-1.838,-1.8665,-1.8442,-1.8295,-1.8578,-1.8341,-1.8179,-1.8179,-1.8179,-1.8272,-1.8272,-1.8881,-1.9236,-1.9396,-2.0411,-2.0963,-2.1019,-2.0601,-2.0388,-2.0292,-2.0292,-2.0189,-2.0189,-1.9887,-1.9783,-1.968,-1.9175,-1.8862,-1.8429,-1.8227,-1.7905,-1.7694,-1.7582,-1.716,-1.6624,-3.1072,-3.0841,-3.0505,-2.9594,-2.9141,-2.8809,-2.8345,-2.7997,-2.7881,-2.7881,-2.78,-2.7719,-2.7441,-2.7301,-2.7231,-2.7231,-2.7231,-2.7056,-2.6891,-2.6727,-2.6561,-2.6479,-2.6313,-2.624,-2.6479,-2.6561,-2.6429,-2.6162,-2.6412,-2.6646,-2.6865,-2.678,-2.6779,-2.7022,-2.6925,-2.6837,-2.6568,-2.6717,-2.6496,-2.5994,-2.579,-2.5102,-2.4305,-2.4047,-2.3527,-2.293,-2.2591,-2.2221,-2.1918,-2.216,-2.212,-2.2025,-2.234,-2.1833,-2.1046,-2.1046,-2.0132,-1.9188,-1.9188,-1.9012,-1.8827,-1.8735,-1.8658,-1.8481,-1.8481,-1.8102,-1.7628,-1.7426,-1.7326,-1.7326,-1.7326,-1.7326,-1.7326,-1.7326,-1.7527,-1.7628,-1.7721,-1.8102,-1.8388,-1.8481,-1.8558,-1.8843,-1.9068,-1.8851,-1.8759,-1.8798,-1.8759,-1.8735,-1.8735,-1.8735,-1.8827,-1.9004,-1.9397,-1.9861,-2.0467,-2.0974,-2.1328,-2.1623,-2.1522,-2.1318,-2.1113,-2.0917,-2.0719,-2.0411,-2.0411,-2.0101,-1.968,-1.9576,-1.9272,-1.8764,-1.8429,-1.822,-1.7911,-1.7384,-1.706,-1.6624,-3.0927,-3.0398,-2.9845,-2.9376,-2.897,-2.8614,-2.8375,-2.8191,-2.8111,-2.8111,-2.7962,-2.78,-2.7522,-2.7301,-2.7231,-2.7231,-2.7231,-2.7149,-2.6891,-2.6809,-2.6727,-2.6644,-2.6479,-2.6479,-2.6644,-2.6727,-2.6727,-2.6561,-2.6561,-2.6673,-2.6707,-2.6731,-2.6725,-2.6791,-2.6911,-2.6742,-2.6368,-2.6331,-2.6042,-2.5565,-2.5283,-2.4779,-2.4116,-2.3617,-2.3224,-2.2668,-2.2088,-2.1856,-2.1875,-2.1674,-2.1926,-2.2209,-2.2283,-2.1761,-2.123,-2.095,-2.0149,-1.9387,-1.9104,-1.892,-1.8735,-1.8651,-1.8574,-1.8388,-1.8102,-1.7916,-1.7628,-1.7527,-1.7426,-1.7326,-1.7326,-1.7426,-1.7527,-1.7527,-1.7714,-1.8001,-1.8102,-1.8388,-1.8566,-1.8835,-1.9112,-1.9296,-1.9387,-1.9304,-1.9296,-1.9379,-1.9379,-1.9471,-1.9654,-1.9654,-1.9646,-1.9828,-2.0104,-2.0473,-2.0735,-2.1097,-2.1357,-2.1509,-2.1419,-2.1329,-2.1522,-2.1224,-2.1019,-2.0909,-2.0413,-2.0022,-1.96,-1.9318,-1.8839,-1.8339,-1.8231,-1.7823,-1.7435,-1.7081,-1.6827,-1.6631]},{"header":{"parameterUnit":"m.s-1","parameterCategory":1,"la1":30.6,"la2":28.766,"lo1":-90.7593,"lo2":-88.6598,"dy":0.0162,"dx":0.0183,"nx":116,"ny":114,"refTime":"2023-08-04T12:00:00:Z","depth":0,"parameterNumber":3,"parameterNumberName":"V-component_of_WINDS"},"data":[0.0,0.0,0.0,0.0,0.0,0.0,0.0,0.0,0.0,0.0,0.0,0.0,0.0,0.0,0.0,0.0,0.0,0.0,0.0,0.0,0.0,0.0,0.0,0.0,0.0,0.0,0.0,0.0,0.0,0.0,0.0,0.0,0.0,0.0,0.0,0.0,0.0,0.0,0.0,0.0,0.0,0.0,0.0,0.0,0.0,0.0,0.0,0.0,0.0,0.0,0.0,0.0,0.0,0.0,0.0,0.0,0.0,0.0,0.0,0.0,0.0,0.0,0.0,0.0,0.0,0.0,0.0,0.0,0.0,0.0,0.0,0.0,0.0,0.0,0.0,0.0,0.0,0.0,0.0,0.0,0.0,0.0,0.0,0.0,0.0,0.0,0.0,0.0,0.0,0.0,0.0,0.0,0.0,0.0,0.0,0.0,0.0,0.0,0.0,0.0,0.0,0.0,0.0,0.0,0.0,0.0,0.0,0.0,0.0,0.0,0.0,0.0,0.0,0.0,0.0,0.0,0.0,0.0,0.0,0.0,0.0,0.0,0.0,0.0,0.0,0.0,0.0,0.0,0.0,0.0,0.0,0.0,0.0,0.0,0.0,0.0,0.0,0.0,0.0,0.0,0.0,0.0,0.0,0.0,0.0,0.0,0.0,0.0,0.0,0.0,0.0,0.0,0.0,0.0,0.0,0.0,0.0,0.0,0.0,0.0,0.0,0.0,0.0,0.0,0.0,0.0,0.0,0.0,0.0,0.0,0.0,0.0,0.0,0.0,0.0,0.0,0.0,0.0,0.0,0.0,0.0,0.0,0.0,0.0,0.0,0.0,0.0,0.0,0.0,0.0,0.0,0.0,0.0,0.0,0.0,0.0,0.0,0.0,0.0,0.0,0.0,0.0,0.0,0.0,0.0,0.0,0.0,0.0,0.0,0.0,0.0,0.0,0.0,0.0,0.0,0.0,0.0,0.0,0.0,0.0,0.0,0.0,0.0,0.0,0.0,0.0,0.0,0.0,0.0,0.0,0.0,0.0,0.0,0.0,0.0,0.0,0.0,0.0,0.0,0.0,0.0,0.0,0.0,0.0,0.0,0.0,0.0,0.0,0.0,0.0,0.0,0.0,0.0,0.0,0.0,0.0,0.0,0.0,0.0,0.0,0.0,0.0,0.0,0.0,0.0,0.0,0.0,0.0,0.0,0.0,0.0,0.0,0.0,0.0,0.0,0.0,0.0,0.0,0.0,0.0,0.0,0.0,0.0,0.0,0.0,0.0,0.0,0.0,0.0,0.0,0.0,0.0,0.0,0.0,0.0,0.0,0.0,0.0,0.0,0.0,0.0,0.0,0.0,0.0,0.0,0.0,0.0,0.0,0.0,0.0,0.0,0.0,0.0,0.0,0.0,0.0,0.0,0.0,0.0,0.0,0.0,0.0,0.0,0.0,0.0,0.0,0.0,0.0,0.0,0.0,0.0,0.0,0.0,0.0,0.0,0.0,0.0,0.0,0.0,0.0,0.0,0.0,0.0,0.0,0.0,0.0,0.0,0.0,0.0,0.0,0.0,0.0,0.0,0.0,0.0,0.0,0.0,0.0,0.0,0.0,0.0,0.0,0.0,0.0,0.0,0.0,0.0,0.0,0.0,0.0,0.0,0.0,0.0,0.0,0.0,0.0,0.0,0.0,0.0,0.0,0.0,0.0,0.0,0.0,0.0,0.0,0.0,0.0,0.0,0.0,0.0,0.0,0.0,0.0,0.0,0.0,0.0,0.0,0.0,0.0,0.0,0.0,0.0,0.0,0.0,0.0,0.0,0.0,0.0,0.0,0.0,0.0,0.0,0.0,0.0,0.0,0.0,0.0,0.0,0.0,0.0,0.0,0.0,0.0,0.0,0.0,0.0,0.0,0.0,0.0,0.0,0.0,0.0,0.0,0.0,0.0,0.0,0.0,0.0,0.0,0.0,0.0,0.0,0.0,0.0,0.0,0.0,0.0,0.0,0.0,0.0,0.0,0.0,0.0,0.0,0.0,0.0,0.0,0.0,0.0,0.0,0.0,0.0,0.0,0.0,0.0,0.0,0.0,0.0,0.0,0.0,0.0,0.0,0.0,0.0,0.0,0.0,0.0,0.0,0.0,0.0,0.0,0.0,0.0,0.0,0.0,0.0,0.0,0.0,0.0,0.0,0.0,0.0,0.0,0.0,0.0,0.0,0.0,0.0,0.0,0.0,0.0,0.0,0.0,0.0,0.0,0.0,0.0,0.0,0.0,0.0,0.0,0.0,0.0,0.0,0.0,0.0,0.0,0.0,0.0,0.0,0.0,0.0,0.0,0.0,0.0,0.0,0.0,0.0,0.0,0.0,0.0,0.0,0.0,0.0,0.0,0.0,0.0,0.0,0.0,0.0,0.0,0.0,0.0,0.0,0.0,0.0,0.0,0.0,0.0,0.0,0.0,0.0,0.0,0.0,0.0,0.0,0.0,0.0,0.0,0.0,0.0,0.0,0.0,0.0,0.0,0.0,0.0,0.0,0.0,0.0,0.0,0.0,0.0,0.0,0.0,0.0,0.0,0.0,0.0,0.0,0.0,0.0,0.0,0.0,0.0,0.0,0.0,0.0,0.0,0.0,0.0,0.0,0.0,0.0,0.0,0.0,0.0,0.0,0.0,0.0,0.0,0.0,0.0,0.0,0.0,0.0,0.0,0.0,0.0,0.0,0.0,0.0,0.0,0.0,0.0,0.0,0.0,0.0,0.0,0.0,0.0,0.0,0.0,0.0,0.0,0.0,0.0,0.0,0.0,0.0,0.0,0.0,0.0,0.0,0.0,0.0,0.0,0.0,0.0,0.0,0.0,0.0,0.0,0.0,0.0,0.0,0.0,0.0,0.0,0.0,0.0,0.0,0.0,0.0,0.0,0.0,0.0,0.0,0.0,0.0,0.0,0.0,0.0,0.0,0.0,0.0,0.0,0.0,0.0,0.0,0.0,0.0,0.0,0.0,0.0,0.0,0.0,0.0,0.0,0.0,0.0,0.0,0.0,0.0,0.0,0.0,0.0,0.0,0.0,0.0,0.0,0.0,0.0,0.0,0.0,0.0,0.0,0.0,0.0,0.0,0.0,0.0,0.0,0.0,0.0,0.0,0.0,0.0,0.0,0.0,0.0,0.0,0.0,0.0,0.0,0.0,0.0,0.0,0.0,0.0,0.0,0.0,0.0,0.0,0.0,0.0,0.0,0.0,0.0,0.0,0.0,0.0,0.0,0.0,0.0,0.0,0.0,0.0,0.0,0.0,0.0,0.0,0.0,0.0,0.0,0.0,0.0,0.0,0.0,0.0,0.0,0.0,0.0,0.0,0.0,0.0,0.0,0.0,0.0,0.0,0.0,0.0,0.0,0.0,0.0,0.0,0.0,0.0,0.0,0.0,0.0,0.0,0.0,0.0,0.0,0.0,0.0,0.0,0.0,0.0,0.0,0.0,0.0,0.0,0.0,0.0,0.0,0.0,0.0,0.0,0.0,0.0,0.0,0.0,0.0,0.0,0.0,0.0,0.0,0.0,0.0,0.0,0.0,0.0,0.0,0.0,0.0,0.0,0.0,0.0,0.0,0.0,0.0,0.0,0.0,0.0,0.0,0.0,0.0,0.0,0.0,0.0,0.0,0.0,0.0,0.0,0.0,0.0,0.0,0.0,0.0,0.0,0.0,0.0,0.0,0.0,0.0,0.0,0.0,0.0,0.0,0.0,0.0,0.0,0.0,0.0,0.0,0.0,0.0,0.0,0.0,0.0,0.0,0.0,0.0,0.0,0.0,0.0,0.0,0.0,0.0,0.0,0.0,0.0,0.0,0.0,0.0,0.0,0.0,0.0,0.0,0.0,0.0,0.0,0.0,0.0,0.0,0.0,0.0,0.0,0.0,0.0,0.0,0.0,0.0,0.0,0.0,0.0,0.0,0.0,0.0,0.0,0.0,0.0,0.0,0.0,0.0,0.0,0.0,0.0,0.0,0.0,0.0,0.0,0.0,0.0,0.0,0.0,0.0,0.0,0.0,0.0,0.0,0.0,0.0,0.0,0.0,0.0,0.0,0.0,0.0,0.0,0.0,0.0,0.0,0.0,0.0,0.0,0.0,0.0,0.0,0.0,0.0,0.0,0.0,0.0,0.0,0.0,0.0,0.0,0.0,0.0,0.0,0.0,0.0,0.0,0.0,0.0,0.0,0.0,0.0,0.0,0.0,0.0,0.0,0.0,0.0,0.0,0.0,0.0,0.0,0.0,0.0,0.0,0.0,0.0,0.0,0.0,0.0,0.0,0.0,0.0,0.0,0.0,0.0,0.0,0.0,0.0,0.0,0.0,0.0,0.0,0.0,0.0,0.0,0.0,0.0,0.0,0.0,0.0,0.0,0.0,0.0,0.0,0.0,0.0,0.0,0.0,0.0,0.0,0.0,0.0,0.0,0.0,0.0,0.0,0.0,0.0,0.0,0.0,0.0,0.0,0.0,0.0,0.0,0.0,0.0,0.0,0.0,0.0,0.0,0.0,0.0,0.0,0.0,0.0,0.0,0.0,0.0,0.0,0.0,0.0,0.0,0.0,0.0,0.0,0.0,0.0,0.0,0.0,0.0,0.0,0.0,0.0,0.0,0.0,0.0,0.0,0.0,0.0,0.0,0.0,0.0,0.0,0.0,0.0,0.0,0.0,0.0,0.0,0.0,0.0,0.0,0.0,0.0,0.0,0.0,0.0,0.0,0.0,0.0,0.0,0.0,0.0,0.0,0.0,0.0,0.0,0.0,0.0,0.0,0.0,0.0,0.0,0.0,0.0,0.0,0.0,0.0,0.0,0.0,0.0,0.0,0.0,0.0,0.0,0.0,0.0,0.0,0.0,0.0,0.0,0.0,0.0,0.0,0.0,0.0,0.0,0.0,0.0,0.0,0.0,0.0,0.0,0.0,0.0,0.0,0.0,0.0,0.0,0.0,0.0,0.0,0.0,0.0,0.0,0.0,0.0,0.0,0.0,0.0,0.0,0.0,0.0,0.0,0.0,0.0,0.0,0.0,0.0,0.0,0.0,0.0,0.0,0.0,0.0,0.0,0.0,0.0,0.0,0.0,0.0,0.0,0.0,0.0,0.0,0.0,0.0,0.0,0.0,0.0,0.0,0.0,0.0,0.0,0.0,0.0,0.0,0.0,0.0,0.0,0.0,0.0,0.0,0.0,0.0,0.0,0.0,0.0,0.0,0.0,0.0,0.0,0.0,0.0,0.0,0.0,0.0,0.0,0.0,0.0,0.0,0.0,0.0,0.0,0.0,0.0,0.0,0.0,0.0,0.0,0.0,0.0,0.0,0.0,0.0,0.0,0.0,0.0,0.0,0.0,0.0,0.0,0.0,0.0,0.0,0.0,0.0,0.0,0.0,0.0,0.0,0.0,0.0,0.0,0.0,0.0,0.0,0.0,0.0,0.0,0.0,0.0,0.0,0.0,0.0,0.0,0.0,0.0,0.0,0.0,0.0,0.0,0.0,0.0,0.0,0.0,0.0,0.0,0.0,0.0,0.0,0.0,0.0,0.0,0.0,0.0,0.0,0.0,0.0,0.0,0.0,0.0,0.0,0.0,0.0,0.0,0.0,0.0,0.0,0.0,0.0,0.0,0.0,0.0,0.0,0.0,0.0,0.0,0.0,0.0,0.0,0.0,0.0,0.0,0.0,0.0,0.0,0.0,0.0,0.0,0.0,0.0,0.0,0.0,0.0,0.0,0.0,0.0,0.0,0.0,0.0,0.0,0.0,0.0,0.0,0.0,0.0,0.0,0.0,0.0,0.0,0.0,0.0,0.0,0.0,0.0,0.0,0.0,0.0,0.0,0.0,0.0,0.0,0.0,0.0,0.0,0.0,0.0,0.0,0.0,0.0,0.0,0.0,0.0,0.0,0.0,0.0,0.0,0.0,0.0,0.0,0.0,0.0,0.0,0.0,0.0,0.0,0.0,0.0,0.0,0.0,0.0,0.0,0.0,0.0,0.0,0.0,0.0,0.0,0.0,0.0,0.0,0.0,0.0,0.0,0.0,0.0,0.0,0.0,0.0,0.0,0.0,0.0,0.0,0.0,0.0,0.0,0.0,-3.6912,0.0,0.0,0.0,0.0,0.0,0.0,0.0,0.0,0.0,0.0,0.0,0.0,0.0,0.0,0.0,0.0,0.0,0.0,0.0,0.0,0.0,0.0,0.0,0.0,0.0,0.0,0.0,0.0,0.0,0.0,0.0,0.0,0.0,0.0,0.0,0.0,0.0,0.0,0.0,0.0,0.0,0.0,0.0,0.0,0.0,0.0,0.0,0.0,0.0,0.0,0.0,0.0,0.0,0.0,0.0,0.0,0.0,0.0,0.0,0.0,0.0,0.0,0.0,0.0,0.0,0.0,0.0,0.0,0.0,0.0,0.0,0.0,0.0,0.0,0.0,0.0,0.0,0.0,0.0,0.0,0.0,0.0,0.0,0.0,0.0,0.0,0.0,0.0,0.0,0.0,0.0,0.0,0.0,0.0,0.0,0.0,0.0,0.0,0.0,0.0,0.0,0.0,0.0,0.0,0.0,0.0,0.0,0.0,0.0,0.0,0.0,0.0,0.0,0.0,0.0,0.0,-3.9612,0.0,0.0,0.0,0.0,0.0,0.0,0.0,0.0,0.0,0.0,0.0,0.0,0.0,0.0,0.0,0.0,0.0,0.0,0.0,0.0,0.0,0.0,0.0,0.0,0.0,0.0,0.0,0.0,0.0,0.0,0.0,0.0,0.0,0.0,0.0,0.0,0.0,0.0,0.0,0.0,0.0,0.0,0.0,0.0,0.0,0.0,0.0,0.0,0.0,0.0,0.0,0.0,0.0,0.0,0.0,0.0,0.0,0.0,0.0,0.0,0.0,0.0,0.0,0.0,0.0,0.0,0.0,0.0,0.0,0.0,0.0,0.0,0.0,0.0,0.0,0.0,0.0,0.0,0.0,0.0,0.0,0.0,0.0,0.0,0.0,0.0,0.0,0.0,0.0,0.0,0.0,0.0,0.0,0.0,0.0,0.0,0.0,0.0,0.0,0.0,0.0,0.0,0.0,0.0,0.0,0.0,0.0,0.0,-4.5908,-4.6825,-4.7646,-4.9186,-4.9964,-4.9926,-4.6374,-4.4405,-4.364,0.0,0.0,0.0,0.0,0.0,0.0,0.0,0.0,0.0,0.0,0.0,0.0,0.0,0.0,0.0,0.0,0.0,0.0,0.0,0.0,0.0,0.0,0.0,0.0,0.0,0.0,0.0,0.0,0.0,0.0,0.0,0.0,0.0,0.0,0.0,0.0,0.0,0.0,0.0,-3.3796,-3.528,-3.6196,-3.6481,-3.4237,0.0,0.0,0.0,0.0,0.0,0.0,0.0,0.0,0.0,0.0,0.0,0.0,0.0,0.0,0.0,0.0,0.0,0.0,0.0,0.0,0.0,0.0,0.0,0.0,0.0,0.0,0.0,0.0,0.0,0.0,0.0,0.0,0.0,0.0,0.0,0.0,0.0,0.0,0.0,0.0,0.0,0.0,0.0,-2.8586,-2.8797,0.0,0.0,0.0,0.0,0.0,0.0,0.0,0.0,0.0,0.0,0.0,0.0,0.0,-4.2832,-4.4609,-4.608,-4.736,-4.8449,-5.0015,-5.12,-5.2002,-5.2977,-5.3855,-5.4518,-5.3964,0.0,-4.8057,-4.7962,0.0,0.0,0.0,0.0,0.0,0.0,0.0,0.0,0.0,0.0,0.0,0.0,0.0,0.0,0.0,0.0,0.0,0.0,0.0,0.0,0.0,0.0,0.0,0.0,0.0,0.0,0.0,0.0,0.0,0.0,0.0,0.0,0.0,0.0,0.0,0.0,-3.42,-3.5739,-3.6896,-3.8053,-3.8976,-3.9674,-3.8516,-3.7374,-3.6309,-3.5429,0.0,0.0,0.0,0.0,0.0,0.0,0.0,0.0,0.0,0.0,0.0,0.0,0.0,0.0,0.0,0.0,0.0,0.0,0.0,0.0,0.0,0.0,0.0,0.0,0.0,0.0,0.0,0.0,0.0,0.0,0.0,0.0,0.0,0.0,0.0,0.0,0.0,0.0,0.0,-2.949,-3.081,-3.1751,-3.3023,-3.3988,0.0,0.0,0.0,0.0,0.0,0.0,0.0,0.0,0.0,-4.4475,-4.5698,-4.715,-4.8812,-5.0015,-5.1047,-5.1926,-5.3607,-5.4581,-5.4963,-5.5842,-5.6434,-5.6816,-5.6816,-5.5721,-5.3836,-5.2406,-5.1108,-4.994,0.0,0.0,0.0,0.0,-4.7036,-4.6645,0.0,0.0,0.0,0.0,0.0,0.0,0.0,0.0,0.0,0.0,0.0,0.0,0.0,0.0,0.0,-2.3455,0.0,0.0,0.0,0.0,0.0,0.0,0.0,0.0,0.0,0.0,0.0,0.0,-3.6621,-3.8088,-3.9388,-4.0611,-4.1489,-4.2088,-4.2482,-4.1396,-3.9258,-3.8334,-3.7589,0.0,0.0,0.0,0.0,0.0,0.0,0.0,0.0,0.0,0.0,0.0,0.0,0.0,0.0,0.0,0.0,0.0,0.0,0.0,0.0,0.0,0.0,0.0,0.0,0.0,0.0,0.0,0.0,0.0,0.0,0.0,0.0,0.0,0.0,0.0,0.0,0.0,0.0,-3.1987,-3.3461,-3.4908,-3.6776,-3.8009,0.0,0.0,0.0,0.0,0.0,0.0,-4.4036,-4.5468,-4.7131,-4.9022,-4.971,-5.0951,-5.2862,-5.3473,-5.4199,-5.5097,-5.6759,-5.7562,-5.76,-5.8689,-5.9185,-5.9185,-5.9185,-5.9185,-5.8975,-5.6205,-5.4537,-5.3627,-5.301,-5.2144,-5.1296,-5.1269,-5.1214,-5.1168,0.0,0.0,0.0,0.0,0.0,0.0,0.0,0.0,0.0,0.0,0.0,0.0,0.0,0.0,-2.4258,-2.5118,-2.5988,-2.6901,0.0,0.0,0.0,0.0,0.0,0.0,0.0,0.0,0.0,-3.667,-3.8271,-3.9509,-4.0383,-4.2723,-4.3838,-4.3918,-4.5412,-4.4258,-4.12,-4.0351,-3.9914,-3.973,0.0,0.0,0.0,0.0,0.0,0.0,0.0,0.0,0.0,0.0,0.0,0.0,0.0,0.0,0.0,0.0,0.0,0.0,0.0,0.0,0.0,0.0,0.0,0.0,0.0,0.0,0.0,0.0,0.0,0.0,0.0,0.0,0.0,0.0,0.0,0.0,0.0,0.0,0.0,-3.77,-4.0008,0.0,0.0,0.0,0.0,-4.5017,-4.5858,-4.6717,-4.7513,-4.8411,-5.0015,-5.2461,-5.2594,-5.3817,-5.632,-5.6377,-5.6836,-5.7734,-5.9396,-6.0198,-6.0255,-6.1898,-6.2662,-6.2662,-6.2662,-6.2662,-6.2395,-5.9071,-5.7179,-5.6396,-5.6215,-5.5607,-5.4818,-5.4695,-5.4655,-5.4655,0.0,0.0,0.0,0.0,0.0,0.0,0.0,0.0,0.0,0.0,0.0,0.0,0.0,-2.361,-2.4965,-2.7405,-2.7903,-2.8727,-3.0231,0.0,0.0,0.0,0.0,0.0,0.0,0.0,-3.728,-3.8327,-4.0477,-4.1935,-4.2742,-4.4172,-4.5101,-4.5639,-4.6182,-4.5778,-4.4615,-4.3666,-4.2968,-4.2358,-4.0732,-3.9301,0.0,0.0,0.0,0.0,0.0,0.0,0.0,0.0,0.0,0.0,0.0,0.0,0.0,0.0,0.0,0.0,0.0,0.0,0.0,0.0,0.0,0.0,0.0,0.0,0.0,0.0,0.0,0.0,0.0,0.0,0.0,0.0,0.0,0.0,0.0,0.0,0.0,-4.1104,-4.3528,0.0,-4.624,-4.7068,-4.7895,-4.8642,-4.9942,-5.0818,-5.1009,-5.2862,-5.4333,-5.5212,-5.5785,-5.6511,-5.7428,-5.8498,-5.9185,-5.9529,-6.1211,-6.2013,-6.2032,-6.2624,-6.2911,-6.2911,-6.2911,-6.2911,-6.2815,-6.1612,-6.059,-5.9731,-5.9634,-5.906,-5.8239,-5.8135,-5.8123,-5.8123,0.0,0.0,0.0,0.0,0.0,0.0,0.0,0.0,0.0,0.0,0.0,-2.1855,-2.4016,-2.502,-2.6522,-2.904,-2.9545,-3.0351,-3.1863,0.0,0.0,0.0,0.0,0.0,0.0,-3.759,-3.9072,-4.0402,-4.2289,-4.3633,-4.4451,-4.5584,-4.6382,-4.6921,-4.7181,-4.746,-4.7683,-4.7006,-4.5919,-4.4587,-4.3267,-4.1927,-4.0595,0.0,0.0,0.0,0.0,0.0,0.0,0.0,0.0,0.0,0.0,0.0,0.0,0.0,0.0,0.0,0.0,0.0,0.0,0.0,0.0,0.0,0.0,0.0,0.0,0.0,0.0,0.0,0.0,0.0,0.0,0.0,0.0,0.0,0.0,0.0,-4.2527,-4.4547,-4.6797,-4.8606,-4.9721,-5.0586,-5.1392,-5.213,-5.3468,-5.4207,-5.4085,-5.5957,-5.716,-5.7428,-5.8001,-5.8574,-5.9147,-6.0255,-6.0943,-6.1249,-6.2662,-6.335,-6.335,-6.3618,-6.3904,-6.4191,-6.4191,-6.4344,-6.4573,-6.4286,-6.3817,-6.3146,-6.2216,-6.1469,-6.0862,-6.0785,-6.0771,-6.0738,0.0,0.0,0.0,0.0,0.0,0.0,0.0,0.0,0.0,0.0,-2.1053,-2.3226,-2.487,-2.7206,-2.9064,-2.9958,-3.0837,-3.1719,-3.2672,-3.2103,0.0,0.0,0.0,0.0,-3.9173,-3.9258,-4.0458,-4.2835,-4.3652,-4.4506,-4.5398,-4.6977,-4.7701,-4.7776,-4.8574,-4.9373,-5.0098,-5.0135,-4.8797,-4.6587,-4.5751,-4.4941,-4.4053,0.0,0.0,0.0,0.0,0.0,0.0,0.0,0.0,0.0,0.0,0.0,0.0,0.0,0.0,0.0,0.0,0.0,0.0,0.0,0.0,0.0,0.0,0.0,0.0,0.0,0.0,0.0,0.0,0.0,0.0,0.0,0.0,0.0,-4.0712,-4.2871,-4.5393,-4.7894,-4.974,-5.1452,-5.3126,-5.4005,-5.4786,-5.5523,-5.6313,-5.676,-5.6664,-5.7504,-5.8345,-5.9166,-5.9185,-5.9969,-6.1631,-6.1669,-6.2108,-6.2949,-6.3809,-6.4229,-6.4248,-6.507,-6.591,-6.6713,-6.6732,-6.7171,-6.784,-6.7056,-6.6751,-6.6483,-6.389,-6.2788,-6.2655,-6.261,-6.253,-6.2466,0.0,0.0,0.0,0.0,0.0,0.0,0.0,0.0,0.0,0.0,-2.1655,-2.3322,-2.5551,-2.7459,-2.9181,-3.0724,-3.1626,-3.2509,-3.3526,0.0,0.0,0.0,0.0,0.0,-3.911,-4.0894,-4.2437,-4.367,-4.4525,-4.5658,-4.7051,-4.7497,-4.8017,-4.8612,-4.941,-4.993,-5.0209,-5.0803,-5.0655,-4.993,-4.8587,-4.6852,-4.5022,0.0,0.0,0.0,0.0,0.0,0.0,0.0,0.0,0.0,0.0,0.0,0.0,0.0,0.0,0.0,0.0,0.0,0.0,0.0,0.0,0.0,0.0,0.0,0.0,0.0,0.0,0.0,0.0,0.0,0.0,0.0,0.0,-4.3847,-4.3289,-4.5899,-4.8355,-4.9698,-5.1905,-5.3728,-5.4764,-5.5642,-5.6482,-5.7251,-5.8049,-5.8475,-5.8421,-5.9243,-6.0083,-6.0886,-6.0905,-6.144,-6.2529,-6.3159,-6.3599,-6.3847,-6.4668,-6.507,-6.5089,-6.5948,-6.6483,-6.6732,-6.7324,-6.7687,-6.7878,-6.7649,-6.7572,-6.7381,-6.5397,-6.454,-6.4476,-6.4358,-6.4256,-6.4225,0.0,0.0,0.0,0.0,0.0,0.0,0.0,0.0,0.0,0.0,-2.2128,-2.3683,-2.5817,-2.8124,-2.9944,-3.1028,-3.2211,-3.3177,-3.377,0.0,0.0,0.0,0.0,-3.9703,-4.0084,-4.1846,-4.3342,-4.4544,-4.5379,-4.6438,-4.7701,-4.8036,-4.8444,-4.8946,-4.9745,-5.032,-5.0766,-5.1565,-5.1899,-5.1825,-5.0966,-4.9139,-4.7005,-4.7049,-4.5541,-4.339,-4.3053,-4.1798,-4.0094,-3.8933,0.0,0.0,0.0,0.0,0.0,0.0,0.0,0.0,0.0,0.0,0.0,0.0,0.0,0.0,0.0,0.0,0.0,0.0,0.0,0.0,0.0,0.0,0.0,0.0,-4.6088,-4.7141,-4.7714,-4.9537,-5.1226,-5.2456,-5.4239,-5.5811,-5.698,-5.7857,-5.8668,-5.9484,-6.03,-6.0723,-6.0695,-6.1172,-6.165,-6.2128,-6.2147,-6.2567,-6.3446,-6.3942,-6.4363,-6.4707,-6.5184,-6.5394,-6.5433,-6.6311,-6.6885,0.0,-6.8069,-6.8642,-6.8929,-6.8515,-6.8349,0.0,0.0,0.0,0.0,0.0,-6.5208,-6.4907,0.0,0.0,0.0,0.0,0.0,0.0,0.0,0.0,0.0,0.0,0.0,-2.4022,-2.581,-2.8774,-3.0685,-3.084,-3.2447,-3.3615,0.0,0.0,0.0,-3.7802,-3.9372,-4.0621,-4.144,-4.2347,-4.3688,-4.5403,-4.6108,-4.6906,-4.7816,-4.8521,-4.8874,-4.8911,-4.9821,-5.0637,-5.1417,-5.2326,-5.2698,-5.2735,-5.2791,-5.1448,-4.9444,-4.9351,-4.8003,-4.5988,-4.5181,-4.4261,-4.3192,-4.1691,0.0,0.0,0.0,0.0,0.0,0.0,0.0,0.0,0.0,0.0,0.0,0.0,0.0,0.0,0.0,0.0,0.0,0.0,0.0,0.0,0.0,0.0,0.0,0.0,-4.9013,-5.0463,-5.2766,-5.3456,-5.4154,-5.5461,-5.6477,-5.7684,-5.9275,-6.0135,-6.0969,-6.1773,-6.25,-6.2911,-6.2911,0.0,0.0,0.0,0.0,-6.3465,-6.4325,-6.4325,-6.4688,-6.5394,-6.5394,-6.5394,-6.5433,-6.6407,-6.7228,-6.7935,-6.891,-6.975,-7.031,-6.9499,-6.9127,-6.9013,-6.8136,-6.7707,-6.7563,-6.6609,-6.5798,-6.5192,0.0,0.0,0.0,0.0,0.0,0.0,0.0,0.0,0.0,-2.0509,-2.1799,-2.3328,-2.5665,-2.7689,-2.9188,-2.9952,-3.161,-3.3543,0.0,0.0,-3.7071,-3.8615,-4.0203,-4.1145,-4.1342,-4.282,-4.4391,-4.6052,-4.62,-4.7013,-4.8438,-4.8604,-4.8678,-4.8733,-5.025,-5.0989,-5.1267,-5.2824,-5.3512,-5.3493,-5.3552,-5.2568,-5.0999,-5.0396,-4.9459,-4.8426,-4.7604,-4.5941,-4.4053,-4.3802,-4.2679,-4.117,-3.959,0.0,0.0,0.0,0.0,0.0,0.0,0.0,0.0,0.0,0.0,0.0,0.0,0.0,0.0,0.0,0.0,0.0,0.0,0.0,0.0,-4.9522,-5.1701,-5.355,-5.4734,-5.6652,-5.7531,-5.6524,-5.7722,-5.906,-6.01,-6.0914,-6.1755,-6.2615,-6.2815,-6.2911,-6.2911,-6.2911,-6.3216,-6.3923,-6.3942,-6.4344,-6.5165,-6.5165,-6.5242,-6.5394,0.0,0.0,-6.5452,-6.6961,-6.7744,-6.7973,-6.9456,-7.0186,-7.0286,-7.0084,-6.9883,-6.9676,-6.8174,-6.755,-6.7496,-6.7237,-6.7049,-6.6916,0.0,0.0,0.0,0.0,0.0,0.0,0.0,0.0,0.0,0.0,-2.1401,-2.2838,-2.4474,-2.6892,-2.8603,-2.9052,-3.1111,0.0,0.0,-3.5882,-3.6904,-3.8147,-4.0136,-4.1235,-4.1248,-4.2871,-4.4309,-4.5595,-4.6002,-4.6814,-4.7996,-4.8402,-4.8587,-4.8642,-4.9917,-5.0711,-5.1172,-5.2449,-5.3006,-5.3006,-5.3026,-5.2362,-5.1287,-5.1039,-5.0228,-4.9085,-4.8301,-4.6937,-4.5443,-4.5062,-4.3839,-4.2324,-4.1619,-4.0821,-3.9902,0.0,0.0,0.0,0.0,0.0,0.0,0.0,0.0,0.0,0.0,0.0,0.0,0.0,0.0,-4.5769,0.0,0.0,-5.0397,-5.2518,-5.3932,-5.5345,-5.7027,-5.8326,-5.8956,-5.8536,-5.9606,-6.0695,-6.1573,-6.2414,-6.3083,-6.3522,-6.3923,-6.4153,-6.4153,-6.4153,-6.4344,-6.4783,-6.4802,-6.4993,-6.5394,-6.5394,-6.5394,-6.5394,-6.5394,-6.5394,-6.5433,-6.6713,-6.7483,-6.7929,-6.9122,-6.987,-7.0255,-7.013,-7.0022,-6.9872,-6.9018,-6.843,-6.8051,-6.7996,-6.775,-6.739,0.0,0.0,0.0,0.0,0.0,0.0,0.0,0.0,0.0,0.0,-2.0898,-2.2309,-2.3282,-2.5947,-2.7885,0.0,0.0,0.0,0.0,-3.5339,-3.6604,-3.7411,-3.958,-4.0895,-4.1107,-4.254,-4.3839,-4.4936,-4.5582,-4.6393,-4.7369,-4.8034,-4.8403,-4.8587,-4.9436,-5.0193,-5.0875,-5.1669,-5.202,-5.202,-5.2059,-5.156,-5.0878,-5.1101,-5.0426,-4.921,-4.824,-4.7378,-4.652,-4.5749,-4.4479,-4.321,-4.3165,-4.2239,-4.1031,-4.0284,-3.9607,0.0,0.0,0.0,0.0,0.0,0.0,0.0,0.0,0.0,-4.422,-4.6824,-4.7957,-4.8972,-5.0718,-5.1754,-5.3072,-5.5269,-5.5919,-5.6816,-5.8795,-5.9368,-5.9883,-6.0743,-6.1277,-6.2013,-6.3045,-6.379,-6.4267,-6.439,-6.5001,-6.5364,-6.5383,-6.5383,-6.5383,-6.5383,-6.5383,-6.5383,-6.5383,-6.5383,-6.5383,-6.5383,-6.5364,-6.5364,-6.5402,-6.6261,-6.7089,-6.7831,-6.8803,-6.9554,-7.0114,-7.0022,-6.9948,-6.9891,-6.9891,-6.9456,-6.8849,-6.8849,-6.8432,-6.7883,0.0,0.0,0.0,0.0,0.0,0.0,0.0,0.0,0.0,0.0,0.0,0.0,0.0,0.0,0.0,0.0,0.0,0.0,-3.3524,-3.5148,-3.6389,-3.721,-3.8871,-4.0112,-4.0823,-4.1718,-4.2993,-4.4638,-4.4729,-4.5572,-4.7113,-4.7242,-4.7665,-4.8381,-4.9189,-4.963,-4.9795,-5.0704,-5.1074,-5.1074,-5.1209,-5.0767,-5.0046,-5.0084,-4.9973,-4.9639,-4.8173,-4.7061,-4.6242,-4.5624,-4.4829,-4.3935,-4.3229,-4.2978,-4.2754,-4.1873,0.0,-4.1769,-4.1674,-4.2319,-4.3019,-4.3114,-4.3758,-4.4781,0.0,0.0,-4.7675,-5.0298,-5.0983,-5.1604,-5.3359,-5.439,-5.5307,-5.6301,-5.7714,-5.8757,-5.8987,-6.0294,-6.1503,-6.2261,-6.1906,-6.2242,-6.3885,-6.4133,-6.4466,-6.5149,-6.5252,-6.5277,-6.5213,-6.5213,-6.5213,-6.5213,-6.5213,-6.5213,-6.5213,-6.5213,-6.5213,-6.5213,-6.5277,-6.5277,-6.5232,-6.6129,-6.6954,-6.7768,-6.9258,-6.989,-6.9929,-6.9929,-6.9891,-6.9891,-6.9891,-6.9835,-6.974,-6.974,-6.9702,-6.9607,0.0,0.0,0.0,0.0,0.0,0.0,0.0,0.0,0.0,0.0,0.0,0.0,0.0,0.0,0.0,0.0,0.0,0.0,-3.2092,-3.3715,-3.5173,-3.645,-3.8036,-3.9276,-4.0078,-4.0881,-4.19,-4.3104,-4.356,-4.4364,-4.5516,-4.5991,-4.6649,-4.7435,-4.7764,-4.844,-4.9413,-4.9764,-4.9911,-4.9911,-4.9991,-4.9221,-4.8102,-4.8102,-4.7809,-4.7407,-4.7443,-4.6662,0.0,0.0,-4.4665,-4.3968,-4.3676,-4.3338,-4.2996,-4.2726,-4.2366,0.0,-4.285,-4.3686,0.0,0.0,-4.6487,-4.7548,-4.9235,-4.9641,-5.0369,-5.2957,-5.3525,-5.4093,-5.5878,-5.6469,-5.703,0.0,-5.8596,-5.9197,-5.9587,-6.0662,-6.1728,-6.2516,-6.2807,-6.3409,-6.4679,-6.4794,-6.4915,-6.5226,-6.5245,-6.5213,-6.518,-6.518,-6.518,-6.518,-6.518,-6.518,-6.518,-6.518,-6.518,-6.518,-6.5213,-6.5213,-6.5199,-6.5588,-6.6398,-6.7661,-6.8732,-6.9455,-6.9891,-6.9891,-6.9891,-6.9891,-6.9891,-6.9891,-6.9891,-6.9891,-6.9891,-6.9891,0.0,0.0,0.0,0.0,0.0,0.0,0.0,0.0,0.0,0.0,0.0,0.0,0.0,0.0,0.0,0.0,0.0,0.0,0.0,-3.2402,-3.4058,-3.5223,-3.6825,-3.8154,-3.9192,-3.9774,-4.0609,-4.163,-4.2213,-4.2941,-4.3743,-4.4564,-4.5346,-4.613,-4.6291,-4.7037,-4.8111,-4.8111,-4.8111,-4.8111,-4.8111,-4.7438,-4.6439,-4.6439,-4.584,-4.5075,-4.6249,-4.5766,0.0,0.0,-4.3818,-4.3198,-4.3293,-4.3095,-4.2917,-4.3081,-4.3108,-4.3216,-4.4065,0.0,0.0,-4.7776,-4.8913,-5.0107,-5.1566,-5.2059,-5.2826,-5.4914,-5.5531,-5.6178,-5.7739,-5.8035,-5.832,-5.9159,-5.9312,-5.9492,-5.9992,-6.0829,-6.1558,-6.2129,-6.2965,-6.3745,-6.4372,-6.4881,-6.518,-6.5147,-6.5128,-6.5147,-6.5114,-6.5114,-6.5114,-6.5114,-6.5114,-6.5114,-6.5114,-6.5114,-6.5114,-6.5114,-6.5147,-6.5147,-6.5114,-6.5342,-6.6201,-6.7517,-6.828,-6.9096,-6.9891,-6.9891,-6.9891,-6.9891,-6.9891,-6.9891,-6.9891,-6.9929,-6.991,-6.991,0.0,0.0,0.0,0.0,0.0,0.0,0.0,0.0,0.0,0.0,0.0,0.0,0.0,0.0,0.0,0.0,0.0,0.0,0.0,-3.1655,-3.3429,-3.3465,-3.5023,-3.6616,-3.8225,-3.828,-3.9093,-4.0724,-4.0742,-4.123,-4.2084,-4.2832,-4.3614,-4.4376,-4.5062,-4.5367,-4.5421,-4.5421,-4.5421,-4.5421,-4.5421,-4.5482,-4.5542,-4.5542,-4.4617,-4.3397,-4.4417,0.0,0.0,0.0,-4.2155,-4.149,-4.1551,-4.2143,0.0,-4.2967,-4.4271,-4.5725,0.0,0.0,-4.9683,-4.9803,-5.1073,-5.2532,-5.3423,-5.4238,-5.5083,-5.6082,-5.688,-5.7726,-5.8709,-5.8862,-5.9128,-5.9946,-6.008,-6.0049,-5.9994,-6.0735,-6.1254,-6.1169,-6.1913,-6.2463,0.0,-6.413,-6.5147,-6.5008,-6.5008,-6.4974,-6.4907,-6.4907,-6.4907,-6.4907,-6.4907,-6.4907,-6.4907,-6.4907,-6.4907,-6.4907,-6.4974,-6.4974,-6.4926,-6.5722,-6.6556,-6.7447,-6.8243,-6.9096,-6.9891,-6.9891,-6.9891,-6.9891,-6.9891,-6.9891,-6.9891,-6.9966,-7.0003,-7.0003,0.0,0.0,0.0,0.0,0.0,0.0,0.0,0.0,0.0,0.0,0.0,0.0,0.0,0.0,0.0,0.0,0.0,0.0,0.0,-2.96,-3.093,-3.2524,-3.3587,-3.4622,-3.5706,-3.6179,-3.6955,-3.8054,-3.8054,-3.8722,-4.0077,-4.0348,-4.116,-4.2443,-4.2675,-4.3361,-4.4317,-4.4317,-4.4602,-4.5106,-4.5106,-4.4498,-4.3581,-4.3581,-4.2625,-4.1324,0.0,0.0,0.0,0.0,0.0,0.0,-4.1329,0.0,-4.2878,-4.3629,-4.4767,-4.5867,0.0,0.0,-5.0071,-5.1197,-5.239,-5.348,-5.4314,-5.4712,-5.5148,-5.605,-5.6429,-5.6895,-5.7821,-5.8429,-5.8905,-5.9171,-5.9684,-5.9994,-5.995,-6.0671,-6.115,-6.1098,-6.1875,0.0,0.0,0.0,0.0,-6.407,-6.4601,-6.4924,-6.4907,-6.4907,-6.4907,-6.4907,-6.4907,-6.4907,-6.4907,-6.4907,-6.4907,-6.4907,-6.4924,-6.4924,-6.4907,-6.5192,-6.576,-6.6575,-6.7447,-6.8262,-6.9077,-6.9645,-6.9891,-6.9891,-6.9891,-6.9891,-6.9929,-7.0077,-7.0149,-7.0149,0.0,0.0,0.0,0.0,0.0,0.0,0.0,0.0,0.0,0.0,0.0,0.0,0.0,0.0,0.0,0.0,0.0,0.0,0.0,0.0,-2.8933,-3.0767,-3.1578,-3.2487,-3.3586,-3.4042,-3.4641,-3.545,-3.5738,-3.6371,-3.7377,-3.7882,-3.869,-3.9675,-4.0193,-4.096,-4.1908,-4.2177,-4.2588,-4.3071,-4.3071,-4.2503,-4.1669,-4.1669,-4.0738,0.0,0.0,0.0,0.0,0.0,0.0,0.0,0.0,-4.1249,-4.2619,-4.4244,-4.5383,-4.6325,-4.7268,-4.9041,-5.0902,-5.2038,-5.3183,-5.4246,-5.4787,-5.5148,-5.5527,-5.6076,-5.6436,-5.6808,-5.7351,-5.7932,-5.8311,-5.8311,-5.8995,-5.9514,-5.9501,-6.0151,-6.0662,-6.0662,-6.1174,-6.1515,0.0,0.0,0.0,-6.3581,-6.4415,-6.4907,-6.4907,-6.4907,-6.4907,-6.4907,-6.4907,-6.4907,-6.4907,-6.4907,-6.4907,-6.4907,-6.4907,-6.4907,-6.4907,-6.4907,-6.5343,-6.6139,-6.6689,-6.7579,-6.8641,-6.919,-6.9607,-6.9891,-6.9891,-6.991,-6.9967,-7.0114,-7.0239,-7.0255,0.0,0.0,0.0,0.0,0.0,0.0,0.0,0.0,0.0,0.0,0.0,0.0,0.0,0.0,0.0,0.0,0.0,0.0,0.0,0.0,0.0,-2.8252,-2.9062,-3.0196,-3.1725,-3.1768,-3.2182,-3.2991,-3.3746,-3.411,-3.4085,-3.5488,-3.615,-3.6167,-3.7638,-3.8252,-3.8398,-3.9124,-3.9461,-3.9496,-3.9496,-3.9615,-3.9828,-3.9828,0.0,0.0,0.0,0.0,0.0,0.0,0.0,0.0,0.0,-4.0111,-4.2103,-4.471,-4.6177,-4.7091,-4.8029,-5.0158,-5.214,-5.2273,-5.3551,-5.4799,-5.489,-5.5508,-5.6057,-5.6057,-5.6645,-5.7137,0.0,0.0,-5.727,-5.727,-5.8028,-5.8635,-5.8691,-5.9355,-5.9847,0.0,0.0,0.0,0.0,0.0,0.0,-6.3486,0.0,-6.4907,-6.4907,-6.4907,-6.4907,-6.4907,-6.4907,-6.4907,-6.4907,-6.4907,-6.4907,-6.4907,-6.4907,-6.4907,-6.4907,-6.4907,-6.5324,-6.6044,-6.6082,-6.7011,-6.847,-6.8565,-6.9096,-6.9835,-6.9873,-6.9948,-7.0003,-7.0149,-7.0217,-7.0228,0.0,0.0,0.0,0.0,0.0,0.0,0.0,0.0,0.0,0.0,0.0,0.0,0.0,0.0,0.0,0.0,0.0,0.0,0.0,0.0,0.0,0.0,0.0,0.0,0.0,0.0,0.0,0.0,0.0,-3.108,-3.2186,-3.2563,-3.306,-3.3647,-3.4588,-3.5332,-3.5935,-3.6732,-3.7388,-3.7901,0.0,-3.7603,-3.7161,0.0,0.0,0.0,0.0,0.0,0.0,0.0,0.0,0.0,0.0,-4.1083,-4.2032,-4.4668,-4.6047,-4.6962,-4.7897,-5.0084,-5.2109,-5.214,-5.3447,-5.4723,-5.4736,-5.4477,-5.4205,-5.4205,-5.3894,-5.3669,0.0,0.0,0.0,-5.5546,-5.6777,0.0,-5.8597,-5.8862,0.0,0.0,0.0,-5.9885,-5.9885,-6.0833,0.0,0.0,-6.4073,-6.4907,-6.4907,-6.4907,-6.4907,-6.4907,-6.4907,-6.4907,-6.4907,-6.4907,-6.4907,-6.4907,-6.4907,-6.4907,-6.4907,-6.4907,-6.5021,-6.5248,-6.5836,-6.6348,-6.684,-6.8091,-6.8735,-6.9001,-6.9645,-6.9948,-7.0003,-7.0149,-6.9836,-6.9332,0.0,0.0,0.0,0.0,0.0,0.0,0.0,0.0,0.0,0.0,0.0,0.0,0.0,0.0,0.0,0.0,0.0,0.0,0.0,0.0,0.0,0.0,0.0,0.0,0.0,0.0,0.0,0.0,0.0,0.0,0.0,-2.9713,-3.0264,-3.1009,-3.1734,-3.2474,-3.3318,-3.4058,0.0,0.0,0.0,0.0,0.0,0.0,0.0,0.0,0.0,0.0,0.0,0.0,0.0,-3.8413,-4.0583,-4.1335,-4.2045,-4.5021,0.0,-4.6925,-4.8265,-4.999,-5.1456,-5.1513,-5.2542,-5.3566,-5.3597,-5.3232,-5.281,-5.2432,-5.2027,0.0,0.0,0.0,0.0,0.0,0.0,0.0,-5.6873,-5.7908,-5.8759,0.0,-5.9658,0.0,-5.9885,-6.0624,-6.1458,0.0,-6.36,-6.4509,-6.4888,-6.4907,-6.4907,-6.4907,-6.4907,-6.4907,-6.4907,-6.4907,-6.4907,-6.4907,-6.4907,-6.4907,-6.4907,-6.4907,-6.4907,-6.4926,0.0,-6.5779,-6.6177,-6.7106,-6.7976,-6.8753,-6.9227,-6.9699,-7.0147,-7.022,-6.9737,-6.9036,0.0,0.0,0.0,0.0,0.0,0.0,0.0,0.0,0.0,0.0,0.0,0.0,0.0,0.0,0.0,0.0,0.0,0.0,0.0,0.0,0.0,0.0,0.0,0.0,0.0,0.0,0.0,0.0,0.0,0.0,0.0,0.0,0.0,0.0,0.0,0.0,0.0,0.0,0.0,0.0,0.0,0.0,0.0,0.0,0.0,0.0,0.0,0.0,0.0,0.0,-3.6253,-3.7648,-4.0162,-4.1148,-4.2038,-4.5203,-4.6373,-4.6973,-4.8664,-4.9819,-5.0614,-5.0754,-5.1425,-5.204,-5.2001,-5.1937,-5.1617,-5.073,0.0,-5.0409,-5.0409,0.0,-5.0843,-5.1741,0.0,-5.4295,-5.4635,-5.6587,-5.8127,-5.8448,-5.9214,-5.9772,-5.9885,-6.053,-6.1288,-6.2159,-6.2993,-6.3884,-6.485,-6.4907,-6.4907,-6.4907,-6.4907,-6.4907,-6.4907,-6.4907,-6.4907,-6.4907,-6.4907,-6.4907,-6.4907,-6.4907,-6.4888,-6.4888,-6.4888,0.0,-6.5985,-6.6099,-6.7045,-6.8519,-6.8747,-6.9367,-7.0133,-7.0266,-6.978,-6.891,0.0,0.0,0.0,0.0,0.0,0.0,0.0,0.0,0.0,0.0,-1.7574,-1.7856,0.0,0.0,0.0,0.0,0.0,0.0,0.0,0.0,0.0,0.0,0.0,0.0,0.0,0.0,0.0,0.0,0.0,0.0,0.0,0.0,0.0,0.0,0.0,0.0,0.0,0.0,0.0,0.0,0.0,0.0,0.0,0.0,0.0,0.0,0.0,0.0,0.0,0.0,-3.5296,-3.7539,-3.9502,-4.0688,-4.1785,-4.3781,-4.543,-4.681,-4.7793,-4.922,-5.0445,-5.0581,-5.1232,-5.1678,-5.1099,-5.0496,0.0,0.0,0.0,-4.7825,-4.7825,-4.8438,0.0,-4.9994,0.0,0.0,0.0,0.0,-5.6134,0.0,0.0,0.0,0.0,0.0,0.0,0.0,0.0,-6.3296,-6.4832,-6.4907,-6.4907,-6.4907,-6.4907,-6.4907,-6.4907,-6.4907,-6.4907,-6.4907,-6.4907,-6.4907,-6.4907,-6.4907,-6.4924,-6.4974,-6.4974,0.0,-6.5413,-6.6064,-6.652,-6.6954,-6.8323,-6.9021,-6.9313,-7.0038,-6.9399,-6.8088,0.0,0.0,0.0,0.0,0.0,0.0,0.0,0.0,-1.6896,-1.7313,-1.7559,-1.7749,-1.7922,-1.8074,0.0,0.0,0.0,0.0,0.0,0.0,0.0,0.0,0.0,0.0,0.0,0.0,0.0,0.0,0.0,0.0,0.0,0.0,0.0,0.0,0.0,0.0,0.0,0.0,0.0,0.0,0.0,0.0,0.0,0.0,0.0,0.0,0.0,0.0,0.0,0.0,-3.4123,-3.5697,-3.8314,-3.9808,-4.1051,-4.3176,-4.4453,-4.5486,-4.6783,-4.776,-4.8455,-4.857,-4.8851,-4.907,-4.8809,0.0,0.0,0.0,0.0,-4.517,-4.517,0.0,0.0,0.0,0.0,0.0,0.0,0.0,0.0,0.0,0.0,0.0,0.0,0.0,0.0,0.0,0.0,-6.2936,-6.4168,-6.4661,-6.4907,-6.4907,-6.4907,-6.4907,-6.4907,-6.4907,-6.4907,-6.4907,-6.4907,-6.4924,-6.4958,-6.4958,-6.5027,-6.5095,-6.5095,0.0,-6.5218,-6.5618,-6.605,-6.6521,-6.734,-6.8264,-6.915,-6.957,-6.8921,-6.7853,0.0,0.0,0.0,0.0,0.0,0.0,0.0,-1.6759,-1.7306,-1.7306,-1.7465,-1.7681,-1.7878,-1.8009,-1.8159,0.0,0.0,0.0,0.0,0.0,0.0,0.0,0.0,0.0,0.0,0.0,0.0,0.0,0.0,0.0,0.0,0.0,0.0,0.0,0.0,0.0,0.0,0.0,0.0,0.0,0.0,0.0,0.0,0.0,0.0,0.0,0.0,0.0,0.0,0.0,-3.2762,-3.3651,-3.6443,-3.8418,-4.0042,-4.2036,-4.3102,-4.3952,-4.5533,-4.6118,-4.6331,-4.6607,-4.6564,-4.6396,-4.6356,-4.5664,0.0,0.0,-4.3436,-4.2986,-4.2986,0.0,0.0,0.0,0.0,0.0,0.0,0.0,0.0,0.0,0.0,0.0,0.0,0.0,0.0,0.0,0.0,0.0,-6.3846,-6.4528,-6.4907,-6.4907,-6.4907,-6.4907,-6.4907,-6.4907,-6.4907,-6.4907,-6.4888,-6.4958,-6.5008,-6.5042,-6.5095,-6.5213,-6.5213,0.0,0.0,-6.5245,-6.5639,-6.6275,-6.6466,-6.7394,-6.868,-6.882,-6.833,-6.7521,0.0,0.0,0.0,0.0,0.0,0.0,0.0,-1.7125,-1.7306,-1.7306,-1.7465,-1.7658,-1.7772,-1.7966,-1.8159,0.0,0.0,0.0,0.0,0.0,0.0,0.0,0.0,0.0,0.0,0.0,0.0,0.0,0.0,0.0,0.0,0.0,0.0,0.0,0.0,0.0,0.0,0.0,0.0,0.0,0.0,0.0,0.0,0.0,0.0,0.0,0.0,0.0,0.0,0.0,0.0,-3.2516,-3.3619,-3.6211,-3.8866,-3.9087,0.0,0.0,-4.386,-4.467,-4.5477,-4.6368,-4.6047,-4.5333,-4.4677,0.0,0.0,-4.2221,-4.2033,-4.205,-4.205,-4.2133,0.0,0.0,0.0,0.0,0.0,0.0,0.0,0.0,0.0,0.0,0.0,0.0,0.0,0.0,0.0,0.0,-6.4699,-6.4869,-6.4907,-6.4907,-6.4907,-6.4907,-6.4907,-6.4907,-6.4907,-6.4907,-6.4939,-6.4989,-6.4989,-6.5128,-6.5213,-6.5277,-6.5277,0.0,0.0,-6.5364,-6.5421,-6.5585,-6.6388,-6.6789,-6.7018,-6.7668,-6.7349,-6.6605,0.0,0.0,0.0,0.0,0.0,0.0,0.0,-1.7174,-1.7306,-1.7306,-1.7465,-1.7658,-1.7789,-1.7944,-1.8117,0.0,0.0,0.0,0.0,0.0,0.0,0.0,0.0,0.0,0.0,0.0,0.0,0.0,0.0,0.0,0.0,0.0,0.0,0.0,0.0,0.0,0.0,0.0,0.0,0.0,0.0,0.0,0.0,0.0,0.0,0.0,0.0,0.0,0.0,0.0,0.0,0.0,-3.1719,-3.3312,0.0,0.0,-3.9013,-4.0443,-4.1317,-4.2192,-4.2976,-4.3404,-4.3287,-4.2983,-4.2779,0.0,0.0,-4.04,-3.996,-3.9638,-3.9664,-4.0514,-4.1608,0.0,0.0,0.0,0.0,0.0,0.0,0.0,0.0,0.0,0.0,0.0,0.0,0.0,0.0,0.0,-6.4813,-6.4907,-6.4907,-6.4907,-6.4907,-6.4907,-6.4907,-6.4907,-6.4924,-6.4939,-6.4974,-6.5076,-6.5194,-6.5245,-6.5309,-6.5352,-6.5352,0.0,0.0,-6.5394,-6.5394,-6.5433,-6.5734,-6.6173,-6.6599,-6.6859,-6.6717,-6.6364,0.0,0.0,0.0,0.0,0.0,-1.6946,-1.7023,-1.7183,-1.7306,-1.7306,-1.7465,-1.7658,-1.7789,-1.7917,-1.8074,-1.827,0.0,0.0,0.0,0.0,0.0,0.0,0.0,0.0,0.0,0.0,0.0,0.0,0.0,0.0,0.0,0.0,0.0,0.0,0.0,0.0,0.0,0.0,0.0,0.0,0.0,0.0,0.0,0.0,0.0,0.0,0.0,0.0,0.0,0.0,0.0,0.0,0.0,0.0,0.0,0.0,-3.6845,-3.7778,-3.8946,-3.9743,-4.0302,-4.0633,-4.0552,-4.0396,0.0,0.0,0.0,-3.8592,-3.8133,-3.7804,-3.8122,-3.9158,-4.0326,0.0,0.0,0.0,0.0,0.0,0.0,0.0,0.0,0.0,0.0,0.0,0.0,0.0,0.0,0.0,0.0,-6.4907,-6.4907,-6.4907,-6.4907,-6.4907,-6.4907,-6.4907,-6.4924,-6.5008,-6.5042,-6.5161,-6.5309,-6.5321,-6.5352,-6.5394,-6.5394,0.0,0.0,-6.5394,-6.5413,-6.5383,-6.534,-6.5652,-6.6116,-6.6017,-6.5969,-6.592,0.0,0.0,0.0,0.0,0.0,0.0,0.0,-1.7207,-1.7306,-1.7306,-1.7465,-1.7658,-1.7789,-1.7917,-1.8074,-1.827,0.0,0.0,0.0,0.0,0.0,0.0,0.0,0.0,0.0,0.0,0.0,-1.8596,-1.8601,0.0,0.0,0.0,0.0,0.0,0.0,0.0,0.0,0.0,0.0,0.0,0.0,0.0,0.0,0.0,0.0,0.0,0.0,0.0,0.0,0.0,0.0,0.0,0.0,0.0,0.0,0.0,-3.4149,-3.5232,-3.7037,-3.7537,-3.7768,-3.8689,-3.8329,-3.7766,0.0,0.0,-3.6644,-3.6705,-3.6756,-3.7075,-3.7935,-3.8178,-3.879,-4.0534,-4.1511,0.0,0.0,0.0,0.0,0.0,0.0,0.0,0.0,0.0,0.0,0.0,0.0,0.0,0.0,-6.4907,-6.4907,-6.4907,-6.4907,-6.4907,-6.4907,-6.4907,-6.4924,-6.5008,-6.5128,-6.5245,-6.5309,-6.5383,-6.5394,0.0,0.0,0.0,0.0,-6.5394,-6.5352,-6.5309,-6.5309,-6.5245,-6.5199,-6.5061,-6.5008,-6.5008,0.0,0.0,0.0,0.0,0.0,0.0,0.0,-1.7207,-1.7306,-1.7306,-1.7465,-1.7658,-1.7789,-1.7917,-1.8074,-1.827,0.0,0.0,0.0,0.0,0.0,0.0,0.0,0.0,0.0,0.0,-1.8601,-1.8601,-1.8603,-1.8585,-1.8585,-1.8603,0.0,0.0,0.0,0.0,0.0,0.0,0.0,0.0,0.0,0.0,0.0,0.0,0.0,0.0,0.0,0.0,0.0,0.0,0.0,0.0,0.0,0.0,0.0,0.0,0.0,0.0,-3.3853,-3.4832,-3.5758,-3.6176,-3.6517,-3.6795,-3.6943,0.0,-3.5792,-3.5869,-3.5894,-3.6019,-3.6379,-3.738,-3.8534,-3.9783,-4.1116,0.0,0.0,0.0,0.0,0.0,0.0,0.0,0.0,0.0,0.0,0.0,0.0,0.0,0.0,-6.4907,-6.4907,-6.4907,-6.4907,-6.4907,-6.4907,-6.4907,-6.4977,-6.5147,-6.518,-6.5277,-6.5383,-6.5394,-6.5394,0.0,0.0,0.0,0.0,-6.5352,-6.534,-6.5277,-6.5161,-6.5076,-6.5042,-6.4958,-6.4924,-6.4924,0.0,0.0,0.0,0.0,0.0,0.0,0.0,-1.6392,-1.656,-1.6863,-1.705,-1.7339,-1.7755,-1.7939,-1.8117,-1.829,0.0,0.0,0.0,0.0,0.0,0.0,0.0,0.0,0.0,-1.8659,-1.8696,-1.8697,-1.8698,-1.8716,-1.8716,-1.8716,-1.8716,-1.8716,0.0,0.0,0.0,0.0,0.0,0.0,0.0,0.0,-2.0715,0.0,0.0,0.0,0.0,0.0,0.0,0.0,0.0,0.0,0.0,0.0,0.0,0.0,-2.9295,0.0,0.0,-3.262,-3.3469,-3.3625,-3.4037,0.0,0.0,0.0,-3.408,-3.4494,-3.4574,-3.4809,-3.5557,-3.6782,-3.8128,-3.9389,-4.0947,0.0,0.0,0.0,0.0,0.0,0.0,0.0,0.0,0.0,0.0,0.0,0.0,0.0,0.0,-6.4907,-6.4907,-6.4907,-6.4907,-6.4907,-6.4907,-6.4924,-6.5046,-6.518,-6.5213,-6.529,-6.5394,-6.5394,-6.5394,0.0,0.0,0.0,0.0,-6.5309,-6.5226,-6.5174,-6.5042,-6.4974,-6.4958,-6.4942,-6.4907,-6.4907,0.0,0.0,0.0,0.0,0.0,0.0,0.0,0.0,0.0,-1.602,-1.6309,-1.6735,-1.7552,-1.7812,-1.8004,-1.8133,0.0,0.0,0.0,0.0,0.0,0.0,0.0,0.0,0.0,-1.877,-1.8843,-1.8914,-1.8896,-1.8895,-1.8895,-1.8895,-1.8895,-1.8895,-1.8896,0.0,0.0,0.0,0.0,0.0,0.0,0.0,0.0,0.0,0.0,0.0,0.0,0.0,0.0,0.0,0.0,0.0,0.0,0.0,0.0,0.0,0.0,0.0,0.0,0.0,0.0,0.0,0.0,0.0,0.0,0.0,0.0,-3.2799,-3.3059,-3.3627,-3.5376,-3.6419,-3.7577,-3.9314,0.0,0.0,0.0,0.0,0.0,0.0,0.0,0.0,0.0,0.0,0.0,0.0,0.0,0.0,0.0,-6.4907,-6.4907,-6.4907,-6.4907,-6.4907,-6.4907,-6.4939,-6.5061,-6.518,-6.5245,-6.534,-6.5383,-6.5394,-6.5394,0.0,0.0,0.0,0.0,-6.5213,-6.5095,-6.5008,-6.4989,-6.4939,-6.4907,-6.4907,-6.4907,-6.4907,0.0,0.0,0.0,0.0,0.0,0.0,0.0,0.0,0.0,0.0,-1.5524,-1.5795,-1.6065,-1.6243,-1.6398,0.0,0.0,0.0,0.0,0.0,0.0,0.0,0.0,0.0,0.0,-1.886,-1.8878,-1.8896,-1.8895,-1.8895,-1.8895,-1.8895,-1.8895,-1.8895,-1.8895,-1.8896,0.0,0.0,0.0,0.0,0.0,0.0,0.0,0.0,0.0,0.0,-2.0696,-2.1562,0.0,0.0,0.0,0.0,0.0,0.0,0.0,0.0,-2.611,-2.6579,-2.7825,0.0,-3.014,-3.0268,-3.0768,0.0,0.0,0.0,0.0,0.0,0.0,0.0,0.0,0.0,0.0,0.0,0.0,0.0,0.0,0.0,0.0,0.0,0.0,0.0,0.0,0.0,0.0,0.0,0.0,0.0,0.0,-6.4907,-6.4907,-6.4907,-6.4907,-6.4907,-6.4907,-6.4942,-6.4958,-6.5042,-6.518,-6.5245,-6.5245,-6.5309,-6.5309,0.0,0.0,0.0,-6.5213,-6.5095,-6.5042,-6.4989,-6.4958,-6.4888,-6.4907,-6.4907,-6.4907,-6.4907,0.0,0.0,0.0,0.0,0.0,0.0,0.0,0.0,0.0,0.0,0.0,0.0,0.0,0.0,0.0,0.0,0.0,0.0,0.0,0.0,0.0,0.0,0.0,0.0,-1.8983,-1.8983,-1.9,-1.9034,-1.9034,-1.9034,-1.9034,-1.8999,-1.8999,-1.8999,-1.8999,-1.8999,0.0,0.0,0.0,0.0,-1.9034,0.0,0.0,0.0,0.0,0.0,-2.0102,-2.0806,0.0,-2.2357,-2.2878,-2.3325,0.0,0.0,0.0,0.0,-2.5188,-2.5708,-2.6567,-2.7743,-2.8851,-2.9332,-2.9801,-3.0229,0.0,0.0,0.0,0.0,0.0,0.0,0.0,0.0,0.0,0.0,0.0,0.0,0.0,0.0,0.0,0.0,0.0,0.0,0.0,0.0,0.0,0.0,0.0,0.0,0.0,-6.4907,-6.4907,-6.4907,-6.4907,-6.4907,-6.4907,-6.4924,-6.4974,-6.5008,-6.5147,-6.518,-6.518,-6.5245,-6.5245,0.0,0.0,0.0,-6.5095,-6.4993,-6.4939,-6.4958,-6.4888,-6.4907,-6.4907,-6.4907,-6.4907,-6.4907,0.0,0.0,0.0,0.0,0.0,0.0,0.0,0.0,0.0,0.0,0.0,0.0,0.0,0.0,0.0,0.0,0.0,0.0,0.0,0.0,0.0,0.0,0.0,-1.8856,-1.9104,-1.9139,-1.9153,-1.9202,-1.9219,-1.9219,-1.9202,-1.915,-1.9115,-1.9115,-1.9115,-1.9115,0.0,0.0,0.0,0.0,-1.9202,0.0,0.0,0.0,0.0,0.0,0.0,0.0,0.0,-2.1924,-2.2481,-2.2733,-2.3448,0.0,0.0,0.0,0.0,0.0,-2.5996,-2.6786,-2.7601,-2.8573,-2.8923,-2.9058,0.0,0.0,0.0,0.0,0.0,0.0,0.0,0.0,0.0,0.0,0.0,0.0,0.0,0.0,0.0,0.0,0.0,0.0,0.0,0.0,0.0,0.0,0.0,0.0,0.0,-6.4907,-6.4907,-6.4907,-6.4907,-6.4907,-6.4907,-6.4958,-6.4974,-6.4974,-6.5095,-6.5147,-6.5147,-6.5147,-6.5147,-6.5147,0.0,0.0,-6.4974,-6.4924,-6.4907,-6.4907,-6.4907,-6.4907,-6.4907,-6.4907,-6.4907,-6.4834,0.0,0.0,0.0,0.0,0.0,0.0,0.0,0.0,0.0,0.0,0.0,0.0,0.0,0.0,0.0,0.0,0.0,0.0,0.0,0.0,0.0,0.0,-1.7623,-1.8413,-1.9168,-1.9235,-1.9251,-1.9202,-1.9251,-1.9251,-1.9202,-1.9184,-1.9184,-1.9184,-1.9184,-1.9184,-1.9184,-1.9202,-1.9202,-1.9202,-1.9202,0.0,0.0,0.0,0.0,0.0,0.0,0.0,0.0,-2.1255,-2.201,-2.2653,-2.3448,0.0,0.0,0.0,0.0,0.0,-2.6023,-2.6603,-2.7105,-2.8585,-2.8994,-2.9228,-3.0176,0.0,0.0,0.0,0.0,0.0,0.0,0.0,0.0,0.0,0.0,0.0,0.0,0.0,0.0,0.0,0.0,0.0,0.0,0.0,0.0,0.0,0.0,0.0,-6.4813,-6.4907,-6.4907,-6.4907,-6.4907,-6.4907,-6.4907,-6.4907,-6.4942,-6.4942,-6.4974,-6.4993,-6.4942,-6.5008,-6.4993,-6.4942,0.0,-6.4942,-6.4888,-6.4888,-6.4907,-6.4907,-6.4907,-6.4907,-6.4907,-6.4907,-6.4853,-6.4612,0.0,0.0,0.0,0.0,0.0,0.0,0.0,0.0,0.0,0.0,0.0,0.0,0.0,0.0,0.0,0.0,0.0,0.0,0.0,0.0,0.0,-1.6696,-1.714,-1.7954,-1.9227,-1.9329,-1.9363,-1.936,-1.9801,-1.9987,-1.9955,-1.9923,-1.9652,-1.9184,-1.9235,-1.9251,-1.9251,-1.9264,-1.9246,-1.9246,0.0,0.0,0.0,0.0,0.0,0.0,0.0,0.0,0.0,0.0,-2.1369,-2.2147,-2.2944,0.0,0.0,0.0,0.0,0.0,-2.6093,-2.6599,-2.7179,-2.9326,-2.9865,-2.998,-3.0479,0.0,0.0,0.0,0.0,0.0,0.0,0.0,0.0,0.0,0.0,0.0,0.0,0.0,0.0,0.0,0.0,0.0,0.0,0.0,0.0,0.0,0.0,0.0,-6.4813,-6.4907,-6.4907,-6.4907,-6.4907,-6.4907,-6.4907,-6.4907,-6.4907,-6.4907,-6.4924,-6.4924,-6.4907,-6.4924,-6.4924,-6.4907,0.0,-6.4907,-6.4907,-6.4907,-6.4907,-6.4907,-6.4907,-6.4907,-6.485,-6.4325,-6.4064,-6.3897,0.0,0.0,0.0,0.0,0.0,0.0,0.0,0.0,0.0,0.0,0.0,0.0,0.0,0.0,0.0,0.0,0.0,0.0,0.0,0.0,-1.5044,-1.6734,-1.6885,-1.7665,-1.9286,-1.9387,-1.9435,-1.9501,-2.0077,-2.0323,-2.0326,-2.0262,-1.9849,-1.9232,-1.9282,-1.9314,-1.9314,-1.9308,-1.9338,-1.9338,0.0,0.0,0.0,0.0,0.0,0.0,0.0,0.0,0.0,0.0,0.0,0.0,0.0,0.0,0.0,-2.4056,-2.4133,-2.4577,-2.6217,-2.6702,-2.7355,-2.9983,0.0,-3.0764,-3.1365,0.0,0.0,0.0,0.0,0.0,0.0,0.0,0.0,0.0,0.0,0.0,0.0,0.0,0.0,0.0,0.0,0.0,0.0,0.0,0.0,0.0,0.0,0.0,-6.4832,-6.4907,-6.4907,-6.4907,-6.4907,-6.4907,-6.4907,-6.4907,-6.4907,-6.4907,-6.4907,-6.4907,-6.4907,-6.4907,-6.4907,-6.4907,-6.4907,-6.4907,-6.4907,-6.4907,-6.4907,-6.4888,-6.468,-6.4455,-6.4209,-6.3423,-6.3124,-6.2956,0.0,0.0,0.0,0.0,0.0,0.0,0.0,0.0,0.0,0.0,0.0,0.0,0.0,0.0,0.0,0.0,0.0,0.0,0.0,0.0,-1.5052,-1.6734,-1.6925,-1.7752,-1.9353,-1.946,-1.9508,-1.9501,-1.9563,-1.9553,-1.9482,-1.9415,-1.9344,-1.9289,-1.9289,-1.9323,-1.939,-1.939,-1.9438,-1.9501,-1.9501,0.0,0.0,0.0,0.0,0.0,0.0,0.0,0.0,0.0,0.0,0.0,0.0,0.0,-2.4192,-2.4192,-2.4247,-2.4672,-2.6413,-2.6878,-2.7511,-3.0144,-3.0679,0.0,-3.3665,-3.4364,0.0,0.0,0.0,0.0,0.0,0.0,0.0,0.0,0.0,0.0,0.0,0.0,0.0,0.0,0.0,0.0,0.0,0.0,0.0,0.0,0.0,0.0,-6.485,-6.4907,-6.4907,-6.4907,-6.4907,-6.4907,-6.4907,-6.4907,-6.4907,-6.4907,-6.4907,-6.4907,-6.4907,-6.4907,-6.4907,-6.4907,-6.4907,-6.4907,-6.4907,-6.4907,-6.4907,-6.4832,-6.4017,-6.3189,-6.2476,-6.2183,-6.209,-6.1977,0.0,0.0,0.0,0.0,0.0,0.0,0.0,0.0,0.0,0.0,0.0,0.0,0.0,0.0,0.0,0.0,0.0,0.0,0.0,0.0,-1.5052,-1.6734,-1.6938,-1.7765,-1.9431,-1.9541,-1.9569,-1.9573,-2.0026,-2.0221,-2.0142,-2.0076,-1.9785,-1.9305,-1.9338,-1.939,-1.939,-1.9453,-1.9468,-1.9501,-1.9501,-1.9501,0.0,0.0,0.0,0.0,0.0,0.0,0.0,0.0,-2.0733,-2.1872,-2.2185,-2.3215,-2.4321,-2.4321,-2.4764,-2.5485,-2.6637,-2.7717,-2.9005,-3.1084,0.0,0.0,0.0,0.0,0.0,0.0,0.0,0.0,0.0,0.0,0.0,0.0,0.0,0.0,0.0,0.0,0.0,0.0,0.0,0.0,0.0,0.0,0.0,0.0,0.0,0.0,0.0,-6.4907,-6.4853,-6.4798,-6.4798,-6.4762,-6.4708,-6.4708,-6.4708,-6.4708,-6.4836,-6.4907,-6.4907,-6.4907,-6.4907,-6.4907,-6.4907,-6.4907,-6.4869,-6.432,-6.4076,-6.393,-6.3024,-6.2425,-6.2051,-6.1431,-6.1168,-6.0999,0.0,0.0,0.0,0.0,0.0,0.0,0.0,0.0,0.0,0.0,0.0,0.0,0.0,0.0,0.0,0.0,0.0,0.0,0.0,-1.4229,-1.5052,-1.6734,-1.6938,-1.7779,-1.9464,-1.9573,-1.9602,-1.9602,-2.0082,-2.0299,-2.0249,-2.015,-1.984,-1.9323,-1.939,-1.9405,-1.9435,-1.9497,-1.9526,-1.9522,-1.9555,-1.9555,0.0,0.0,0.0,0.0,0.0,0.0,0.0,0.0,-2.0615,-2.1964,-2.1964,-2.3112,-2.4446,-2.4446,-2.5093,-2.5983,-2.6822,-2.8259,-2.9999,0.0,0.0,0.0,0.0,0.0,0.0,0.0,0.0,0.0,0.0,0.0,0.0,0.0,0.0,0.0,0.0,0.0,0.0,0.0,0.0,0.0,0.0,0.0,0.0,0.0,0.0,0.0,0.0,-6.48,-6.4781,-6.467,-6.467,-6.4652,-6.4596,-6.4596,-6.4464,-6.4219,-6.4367,-6.4554,-6.48,-6.48,-6.4649,-6.4422,-6.4422,-6.4251,-6.3984,-6.3362,-6.2929,-6.2629,-6.1936,-6.1486,-6.113,-6.0491,-6.0247,-6.0097,0.0,0.0,0.0,0.0,0.0,0.0,0.0,0.0,0.0,0.0,0.0,0.0,0.0,0.0,0.0,0.0,0.0,0.0,-1.41,-1.4216,-1.5052,-1.6716,-1.6907,-1.7779,-1.9446,-1.9555,-1.9602,-1.9602,-1.9526,-1.9501,-1.9501,-1.9353,-1.9338,-1.939,-1.939,-1.945,-1.9518,-1.9583,-1.9592,-1.9614,-1.9673,-1.9699,-1.9699,0.0,0.0,0.0,0.0,0.0,0.0,0.0,-2.0722,-2.2088,-2.2088,0.0,-2.4599,-2.4599,-2.5178,-2.6017,-2.6892,-2.8352,0.0,0.0,0.0,0.0,0.0,0.0,0.0,0.0,0.0,0.0,0.0,0.0,0.0,0.0,0.0,0.0,0.0,0.0,0.0,0.0,0.0,0.0,0.0,0.0,0.0,0.0,0.0,0.0,0.0,-6.4596,-6.4596,-6.4596,-6.4596,-6.4596,-6.4596,-6.4596,-6.4181,-6.3389,-6.3389,-6.3804,-6.4577,-6.4577,-6.4143,-6.3389,-6.3389,-6.2898,-6.2087,-6.2087,-6.1596,-6.088,-6.0734,-6.0189,-5.9493,-5.9346,-5.929,-5.929,0.0,0.0,0.0,0.0,0.0,0.0,0.0,0.0,0.0,0.0,0.0,0.0,0.0,0.0,0.0,0.0,0.0,0.0,-1.41,-1.4216,-1.4803,-1.5918,-1.6631,-1.7501,-1.8559,-1.9249,-1.9592,-1.9602,-1.9536,-1.9489,-1.9489,-1.9464,-1.9453,-1.9468,-1.9479,-1.9522,-1.9564,-1.9652,-1.9673,-1.9675,-1.9738,-1.977,-1.977,0.0,0.0,0.0,0.0,0.0,0.0,0.0,0.0,0.0,-2.2173,0.0,-2.4839,-2.5418,-2.6185,-2.7177,-2.8606,-3.0226,0.0,0.0,0.0,0.0,0.0,0.0,0.0,0.0,0.0,0.0,0.0,0.0,0.0,0.0,0.0,0.0,0.0,0.0,0.0,0.0,0.0,0.0,0.0,0.0,0.0,0.0,0.0,0.0,0.0,-6.4596,-6.4558,-6.4463,-6.4463,-6.416,-6.3537,-6.3518,-6.3105,-6.2259,-6.2259,-6.2485,-6.2842,-6.2842,-6.271,-6.2483,-6.2483,-6.2332,-6.2049,-6.1373,-6.0621,-5.9905,-5.9759,-5.9553,-5.9346,-5.929,-5.929,-5.929,0.0,0.0,0.0,0.0,0.0,0.0,0.0,0.0,0.0,0.0,0.0,0.0,0.0,0.0,0.0,0.0,0.0,0.0,0.0,0.0,-1.4719,-1.5611,-1.6496,-1.7551,-1.8726,-1.9327,-1.9647,-1.9638,-1.9564,-1.9518,-1.9504,-1.9826,-1.9978,-1.9993,-2.0333,-2.0526,-2.0583,-2.0316,-2.0232,-2.0227,-1.9938,-1.9868,-1.988,0.0,0.0,0.0,0.0,0.0,0.0,0.0,0.0,0.0,-2.2665,0.0,0.0,-2.5816,-2.6642,-2.7657,-2.9334,0.0,0.0,0.0,0.0,0.0,0.0,0.0,0.0,0.0,0.0,0.0,0.0,0.0,0.0,0.0,0.0,0.0,0.0,0.0,0.0,0.0,0.0,0.0,0.0,0.0,0.0,0.0,0.0,0.0,0.0,-6.4312,-6.4443,-6.4345,-6.4044,-6.365,-6.3101,-6.2763,-6.2163,-6.1318,-6.1318,-6.1225,-6.1016,-6.1675,-6.1807,-6.1487,-6.1148,-6.0979,-6.0941,-6.0378,-5.987,-5.9401,-5.9346,-5.929,-5.929,-5.929,-5.929,-5.929,0.0,0.0,0.0,0.0,0.0,0.0,0.0,0.0,0.0,0.0,0.0,0.0,0.0,0.0,0.0,0.0,0.0,0.0,0.0,0.0,-1.4769,-1.5545,-1.6497,-1.7825,-1.9559,-1.9668,-1.9699,-1.9699,-1.9638,-1.962,-1.9643,-2.0378,-2.0748,-2.0867,-2.1655,-2.2051,-2.2069,-2.1408,-2.1167,-2.1154,-2.0354,-2.0066,-2.0118,-2.0031,0.0,0.0,0.0,0.0,0.0,0.0,0.0,0.0,-2.3402,-2.4162,-2.5012,-2.5955,-2.6748,-2.7711,0.0,0.0,0.0,0.0,0.0,0.0,0.0,0.0,0.0,0.0,0.0,0.0,0.0,0.0,0.0,0.0,0.0,0.0,0.0,0.0,0.0,0.0,0.0,0.0,0.0,0.0,0.0,0.0,0.0,0.0,0.0,-6.3665,-6.4059,-6.4059,-6.3364,-6.2951,-6.2876,-6.2088,-6.128,-6.0492,-6.0492,-6.0079,-5.9347,-6.0867,-6.1168,-6.0454,-5.9647,-5.929,-5.929,-5.929,-5.9309,-5.9309,-5.9272,-5.9253,-5.9309,-5.9309,-5.929,-5.929,0.0,0.0,0.0,0.0,0.0,0.0,0.0,0.0,0.0,0.0,0.0,0.0,0.0,0.0,0.0,0.0,0.0,0.0,0.0,0.0,-1.4514,-1.4747,-1.6291,-1.7949,-1.965,-1.9738,-1.977,-1.9782,-1.9718,-1.9996,-2.0597,-2.0784,-2.1194,-2.182,-2.2036,-2.2187,-2.2248,-2.2148,-2.2143,-2.2123,-2.1328,-2.1007,-2.0961,-2.0257,-2.001,0.0,0.0,0.0,0.0,0.0,0.0,0.0,-2.3714,-2.4347,-2.5316,-2.6769,-2.7304,-2.8101,0.0,0.0,0.0,0.0,0.0,0.0,0.0,0.0,0.0,0.0,0.0,0.0,0.0,0.0,0.0,0.0,0.0,0.0,0.0,0.0,0.0,0.0,0.0,0.0,0.0,0.0,0.0,0.0,0.0,0.0,-6.205,-6.2238,-6.2332,-6.2332,-6.2163,-6.1787,-6.1149,-6.0961,-6.0435,0.0,-5.9591,-5.9478,-5.9309,-5.9666,-5.9741,-5.9572,-5.9384,-5.929,-5.9309,-5.9234,-5.9215,-5.9215,-5.912,-5.912,-5.9215,-5.9215,-5.9234,-5.929,0.0,0.0,0.0,0.0,0.0,0.0,0.0,0.0,0.0,0.0,0.0,0.0,0.0,0.0,0.0,0.0,0.0,0.0,0.0,0.0,0.0,-1.5793,-1.6779,-1.8084,-1.9762,-1.9858,-1.9889,-1.9892,-2.0238,-2.0603,0.0,-2.1732,-2.2331,-2.2746,-2.3199,-2.3427,-2.3484,-2.3164,-2.3069,-2.3103,-2.2261,-2.1949,-2.1913,-2.1463,-2.1281,-2.1281,-2.1251,0.0,0.0,0.0,0.0,0.0,0.0,0.0,-2.5907,-2.7186,-2.7818,-2.8772,0.0,0.0,0.0,0.0,0.0,0.0,0.0,0.0,0.0,0.0,0.0,0.0,0.0,0.0,0.0,0.0,0.0,0.0,0.0,0.0,0.0,0.0,0.0,0.0,0.0,0.0,0.0,0.0,0.0,-6.0792,-6.1205,-6.1581,-6.1787,-6.1787,-6.143,-6.1017,-6.0604,-6.0191,-5.976,-5.929,-5.929,-5.9272,-5.9234,-5.9309,-5.9272,-5.9234,-5.9234,-5.9234,-5.914,-5.912,-5.9081,-5.91,-5.9042,-5.9042,-5.9081,-5.9196,-5.9215,-5.9253,0.0,0.0,0.0,0.0,0.0,0.0,0.0,0.0,0.0,0.0,0.0,0.0,0.0,0.0,0.0,0.0,0.0,0.0,0.0,0.0,0.0,-1.7246,-1.7375,-1.8211,-1.9899,-1.999,-2.0019,-2.0026,-2.0988,0.0,0.0,0.0,0.0,-2.3671,-2.4422,-2.4783,-2.4804,-2.42,-2.4017,-2.4052,-2.3184,-2.2871,-2.2911,-2.2747,-2.2699,-2.2699,-2.2628,-2.2702,-2.2939,-2.3591,0.0,0.0,0.0,0.0,-2.6713,-2.7556,-2.8303,-2.9357,0.0,0.0,0.0,0.0,0.0,0.0,0.0,0.0,0.0,0.0,0.0,0.0,0.0,0.0,0.0,0.0,0.0,0.0,0.0,0.0,0.0,0.0,0.0,0.0,0.0,0.0,0.0,0.0,0.0,-6.0379,-6.0379,-6.1017,-6.1374,-6.1374,-6.0717,-6.0379,-6.0379,-5.9666,-5.929,-5.929,-5.9309,-5.9234,-5.9177,-5.9234,-5.9234,-5.9196,-5.9196,-5.9081,-5.8984,-5.9003,-5.9003,-5.8964,-5.8964,-5.8964,-5.9003,-5.9119,-5.9157,-5.9234,0.0,0.0,0.0,0.0,0.0,0.0,0.0,0.0,0.0,0.0,0.0,0.0,0.0,0.0,0.0,0.0,0.0,0.0,-1.4464,0.0,0.0,-1.7302,-1.7444,-1.8298,-2.005,-2.0079,-2.0088,-2.0088,0.0,0.0,0.0,0.0,0.0,-2.4628,0.0,-2.4964,-2.4977,-2.4993,-2.5008,-2.4962,-2.4136,-2.3812,-2.3745,-2.2987,-2.2699,-2.2699,-2.263,-2.3095,-2.374,-2.3854,-2.4846,0.0,0.0,0.0,-2.7675,-2.8488,-2.8798,0.0,0.0,0.0,0.0,0.0,0.0,0.0,0.0,0.0,0.0,0.0,0.0,0.0,0.0,0.0,0.0,0.0,0.0,0.0,0.0,0.0,0.0,0.0,0.0,0.0,0.0,0.0,0.0,0.0,-5.9403,-5.9478,-5.9478,-5.9572,-5.9628,-5.9628,-5.9534,-5.9478,-5.9478,-5.9365,-5.929,-5.929,-5.9253,-5.9139,-5.9042,-5.9042,-5.9042,-5.9042,-5.9042,-5.9042,-5.9003,-5.8921,-5.8899,-5.8899,-5.8799,-5.8799,-5.8899,-5.894,-5.904,-5.9196,0.0,0.0,0.0,0.0,0.0,0.0,0.0,0.0,0.0,0.0,0.0,0.0,0.0,0.0,0.0,-1.4203,-1.4331,-1.4481,-1.4666,-1.5236,-1.6166,-1.7461,-1.8009,-1.8873,-2.0122,-2.0184,-2.0219,-2.0205,0.0,0.0,0.0,-2.445,-2.5374,0.0,0.0,0.0,0.0,0.0,0.0,-2.6615,-2.6269,-2.6126,-2.6096,-2.571,-2.5524,-2.5482,-2.5435,-2.564,-2.5971,-2.5965,-2.646,-2.7069,-2.7077,0.0,0.0,0.0,0.0,0.0,0.0,0.0,0.0,0.0,0.0,0.0,0.0,0.0,0.0,0.0,0.0,0.0,0.0,0.0,0.0,0.0,0.0,0.0,0.0,0.0,0.0,0.0,0.0,0.0,0.0,0.0,0.0,0.0,-5.914,-5.914,-5.914,-5.914,-5.914,-5.914,-5.914,-5.914,-5.914,-5.914,-5.914,-5.914,-5.912,-5.9022,-5.8942,-5.8942,-5.8942,-5.8942,-5.8942,-5.8902,-5.8821,-5.8799,-5.8799,-5.8758,-5.8716,-5.8758,-5.8818,-5.8859,-5.894,-5.9059,0.0,0.0,0.0,0.0,0.0,0.0,0.0,0.0,0.0,0.0,0.0,0.0,0.0,0.0,0.0,0.0,-1.4453,-1.4706,-1.5132,-1.5827,-1.673,-1.7871,-1.8562,-1.9331,-2.0223,-2.0306,-2.0332,0.0,0.0,0.0,-2.2777,-2.5119,-2.6366,0.0,-2.6643,0.0,0.0,0.0,0.0,0.0,-2.7808,-2.7923,-2.8123,-2.8107,-2.8204,-2.8326,-2.8267,-2.8212,-2.8184,-2.8175,-2.8331,-2.8479,-2.8241,-2.8803,0.0,0.0,0.0,0.0,0.0,0.0,0.0,0.0,0.0,0.0,0.0,0.0,0.0,0.0,0.0,0.0,0.0,0.0,0.0,0.0,0.0,0.0,0.0,0.0,0.0,0.0,0.0,0.0,0.0,0.0,0.0,0.0,-5.8984,-5.8984,-5.8984,-5.8984,-5.8984,-5.8984,-5.8984,-5.8984,-5.8984,-5.8984,-5.9003,-5.8964,-5.8964,-5.8942,-5.8859,-5.8859,-5.8859,-5.8859,-5.8859,-5.8799,-5.8716,-5.8716,-5.8716,-5.8716,-5.8716,-5.8716,-5.8716,-5.8799,-5.8859,-5.8899,0.0,0.0,0.0,0.0,0.0,0.0,0.0,0.0,0.0,0.0,0.0,0.0,-1.4172,-1.4255,-1.4313,-1.4392,-1.4519,-1.5032,-1.6074,-1.6229,-1.7044,-1.8758,-1.8931,0.0,-2.0373,-2.0399,0.0,0.0,0.0,0.0,-2.2835,-2.4626,-2.6275,-2.7708,-2.7661,-2.7656,-2.7694,0.0,0.0,0.0,0.0,0.0,0.0,-2.8964,-2.941,-3.0056,0.0,-2.9886,-2.9794,-2.9777,-3.0324,-3.0871,-3.0037,-3.0408,-3.1023,0.0,0.0,0.0,0.0,0.0,0.0,0.0,0.0,0.0,0.0,0.0,0.0,0.0,0.0,0.0,0.0,0.0,0.0,0.0,0.0,0.0,0.0,0.0,0.0,0.0,0.0,0.0,0.0,0.0,0.0,0.0,-5.8984,-5.8984,-5.8984,-5.8984,-5.8984,-5.8984,-5.8984,-5.8984,-5.8984,-5.8984,-5.8982,-5.8899,-5.8899,-5.8859,-5.8716,-5.8716,-5.8716,-5.8716,-5.8716,-5.8716,-5.8716,-5.8716,-5.8716,-5.8716,-5.8716,-5.8716,-5.8716,-5.8716,-5.8799,-5.8899,0.0,0.0,0.0,0.0,0.0,0.0,0.0,0.0,0.0,0.0,0.0,0.0,0.0,-1.5152,-1.546,-1.6085,-1.6273,-1.6532,-1.6999,-1.7575,-1.8215,-1.8928,-1.9523,-2.0017,-2.0399,-2.0404,0.0,0.0,0.0,-2.2921,-2.2912,-2.5186,-2.6832,-2.7923,-2.7819,-2.8356,-2.9379,-2.939,0.0,0.0,0.0,0.0,0.0,0.0,0.0,0.0,0.0,0.0,0.0,-3.1429,-3.1656,-3.1863,-3.1576,-3.1741,-3.2079,-3.2378,0.0,0.0,0.0,0.0,0.0,0.0,0.0,0.0,0.0,0.0,0.0,0.0,0.0,0.0,0.0,0.0,0.0,0.0,0.0,0.0,0.0,0.0,0.0,0.0,0.0,0.0,0.0,0.0,0.0,0.0,0.0,-5.8263,-5.8784,-5.8821,-5.8821,-5.8821,-5.8821,-5.8821,-5.8821,-5.8821,-5.8781,-5.8758,-5.8758,-5.8758,-5.8716,-5.8716,-5.8716,-5.8716,-5.8716,-5.8716,-5.8716,-5.8716,-5.8716,-5.8716,-5.8716,-5.8716,-5.8716,-5.8716,-5.8716,-5.8758,0.0,0.0,0.0,0.0,0.0,0.0,0.0,0.0,0.0,0.0,0.0,0.0,0.0,0.0,-1.6411,-1.7083,-1.724,-1.7459,-1.788,-1.8469,-1.8988,-1.9396,-1.9973,-2.0332,-2.0411,-2.0402,0.0,0.0,0.0,0.0,0.0,-2.5251,-2.6776,-2.7574,-2.7788,-2.8794,0.0,0.0,0.0,-3.1629,0.0,0.0,-3.3532,0.0,0.0,0.0,0.0,0.0,0.0,0.0,-3.3876,-3.384,-3.36,-3.3204,0.0,0.0,0.0,0.0,0.0,0.0,0.0,0.0,0.0,0.0,0.0,0.0,0.0,0.0,0.0,0.0,0.0,0.0,0.0,0.0,0.0,0.0,0.0,0.0,0.0,0.0,0.0,0.0,0.0,0.0,0.0,0.0,0.0,0.0,-5.7881,-5.8159,-5.8419,-5.8698,-5.8716,-5.8716,-5.8716,-5.8716,-5.8716,-5.8716,-5.8716,-5.8716,-5.8716,-5.8716,-5.8675,-5.8614,-5.8614,-5.8656,-5.8716,-5.8716,-5.8716,-5.8716,-5.8716,-5.8716,-5.8716,-5.8716,-5.8716,-5.8716,0.0,0.0,0.0,0.0,0.0,0.0,0.0,0.0,0.0,-1.6602,0.0,0.0,0.0,0.0,0.0,-1.7254,-1.7337,-1.7753,-1.8677,-1.8793,-1.9237,-2.0164,-2.0262,-2.0339,-2.0404,-2.0402,-2.0424,0.0,0.0,0.0,0.0,0.0,-2.5989,-2.6741,-2.7611,-2.8888,-3.0417,0.0,-3.1616,-3.1712,0.0,-3.3761,-3.5217,0.0,0.0,0.0,-3.7279,-3.7205,0.0,-3.7079,0.0,0.0,0.0,0.0,0.0,0.0,0.0,0.0,0.0,0.0,0.0,0.0,0.0,0.0,0.0,0.0,0.0,0.0,0.0,0.0,0.0,0.0,0.0,0.0,0.0,0.0,0.0,0.0,0.0,0.0,0.0,0.0,0.0,0.0,0.0,0.0,-5.6265,-5.6265,-5.6302,-5.7045,-5.7825,-5.8605,-5.8642,-5.8642,-5.8642,-5.8642,-5.8642,-5.8642,-5.8642,-5.8624,-5.8624,-5.8642,-5.854,-5.8437,-5.8437,-5.8498,-5.8642,-5.8679,-5.8698,-5.8698,-5.8716,-5.8716,-5.8716,-5.8716,-5.8716,-5.8716,0.0,0.0,0.0,0.0,0.0,0.0,0.0,0.0,0.0,0.0,0.0,0.0,-1.778,-1.8466,-1.8918,-1.9014,-1.9058,-1.9235,-1.9552,-1.9629,-1.984,-2.0178,-2.0257,-2.0337,-2.0405,-2.0392,-2.0416,0.0,0.0,0.0,0.0,0.0,0.0,0.0,-2.763,-2.857,-2.962,-3.101,0.0,0.0,-3.3964,-3.5088,0.0,0.0,0.0,0.0,0.0,-3.8284,-3.8689,0.0,-3.8271,-3.7661,0.0,0.0,0.0,0.0,0.0,0.0,-3.6521,0.0,0.0,0.0,0.0,0.0,0.0,0.0,0.0,0.0,0.0,0.0,0.0,0.0,0.0,0.0,0.0,0.0,0.0,0.0,0.0,0.0,0.0,0.0,0.0,0.0,0.0,0.0,-5.5373,-5.5633,-5.6265,-5.6506,-5.6729,-5.697,-5.697,-5.697,-5.697,-5.697,-5.697,-5.697,-5.6852,-5.6792,-5.6811,-5.671,-5.6649,-5.6607,-5.6607,-5.6649,-5.6784,-5.8029,-5.8553,-5.8553,-5.8656,-5.8716,-5.8716,-5.8716,-5.8716,-5.8716,0.0,0.0,0.0,0.0,0.0,0.0,0.0,0.0,0.0,0.0,0.0,0.0,-1.9107,-1.974,-2.0238,-2.062,-2.0755,-2.0828,-2.0891,-2.096,-2.1058,-2.1206,-2.0908,-2.0784,-2.086,-2.0894,-2.0908,0.0,0.0,0.0,0.0,0.0,0.0,0.0,0.0,0.0,0.0,0.0,0.0,0.0,-3.4854,0.0,0.0,-3.787,-3.8715,0.0,0.0,0.0,-4.0244,-4.0151,-3.9881,0.0,0.0,0.0,0.0,0.0,0.0,0.0,0.0,0.0,0.0,0.0,0.0,0.0,-4.1484,-4.2451,0.0,0.0,0.0,0.0,0.0,0.0,0.0,0.0,0.0,0.0,0.0,0.0,0.0,0.0,0.0,0.0,0.0,-5.3493,-5.3882,-5.4346,-5.4383,-5.4754,-5.5606,-5.5643,-5.5791,-5.6125,-5.6144,-5.6144,-5.6144,-5.6144,-5.6144,-5.6144,-5.6025,-5.6025,-5.6025,-5.5942,-5.59,-5.5876,-5.5876,-5.5834,-5.5846,-5.6977,-5.7653,-5.8029,-5.8526,-5.8716,-5.8716,-5.8716,-5.8716,-5.8716,0.0,0.0,0.0,0.0,0.0,0.0,0.0,0.0,0.0,0.0,-1.9512,-1.9871,-2.0657,-2.0844,-2.1201,-2.194,-2.2096,-2.2215,-2.2276,-2.2344,-2.2462,-2.2582,-2.1892,-2.155,-2.162,-2.1691,-2.1755,0.0,0.0,0.0,0.0,0.0,0.0,0.0,0.0,0.0,0.0,0.0,0.0,-3.3146,-3.5418,-3.6823,0.0,0.0,-4.0227,-4.1095,-4.1566,-4.1783,-4.1809,-4.1527,-4.157,0.0,0.0,0.0,0.0,0.0,-3.7512,0.0,0.0,0.0,0.0,0.0,0.0,0.0,-4.1324,-4.1694,-4.2389,0.0,0.0,0.0,0.0,0.0,0.0,0.0,0.0,0.0,0.0,0.0,0.0,0.0,0.0,0.0,-5.217,-5.2797,-5.3222,-5.3222,-5.3315,-5.3702,-5.4515,-5.4552,-5.4884,-5.5586,-5.5623,-5.5623,-5.5623,-5.5623,-5.5623,-5.5623,-5.5623,-5.5623,-5.5623,-5.5623,-5.5557,-5.5509,-5.5509,-5.5423,-5.5379,-5.5668,-5.6293,-5.7233,-5.8192,-5.8586,-5.8586,-5.8679,-5.8716,-5.8716,-1.6527,0.0,0.0,0.0,0.0,0.0,0.0,0.0,0.0,0.0,-2.0882,-2.1375,-2.1541,-2.1646,-2.1752,-2.1895,-2.1993,-2.2073,-2.2129,-2.2243,-2.235,-2.2438,-2.2327,-2.234,-2.2451,-2.2479,-2.2525,0.0,0.0,0.0,0.0,0.0,0.0,0.0,0.0,0.0,0.0,0.0,0.0,-3.4697,-3.6463,0.0,-3.8388,-3.9964,-4.1368,-4.2499,-4.2549,-4.294,-4.3323,-4.2543,-4.2371,-4.2335,0.0,0.0,0.0,-4.0184,0.0,0.0,0.0,0.0,0.0,0.0,0.0,0.0,-4.1396,-4.208,-4.2817,0.0,0.0,0.0,0.0,0.0,0.0,0.0,0.0,0.0,0.0,0.0,0.0,0.0,0.0,0.0,-5.134,-5.1488,-5.158,-5.158,-5.2151,-5.289,-5.3684,-5.3721,-5.3795,-5.3942,-5.3961,-5.3961,-5.3961,-5.3961,-5.3961,-5.3961,-5.3861,-5.382,-5.382,-5.3731,-5.3708,-5.3726,-5.3726,-5.3683,-5.372,-5.458,-5.5401,-5.6274,-5.7334,-5.7732,-5.7806,-5.8475,-5.8716,-5.8716,-1.7665,0.0,0.0,0.0,0.0,0.0,0.0,0.0,0.0,0.0,0.0,0.0,0.0,-2.296,-2.3309,-2.4118,-2.4284,-2.4357,-2.4392,-2.4545,-2.4673,-2.4746,-2.4044,-2.3714,-2.3828,-2.3438,-2.3282,0.0,0.0,0.0,0.0,0.0,0.0,0.0,0.0,0.0,0.0,0.0,-3.3446,-3.5001,-3.6604,0.0,-3.9118,-4.0675,-4.1913,-4.2939,-4.3632,-4.4317,-4.4844,-4.4352,-4.3981,0.0,0.0,-4.2477,-4.2095,0.0,-4.1176,-4.111,0.0,0.0,0.0,-4.0393,0.0,0.0,0.0,-4.2347,-4.2852,0.0,0.0,0.0,0.0,0.0,0.0,0.0,0.0,0.0,0.0,0.0,0.0,0.0,0.0,0.0,-4.9654,-5.0116,-5.054,-5.0906,-5.1311,-5.19,-5.271,-5.2747,-5.2931,-5.3336,-5.3355,-5.3355,-5.3355,-5.3355,-5.3355,-5.3355,-5.3254,-5.3254,-5.3272,-5.3206,-5.3206,-5.3206,-5.3206,-5.3206,-5.329,-5.3842,-5.4389,-5.4929,-5.6333,-5.6896,-5.7008,-5.7806,-5.8103,-5.8178,-1.8752,0.0,0.0,0.0,0.0,0.0,0.0,0.0,0.0,0.0,0.0,0.0,0.0,0.0,0.0,0.0,-2.6921,-2.7098,-2.714,0.0,-2.7364,-2.7287,-2.6099,-2.5454,-2.5408,-2.479,-2.4499,0.0,0.0,0.0,0.0,0.0,0.0,0.0,0.0,0.0,0.0,0.0,0.0,-3.5249,0.0,-3.8364,-3.9832,-4.1157,-4.2326,-4.3404,-4.469,-4.5477,-4.5865,-4.5865,-4.5497,-4.4888,-4.4199,-4.3629,0.0,0.0,0.0,0.0,0.0,0.0,0.0,0.0,0.0,-4.1816,0.0,0.0,0.0,0.0,0.0,0.0,0.0,0.0,0.0,0.0,0.0,0.0,0.0,0.0,0.0,0.0,0.0,0.0,0.0,-4.8433,-4.9224,-4.9991,-5.0233,-5.0674,-5.1481,-5.1665,-5.2142,-5.2949,-5.2968,-5.3041,-5.3206,-5.3206,-5.3206,-5.3206,-5.3206,-5.3206,-5.3206,-5.3206,-5.3206,-5.3206,-5.3206,-5.3254,-5.33,-5.3459,-5.3598,-5.3862,-5.5426,-5.606,-5.6153,-5.697,-5.7379,-5.7602,-1.8678,-1.8807,0.0,0.0,0.0,0.0,0.0,0.0,0.0,0.0,0.0,0.0,0.0,0.0,0.0,0.0,0.0,0.0,-2.8741,0.0,0.0,-2.801,-2.7885,-2.7511,-2.6866,-2.689,-2.6915,-2.6908,0.0,0.0,0.0,0.0,0.0,0.0,-2.9387,0.0,0.0,0.0,-3.5259,0.0,-3.8271,-3.9454,0.0,-4.1285,-4.2928,-4.4838,-4.5551,-4.581,-4.5828,0.0,-4.581,-4.5645,0.0,-4.4715,-4.4447,-4.2876,0.0,0.0,0.0,0.0,0.0,0.0,-4.1865,0.0,0.0,0.0,-4.3505,-4.3597,0.0,0.0,0.0,0.0,0.0,0.0,0.0,0.0,0.0,0.0,0.0,0.0,0.0,0.0,0.0,-4.6082,-4.6579,-4.7366,-4.8157,-4.8967,-4.9811,-5.0545,-5.1316,-5.2105,-5.2142,-5.2472,-5.3206,-5.3206,-5.3206,-5.3206,-5.3206,-5.3206,-5.3206,-5.3206,-5.3206,-5.3206,-5.3254,-5.3277,-5.3318,-5.3558,-5.3674,-5.3806,-5.4777,-5.515,-5.5261,-5.6116,-5.6896,-5.7509,-1.8614,-1.8715,0.0,0.0,0.0,0.0,0.0,0.0,0.0,0.0,0.0,0.0,0.0,0.0,0.0,0.0,0.0,-3.0858,0.0,0.0,0.0,0.0,-3.0346,-2.9789,-2.9096,-2.867,-2.8259,-2.788,-2.7934,0.0,0.0,0.0,0.0,0.0,-3.0093,0.0,-3.3625,0.0,0.0,0.0,0.0,0.0,0.0,-4.1964,-4.3531,-4.5588,-4.6231,-4.6684,-4.7085,0.0,-4.6832,0.0,0.0,0.0,0.0,0.0,0.0,0.0,0.0,0.0,0.0,0.0,0.0,0.0,-4.31,0.0,-4.3548,0.0,0.0,0.0,0.0,0.0,0.0,0.0,-4.2271,0.0,0.0,0.0,0.0,0.0,0.0,0.0,0.0,0.0,0.0,0.0,-4.5957,-4.6947,-4.8746,-4.9169,-4.9958,-5.1261,-5.1756,-5.216,-5.2509,-5.2968,-5.3206,-5.3206,-5.3206,-5.3206,-5.3206,-5.3206,-5.3206,-5.3206,-5.3295,-5.3359,-5.344,-5.3616,-5.3734,-5.3773,-5.4146,-5.4314,-5.4407,-5.5243,-5.5763,-5.619,-1.9115,0.0,0.0,0.0,0.0,0.0,0.0,0.0,0.0,0.0,0.0,0.0,-2.9142,-2.9955,0.0,0.0,-3.2714,-3.3183,0.0,0.0,-3.3811,0.0,0.0,0.0,0.0,-3.0613,-2.9975,-2.9522,-2.9301,0.0,0.0,0.0,0.0,0.0,0.0,-3.2601,-3.4461,0.0,0.0,-3.8987,-3.9294,-4.0827,-4.2915,-4.3254,-4.4488,-4.6211,-4.6861,-4.7496,-4.797,-4.797,-4.7645,0.0,-4.7091,0.0,0.0,0.0,0.0,0.0,-4.5145,0.0,0.0,0.0,0.0,0.0,0.0,0.0,0.0,0.0,0.0,0.0,0.0,0.0,0.0,0.0,0.0,0.0,0.0,0.0,0.0,0.0,0.0,0.0,0.0,0.0,0.0,-4.3505,-4.3998,-4.5077,-4.6893,-4.7609,-4.8636,-5.0068,-5.0912,-5.1536,-5.1995,-5.2582,-5.2986,-5.3206,-5.3206,-5.3206,-5.3206,-5.3206,-5.3206,-5.323,-5.3336,-5.344,-5.3539,-5.3676,-5.3754,-5.3813,-5.3813,-5.3813,-5.3868,-5.4463,-5.4816,-5.5265,-2.0349,-1.9394,0.0,0.0,0.0,0.0,0.0,0.0,0.0,0.0,0.0,0.0,0.0,0.0,0.0,0.0,0.0,-3.5182,-3.5403,0.0,-3.5268,0.0,0.0,-3.428,0.0,0.0,-3.2551,-3.2662,-3.1885,-3.1589,0.0,0.0,0.0,0.0,0.0,-3.3529,-3.4321,-3.5936,-3.7405,-3.875,-4.0396,-4.2333,-4.4418,0.0,-4.6022,-4.6879,-4.7616,0.0,0.0,-4.7902,-4.7884,0.0,0.0,0.0,0.0,0.0,0.0,0.0,0.0,0.0,0.0,-4.4582,0.0,0.0,0.0,0.0,-4.3196,0.0,0.0,0.0,0.0,0.0,0.0,0.0,0.0,0.0,0.0,0.0,0.0,0.0,0.0,0.0,0.0,0.0,0.0,-4.0917,-4.25,-4.3484,-4.3644,-4.5883,-4.7535,-4.8361,-4.9205,-5.0398,-5.1977,-5.2013,-5.2435,-5.3206,-5.3206,-5.3206,-5.3206,-5.3206,-5.323,-5.33,-5.344,-5.3558,-5.3714,-5.3793,-5.3813,-5.3813,-5.3813,-5.3813,-5.3813,-5.3831,-5.4428,-5.5193,0.0,0.0,0.0,0.0,0.0,0.0,0.0,-2.5886,0.0,0.0,0.0,0.0,0.0,-3.3863,-3.5261,0.0,0.0,-3.7625,-3.8364,-3.8437,0.0,0.0,0.0,-3.653,0.0,0.0,-3.4546,-3.4054,-3.3917,-3.3368,0.0,0.0,0.0,0.0,0.0,-3.4463,0.0,0.0,0.0,0.0,0.0,-4.3943,-4.5101,0.0,0.0,-4.6833,-4.7511,-4.7759,0.0,-4.7759,-4.7819,-4.7866,-4.7616,-4.7547,-4.7536,-4.7281,-4.6825,0.0,0.0,0.0,-4.5528,-4.5255,0.0,0.0,0.0,0.0,0.0,0.0,0.0,0.0,0.0,0.0,0.0,0.0,0.0,0.0,0.0,0.0,0.0,0.0,0.0,0.0,0.0,0.0,0.0,-3.913,-3.9812,-4.1123,-4.3369,-4.4268,-4.5571,-4.7462,-4.8324,-4.9299,-5.048,-5.1485,-5.2165,-5.2463,-5.2991,-5.3206,-5.3206,-5.3272,-5.3277,-5.33,-5.3558,-5.3656,-5.3714,-5.3774,-5.3813,-5.3813,-5.3813,-5.3851,-5.3944,-5.3944,-5.4112,-5.4503,-2.2672,0.0,0.0,0.0,0.0,0.0,0.0,0.0,0.0,0.0,-3.1352,0.0,-3.4058,0.0,-3.6847,0.0,-3.851,-3.9084,-3.97,-3.9757,0.0,-3.926,-3.8905,0.0,0.0,0.0,-3.6635,-3.5864,-3.5745,-3.506,0.0,0.0,0.0,0.0,0.0,0.0,0.0,0.0,-3.9543,0.0,0.0,-4.4877,0.0,0.0,-4.7021,-4.7093,0.0,-4.7717,-4.7717,-4.7717,-4.7759,-4.7819,-4.7819,-4.7866,-4.7888,-4.7829,-4.7484,-4.7025,-4.6985,-4.6604,0.0,-4.5896,-4.5824,0.0,-4.4808,0.0,0.0,0.0,0.0,0.0,0.0,0.0,0.0,0.0,0.0,0.0,0.0,-3.7708,0.0,0.0,0.0,0.0,0.0,0.0,-3.6388,-3.7484,-3.8149,-3.9456,0.0,0.0,-4.4213,-4.5773,-4.7205,-4.8364,-4.9268,-5.0554,-5.1551,-5.218,-5.2633,-5.3038,-5.3314,-5.3359,-5.34,-5.3459,-5.3616,-5.3695,-5.3734,-5.3774,-5.3813,-5.3813,-5.3813,-5.3888,-5.4,-5.4,-5.4037,-5.4222,0.0,0.0,0.0,0.0,-2.3587,0.0,0.0,0.0,-2.9266,0.0,-3.263,-3.3812,-3.677,-3.7115,-3.7742,-3.9193,-3.9493,-3.9594,-3.9594,-3.9658,0.0,0.0,-3.9907,-3.9985,-4.0137,0.0,0.0,0.0,-3.7383,-3.6749,0.0,0.0,0.0,0.0,-3.6519,0.0,-3.765,-3.8395,-3.9575,-4.1229,-4.4136,-4.5228,-4.5346,-4.6916,-4.7554,-4.7657,-4.7657,-4.7657,-4.7657,-4.7657,-4.7657,-4.7657,-4.7657,-4.7657,-4.7657,-4.7511,-4.7511,-4.7468,-4.7302,-4.7302,-4.714,-4.6421,0.0,0.0,0.0,0.0,-4.3926,0.0,0.0,0.0,0.0,0.0,0.0,0.0,0.0,0.0,0.0,0.0,0.0,0.0,0.0,0.0,0.0,-3.5872,-3.5951,-3.604,-3.7467,0.0,0.0,0.0,-4.3332,-4.3479,-4.5844,-4.7537,-4.8439,-4.9288,-5.0563,-5.2188,-5.2225,-5.265,-5.3425,-5.3425,-5.3561,-5.3714,-5.3695,-5.3716,-5.3813,-5.3813,-5.3813,-5.3813,-5.3813,-5.3888,-5.4,-5.4019,-5.4147,-5.4289,-2.4863,-2.4913,-2.5265,0.0,-2.6492,-2.7091,0.0,0.0,0.0,0.0,-3.4207,-3.5841,-3.6626,-3.8265,-3.9486,-3.9844,-4.0517,0.0,0.0,0.0,0.0,-4.1428,-4.0884,-4.0583,-4.0623,-3.9982,-3.958,-3.9383,0.0,0.0,-3.7588,0.0,0.0,0.0,0.0,0.0,-3.7636,-3.9447,-4.1341,-4.3242,-4.4592,-4.5449,0.0,0.0,-4.7363,-4.7407,-4.7407,-4.7407,-4.7407,-4.7407,-4.7407,-4.7407,-4.7407,-4.7407,-4.7407,-4.7363,-4.7363,-4.7345,-4.7302,-4.7302,-4.7266,-4.7068,-4.7032,-4.6816,0.0,0.0,0.0,0.0,0.0,0.0,0.0,0.0,0.0,0.0,0.0,0.0,0.0,0.0,0.0,-3.7213,0.0,0.0,0.0,-3.4282,-3.4548,-3.5143,-3.5659,0.0,0.0,0.0,0.0,-4.3508,-4.4207,-4.5619,-4.7809,-4.8532,-4.9492,-5.062,-5.1155,-5.1819,-5.2613,-5.2673,-5.3045,-5.3714,-5.3754,-5.3774,-5.3813,-5.3813,-5.3813,-5.3813,-5.3813,-5.3907,-5.411,-5.4183,-5.4289,-5.4375,-2.6723,0.0,0.0,-2.8657,0.0,0.0,-2.9677,0.0,0.0,-3.3975,-3.5553,0.0,-3.7999,-3.9286,-4.0207,-4.0565,-4.1028,0.0,-4.1915,0.0,0.0,-4.2713,-4.2423,-4.2078,-4.1725,-4.1434,0.0,-4.0388,0.0,0.0,-3.856,0.0,0.0,0.0,0.0,-3.8114,0.0,-4.0479,-4.2286,-4.3974,-4.4786,0.0,0.0,-4.6944,-4.7205,-4.7143,-4.7143,-4.7232,-4.7302,-4.7302,-4.7302,-4.7302,-4.7302,-4.7302,-4.7302,-4.7276,-4.7249,-4.7249,-4.7187,-4.7143,-4.7143,-4.7143,-4.7143,-4.708,-4.6667,-4.6291,-4.5699,0.0,0.0,0.0,0.0,0.0,0.0,0.0,0.0,0.0,0.0,0.0,0.0,0.0,-3.6869,0.0,0.0,-3.4036,-3.4017,-3.4458,0.0,0.0,0.0,0.0,0.0,-4.2507,-4.3347,-4.4798,-4.7009,-4.7789,-4.8824,-5.0046,-5.0454,-5.1268,-5.2454,-5.2474,-5.2937,-5.3754,-5.3774,-5.3813,-5.3813,-5.3813,-5.3813,-5.3813,-5.3851,-5.3963,-5.4073,-5.4164,-5.4271,-5.4359,0.0,0.0,0.0,0.0,0.0,0.0,0.0,-3.2644,0.0,-3.6162,0.0,-3.7775,-3.9909,-4.0266,-4.0631,-4.1343,0.0,-4.1754,-4.2449,-4.2643,-4.3016,-4.3633,-4.3921,-4.3698,-4.3039,-4.3005,-4.2448,0.0,0.0,0.0,0.0,0.0,0.0,0.0,0.0,0.0,0.0,-4.1432,-4.281,-4.4097,-4.4908,-4.5594,-4.6229,-4.6928,-4.7088,-4.6998,-4.6998,-4.7116,-4.7258,-4.7258,-4.7258,-4.7258,-4.7258,-4.7258,-4.7232,-4.7178,-4.7178,-4.7133,-4.7043,-4.6998,-4.6998,-4.6998,-4.6998,-4.6998,-4.6998,-4.6462,-4.5775,-4.5076,-4.427,-4.3584,0.0,0.0,0.0,0.0,0.0,0.0,0.0,0.0,0.0,0.0,0.0,0.0,0.0,0.0,0.0,0.0,0.0,0.0,0.0,0.0,0.0,-4.0954,-4.268,-4.436,-4.5971,0.0,-4.8296,-4.98,-4.9893,-5.0766,-5.2289,-5.2401,-5.2884,-5.3664,-5.3757,-5.3813,-5.3813,-5.3813,-5.3813,-5.3813,-5.3944,-5.3982,-5.4019,-5.4073,-5.4164,-5.4254,0.0,0.0,0.0,0.0,0.0,-3.3117,-3.5035,-3.5476,-3.569,-3.6071,-3.7751,-3.9311,-4.0309,-4.1057,-4.1808,-4.2548,-4.2815,0.0,0.0,0.0,0.0,-4.3506,-4.3572,-4.3598,-4.3553,-4.3061,-4.2695,0.0,0.0,0.0,0.0,0.0,0.0,0.0,0.0,0.0,-4.1559,-4.2395,0.0,-4.4857,-4.5545,-4.6265,-4.6847,-4.6989,-4.7043,-4.6998,-4.6998,-4.7025,-4.707,-4.707,-4.707,-4.707,-4.707,-4.707,-4.7025,-4.7043,-4.7043,-4.7043,-4.6998,-4.6998,-4.6998,-4.6998,-4.6998,-4.6998,-4.6998,-4.6873,-4.6551,-4.5811,-4.505,-4.439,-4.3742,0.0,0.0,0.0,0.0,0.0,0.0,0.0,0.0,0.0,0.0,-3.7755,0.0,0.0,0.0,0.0,0.0,0.0,0.0,0.0,0.0,0.0,-4.1063,0.0,0.0,0.0,-4.7181,-4.8129,-4.8797,-4.9615,-5.0562,-5.1286,-5.2048,-5.2847,-5.3515,-5.3813,-5.3813,-5.3813,-5.3813,-5.3794,-5.3813,-5.3888,-5.3982,-5.4019,-5.4019,-5.4055,0.0,0.0,0.0,0.0,0.0,0.0,0.0,-3.7496,0.0,-3.7769,-3.905,-4.0263,-4.1015,-4.18,-4.2432,-4.2775,-4.2962,-4.3285,-4.3699,-4.3917,-4.419,-4.4539,-4.4674,-4.4533,-4.4248,-4.3493,-4.2993,-4.2773,0.0,0.0,0.0,0.0,0.0,0.0,0.0,-4.116,0.0,0.0,0.0,-4.497,-4.5717,-4.6373,-4.6998,-4.6998,-4.6998,-4.6998,-4.6998,-4.6998,-4.6998,-4.6998,-4.6998,-4.6998,-4.6998,-4.6998,-4.6998,-4.6998,-4.6998,-4.6998,-4.6998,-4.6998,-4.6998,-4.6998,-4.6998,-4.6998,-4.6998,-4.6998,-4.6766,-4.5963,-4.5265,-4.448,-4.3458,-4.3228,0.0,0.0,0.0,0.0,0.0,0.0,0.0,0.0,0.0,0.0,0.0,0.0,0.0,0.0,0.0,0.0,0.0,0.0,0.0,0.0,0.0,0.0,0.0,0.0,0.0,-4.7701,-4.8519,-4.9336,-5.019,-5.1026,-5.1844,-5.2642,-5.346,-5.3813,-5.3813,-5.3813,-5.3813,-5.3813,-5.3813,-5.3851,-5.3907,-5.3907,-5.3907,-5.3888,0.0,-3.4219,0.0,0.0,-3.6399,0.0,-3.8014,-3.888,-3.9438,-3.9518,-4.0182,-4.1,-4.1887,-4.2569,-4.2978,-4.3132,-4.3288,-4.3649,-4.4267,-4.4509,-4.494,-4.5546,-4.5667,-4.5458,-4.49,-4.4136,-4.3432,0.0,0.0,0.0,0.0,0.0,0.0,0.0,0.0,0.0,0.0,0.0,-4.4479,-4.5136,-4.5881,-4.6534,-4.6998,-4.6998,-4.6998,-4.6998,-4.6998,-4.6998,-4.6998,-4.6998,-4.6998,-4.6998,-4.6998,-4.6998,-4.6998,-4.6998,-4.6998,-4.6998,-4.6998,-4.6998,-4.6998,-4.6998,-4.6998,-4.6998,-4.6998,-4.7043,-4.6864,-4.6239,-4.5434,-4.4456,-4.3072,-4.3031,0.0,0.0,0.0,0.0,0.0,0.0,0.0,0.0,0.0,0.0,-3.8228,0.0,0.0,0.0,0.0,0.0,0.0,0.0,0.0,0.0,0.0,-4.2203,-4.3485,0.0,-4.6828,-4.746,-4.8426,-4.9262,-4.9949,-5.0766,-5.1565,-5.2401,-5.32,-5.3645,-5.3813,-5.3813,-5.3813,-5.3813,-5.3813,-5.3813,-5.3813,-5.3813,-5.3813,-5.3813,0.0,0.0,0.0,0.0,0.0,0.0,-3.8768,-3.9562,-4.0036,-4.0003,-4.0697,-4.1696,-4.3064,-4.3464,-4.3895,-4.4575,-4.4719,-4.4898,-4.5074,-4.5127,-4.5232,-4.5423,-4.5423,-4.5441,-4.5511,-4.4784,-4.4153,0.0,0.0,-4.2281,0.0,0.0,0.0,0.0,0.0,0.0,0.0,-4.4414,-4.5154,-4.596,-4.6614,-4.6926,-4.6998,-4.6998,-4.6998,-4.6998,-4.6998,-4.6998,-4.6998,-4.6998,-4.6998,-4.6998,-4.6998,-4.6998,-4.6998,-4.6998,-4.6998,-4.6998,-4.6998,-4.6998,-4.6998,-4.6998,-4.6998,-4.6998,-4.6998,-4.7088,-4.716,-4.7089,-4.6025,-4.4624,-4.3152,-4.305,-4.3214,0.0,0.0,0.0,0.0,0.0,-4.1946,-4.0568,0.0,0.0,0.0,-3.8321,0.0,0.0,0.0,0.0,0.0,0.0,0.0,-3.7968,0.0,-4.1664,-4.1813,-4.4934,-4.6531,-4.6624,-4.8166,-4.8946,-4.9057,-4.9856,-5.0692,-5.1565,-5.2364,-5.3144,-5.3813,-5.3813,-5.3813,-5.3813,-5.3813,-5.3813,-5.3813,-5.3813,-5.3813,-5.3813,0.0,0.0,0.0,0.0,0.0,0.0,0.0,-4.0707,-4.1328,-4.1782,-4.2247,-4.276,-4.3352,-4.3898,-4.4359,-4.4648,-4.4776,-4.4869,-4.494,-4.5032,-4.5086,-4.514,-4.5247,-4.53,-4.5353,-4.4734,-4.4283,0.0,0.0,0.0,0.0,0.0,0.0,0.0,0.0,-4.3863,-4.4426,-4.519,-4.5666,-4.5936,-4.6722,-4.6998,-4.6998,-4.6998,-4.6998,-4.6998,-4.6998,-4.6998,-4.6998,-4.6998,-4.6998,-4.6998,-4.6998,-4.6998,-4.6998,-4.6998,-4.6998,-4.6998,-4.6998,-4.6998,-4.6998,-4.6998,-4.6998,-4.7043,-4.7088,-4.7133,-4.7223,-4.7249,-4.6104,-4.4809,-4.3824,-4.3358,-4.316,0.0,0.0,0.0,0.0,0.0,0.0,-4.1834,0.0,-4.0253,0.0,0.0,0.0,0.0,0.0,0.0,0.0,0.0,0.0,-3.8581,0.0,-4.1832,-4.2314,-4.5101,-4.6494,-4.6513,-4.8129,-4.8909,-4.8927,-4.9745,-5.0841,-5.2141,-5.2457,-5.3032,-5.3716,-5.3716,-5.3716,-5.3619,-5.3619,-5.3658,-5.3716,-5.3716,-5.3754,-5.3813,-3.8721,0.0,-3.894,0.0,-4.0012,-4.0531,-4.1033,-4.1753,-4.2406,-4.2908,-4.3328,-4.3592,-4.3592,-4.412,-4.4514,-4.4514,-4.4665,-4.4776,-4.4793,-4.4886,-4.4978,-4.4978,-4.5086,0.0,-4.514,-4.4767,-4.4509,-4.4422,-4.4002,0.0,0.0,0.0,0.0,0.0,-4.4581,-4.4957,-4.5147,-4.572,-4.5989,-4.615,-4.6702,-4.6934,-4.6888,-4.6888,-4.6888,-4.6888,-4.6934,-4.6934,-4.6952,-4.6998,-4.6998,-4.6998,-4.6998,-4.6998,-4.6998,-4.6998,-4.6998,-4.6998,-4.6998,-4.6998,-4.6998,-4.6998,-4.7043,-4.7088,-4.7196,-4.7241,-4.724,-4.7119,-4.6068,-4.4957,-4.424,-4.3538,-4.3123,-4.3178,0.0,0.0,0.0,-4.3287,0.0,0.0,-4.1753,-4.0996,-4.0773,-3.9974,0.0,0.0,0.0,0.0,0.0,0.0,0.0,0.0,0.0,0.0,0.0,-4.5249,-4.6494,-4.6513,-4.8129,-4.8909,-4.8927,-4.9709,-5.0694,-5.1825,-5.2066,-5.2603,-5.3304,-5.3304,-5.3376,-5.3499,-5.3499,-5.3558,-5.3656,-5.3674,-5.3734,-5.3774,-4.1594,-4.1666,-4.1722,-4.1816,-4.1887,-4.1887,-4.1904,-4.2507,-4.2975,-4.2975,-4.3628,-4.408,-4.408,-4.4196,-4.431,-4.431,-4.4497,-4.4682,-4.4776,-4.4776,-4.4886,0.0,0.0,-4.4978,-4.4978,-4.5123,-4.4869,-4.432,0.0,0.0,-4.368,0.0,-4.4243,-4.4485,-4.4503,-4.5,-4.5784,-4.5802,-4.6203,-4.6778,-4.6778,-4.6731,-4.659,-4.659,-4.659,-4.6637,-4.6731,-4.6795,-4.6842,-4.6952,-4.6998,-4.6998,-4.6998,-4.6998,-4.6998,-4.6998,-4.6998,-4.6998,-4.6998,-4.6998,-4.6998,-4.6998,-4.7088,-4.7196,-4.7196,-4.7356,-4.7295,-4.6644,-4.587,-4.5055,-4.424,-4.3538,-4.3123,-4.3178,0.0,0.0,0.0,0.0,0.0,-4.2804,-4.2736,-4.2463,-4.1664,0.0,0.0,0.0,0.0,0.0,0.0,0.0,0.0,-4.0327,-4.1163,0.0,-4.2797,-4.5249,-4.6494,-4.6513,-4.8129,-4.8909,-4.8927,-4.9638,-4.9973,-4.9991,-5.0786,-5.158,-5.2317,-5.2317,-5.2779,-5.3499,-5.3499,-5.3499,-5.3539,-5.3656,-5.3714,-5.3695,-4.1442,-4.1498,-4.1498,-4.1538,-4.1953,-4.2302,-4.2302,-4.2916,-4.3398,-4.3398,-4.3597,-4.3747,-4.3747,-4.3981,-4.4138,0.0,-4.4327,-4.4423,0.0,-4.4609,-4.4682,-4.4737,-4.4831,-4.4886,-4.4886,-4.4978,-4.502,-4.4886,0.0,0.0,0.0,-4.4806,-4.5011,-4.5131,-4.568,-4.6099,-4.6358,-4.6358,-4.6454,-4.6684,-4.6684,-4.6637,-4.659,-4.659,-4.659,-4.659,-4.6637,-4.6731,-4.6795,-4.6842,-4.6934,-4.6998,-4.6998,-4.6998,-4.6998,-4.6998,-4.6998,-4.6998,-4.6998,-4.6998,-4.7043,-4.7088,-4.7196,-4.7241,-4.7381,-4.7511,-4.7585,-4.7373,-4.6685,-4.587,-4.5073,-4.4354,-4.376,-4.3269,-4.3305,0.0,0.0,0.0,-4.3744,-4.3545,-4.307,-4.2705,0.0,-4.1683,0.0,0.0,0.0,0.0,0.0,0.0,0.0,0.0,-4.2277,0.0,-4.4488,-4.5825,-4.6773,-4.733,-4.8338,-4.8768,-4.8714,-4.8937,-4.9344,-4.9917,-5.0176,-5.0672,-5.1332,-5.1332,-5.1772,-5.2486,-5.2486,-5.2858,-5.34,-5.3499,-5.3616,-5.3695,-4.2121,-4.2121,-4.2179,-4.2253,-4.2634,-4.2932,-4.2932,-4.333,-4.3628,-4.3628,-4.3628,-4.3628,-4.3628,-4.3805,0.0,-4.3998,-4.4155,-4.4196,-4.4196,-4.4327,-4.44,-4.44,-4.4497,-4.4553,-4.4592,-4.4759,0.0,-4.5032,-4.5283,-4.5338,-4.532,-4.5453,-4.5646,-4.5788,-4.6312,-4.6542,-4.659,-4.659,-4.659,-4.6525,-4.6525,-4.6495,-4.6447,-4.6447,-4.6447,-4.6447,-4.6495,-4.659,-4.6731,-4.6778,-4.6888,-4.6998,-4.6998,-4.6998,-4.6998,-4.6998,-4.6998,-4.6998,-4.6998,-4.7043,-4.7088,-4.7196,-4.7285,-4.7356,-4.7511,-4.7657,-4.7717,-4.7717,-4.7065,-4.625,-4.5454,-4.4735,-4.4051,-4.3306,-4.3305,-4.3446,-4.3582,0.0,-4.3818,0.0,0.0,0.0,0.0,-4.2519,-4.2054,0.0,0.0,0.0,0.0,0.0,0.0,-4.276,-4.3095,0.0,-4.5217,-4.6368,-4.7132,-4.7599,-4.8344,-4.866,-4.8569,-4.8569,-4.8827,-4.9287,-4.9287,-4.9709,-5.0425,-5.0425,-5.0864,-5.1555,-5.1555,-5.2073,-5.2835,-5.2939,-5.3241,-5.3656,-4.3312,-4.3372,-4.3432,0.0,-4.3568,0.0,-4.3568,-4.3568,-4.3568,-4.3568,-4.3568,-4.3568,-4.3568,-4.3568,-4.3628,-4.3839,0.0,0.0,0.0,-4.4097,-4.4097,-4.4097,-4.4097,-4.4155,-4.4293,-4.4406,-4.4575,-4.4831,-4.5194,-4.5546,-4.577,-4.5922,-4.6105,-4.6381,-4.6381,-4.6447,-4.659,-4.659,-4.6495,-4.6398,-4.6398,-4.6301,-4.6172,-4.6172,-4.6172,-4.6221,-4.635,-4.6495,-4.6637,-4.6731,-4.6888,-4.6998,-4.6998,-4.6998,-4.6998,-4.6998,-4.6998,-4.6998,-4.6998,-4.7088,-4.7196,-4.7241,-4.7356,-4.7554,-4.7657,-4.7717,-4.7717,-4.7717,-4.7102,-4.6323,-4.5454,-4.4828,-4.4123,-4.3342,-4.334,-4.3446,-4.36,0.0,0.0,0.0,0.0,0.0,0.0,-4.3318,-4.2872,0.0,0.0,0.0,0.0,0.0,-4.2203,-4.2946,-4.3689,-4.4443,-4.5268,-4.6805,-4.7566,-4.7497,-4.8236,-4.855,-4.8513,-4.8513,-4.8419,-4.8306,-4.8306,-4.8765,-4.9499,-4.9499,-4.9976,-5.0729,-5.0729,-5.1206,-5.1944,-5.2044,-5.2662,-5.3425,0.0,0.0,-4.3174,-4.3235,-4.3235,-4.3235,-4.3235,-4.3235,-4.3235,-4.3235,-4.3235,-4.3235,-4.3235,-4.3235,-4.3235,-4.3312,-4.3687,-4.3956,-4.3956,-4.4039,-4.4097,-4.4097,-4.4097,-4.4097,-4.4155,-4.431,-4.4536,-4.4923,-4.523,-4.5494,-4.5667,-4.5871,-4.6023,-4.6122,-4.6221,-4.627,-4.627,-4.627,-4.627,-4.627,-4.627,-4.6221,-4.6172,-4.6172,-4.6172,-4.6221,-4.635,-4.6495,-4.6637,-4.6731,-4.6888,-4.6998,-4.6998,-4.6998,-4.6998,-4.6998,-4.6998,-4.7043,-4.7133,-4.7196,-4.7241,-4.7381,-4.7529,-4.7657,-4.7699,-4.7717,-4.7717,-4.7717,-4.7554,-4.6993,-4.57,-4.536,-4.4892,-4.3578,-4.3481,-4.36,-4.3719,-4.3818,0.0,0.0,-4.4005,-4.4005,-4.4005,-4.3838,-4.3726,0.0,0.0,0.0,0.0,-4.4525,-4.4506,-4.4692,-4.4795,-4.556,-4.699,-4.7291,-4.7719,-4.8255,-4.844,-4.8438,-4.8363,-4.8363,-4.8306,-4.8306,-4.8306,-4.8416,-4.8618,-4.8618,-4.9114,-4.9866,-4.9866,-5.038,-5.1151,-5.1842,-5.2312,-5.2668,-4.3007,-4.3007,-4.3052,-4.3113,-4.3113,-4.3113,-4.3113,-4.3113,-4.3113,-4.3113,-4.3113,-4.3113,-4.3113,-4.3113,-4.3113,-4.3113,-4.3372,-4.3568,-4.3645,-4.3747,-4.3805,-4.3864,-4.3864,-4.3923,-4.3998,-4.4097,-4.431,-4.4742,-4.5069,-4.5336,-4.5511,-4.5718,-4.5821,-4.5922,-4.5972,-4.6023,-4.6023,-4.6023,-4.6073,-4.6122,-4.6122,-4.6122,-4.6172,-4.6172,-4.6172,-4.6221,-4.635,-4.6495,-4.6637,-4.6731,-4.6888,-4.6998,-4.6998,-4.6998,-4.6998,-4.7088,-4.7088,-4.7088,-4.7196,-4.7267,-4.7399,-4.7572,-4.7657,-4.7717,-4.7717,-4.7717,-4.7717,-4.7717,-4.7469,-4.6876,-4.5721,-4.531,-4.4766,-4.3595,-4.3497,-4.3634,-4.3771,-4.3851,0.0,-4.4005,-4.4005,-4.4005,-4.4005,-4.4358,-4.4581,-4.4581,-4.4934,0.0,-4.5825,-4.5844,-4.5844,-4.576,-4.6079,-4.6641,-4.7442,-4.7702,-4.8034,-4.8401,-4.8401,-4.8363,-4.8306,-4.8306,-4.8306,-4.8306,-4.8306,-4.8306,-4.8306,-4.8306,-4.8581,-4.9003,-4.9003,-4.9517,-5.0288,-5.0772,-5.1477,-5.2296,-4.2837,-4.2837,-4.2883,-4.299,-4.3035,-4.3035,-4.3035,-4.3035,-4.3035,-4.3035,-4.3035,-4.3035,-4.3035,-4.3035,-4.3035,-4.3035,-4.3035,-4.3113,-4.3312,-4.3372,-4.3432,-4.3552,-4.3568,-4.3628,-4.3839,-4.3898,-4.4097,-4.4502,-4.4869,-4.514,-4.5389,-4.5511,-4.5667,-4.577,-4.577,-4.577,-4.577,-4.577,-4.5871,-4.5972,-4.5972,-4.6073,-4.6172,-4.6172,-4.6221,-4.627,-4.6398,-4.6542,-4.6637,-4.6778,-4.6888,-4.6998,-4.6998,-4.698,-4.7043,-4.7196,-4.7223,-4.7241,-4.7241,-4.7399,-4.7554,-4.7657,-4.7717,-4.7717,-4.7717,-4.7717,-4.7681,-4.7554,-4.7093,-4.6412,-4.5524,-4.4948,-4.4345,-4.3558,-4.355,-4.3667,-4.3771,0.0,-4.3929,-4.4005,-4.4005,-4.4061,-4.4191,-4.4859,-4.5342,-4.5472,-4.6104,-4.655,-4.6661,-4.668,-4.665,-4.6641,-4.7268,-4.7533,-4.7445,-4.8032,-4.8306,-4.8306,-4.8306,-4.8306,-4.8306,-4.8306,-4.8306,-4.8306,-4.8306,-4.8306,-4.8306,-4.8306,-4.8306,-4.8306,-4.8306,-4.8746,-4.9407,-4.9536,-5.0496,-5.1793,-4.2634,-4.2634,-4.2634,-4.268,-4.2696,-4.2696,-4.2696,-4.2696,-4.2696,-4.2696,-4.2696,-4.2696,-4.2696,-4.2696,-4.2696,-4.2696,-4.2696,-4.2805,-4.3113,-4.3174,-4.3235,-4.3432,-4.3432,-4.3509,-4.3628,-4.3923,-4.4196,-4.4502,-4.4869,-4.5086,-4.523,-4.5459,-4.5632,-4.5632,-4.5718,-4.577,-4.577,-4.577,-4.5821,-4.5821,-4.5972,-4.6023,-4.6023,-4.6172,-4.6253,-4.6398,-4.6542,-4.6637,-4.6795,-4.6934,-4.698,-4.6998,-4.6998,-4.7088,-4.7178,-4.7178,-4.7312,-4.7468,-4.7468,-4.7572,-4.7657,-4.7699,-4.7717,-4.7717,-4.7717,-4.7717,-4.7518,-4.6971,-4.6793,-4.6288,-4.4985,-4.4657,-4.4382,-4.3591,-4.3652,-4.3771,-4.3804,0.0,-4.3974,-4.4005,-4.4005,-4.4283,-4.5026,-4.5212,-4.5565,-4.6252,-4.642,-4.6791,-4.7478,-4.7466,-4.7694,-4.8235,-4.7718,-4.7665,-4.8122,-4.8251,-4.8306,-4.8306,-4.8306,-4.8306,-4.8306,-4.8306,-4.8306,-4.8306,-4.8306,-4.8306,-4.8306,-4.8306,-4.8306,-4.8306,-4.8306,-4.8379,-4.86,-4.9315,-4.9798,-5.017,-4.2634,-4.2634,-4.2634,-4.2634,-4.2571,-4.2508,-4.2508,-4.2365,-4.2302,-4.2302,-4.2302,-4.2302,-4.2302,-4.2302,-4.2365,-4.2508,-4.2508,-4.2571,-4.2805,-4.2945,-4.3068,-4.3235,-4.3312,-4.3432,-4.3628,-4.3923,-4.4155,-4.4293,-4.4703,-4.4978,-4.5086,-4.53,-4.5406,-4.5476,-4.5581,-4.5563,-4.5563,-4.5563,-4.5632,-4.5718,-4.5821,-4.5922,-4.6023,-4.6122,-4.6253,-4.6429,-4.6542,-4.6684,-4.6842,-4.6934,-4.6998,-4.6998,-4.6998,-4.7088,-4.7196,-4.7249,-4.7381,-4.7511,-4.7615,-4.7657,-4.7717,-4.7717,-4.7759,-4.7819,-4.7819,-4.7497,-4.712,-4.6837,-4.6111,-4.5367,-4.4711,-4.4272,-4.3903,-4.3552,-4.36,0.0,0.0,-4.3832,-4.3961,-4.3961,-4.4382,-4.4859,-4.5249,-4.6085,-4.6754,-4.7125,-4.7553,-4.7943,-4.8333,-4.8301,-4.8362,-4.8569,-4.8126,-4.7996,-4.8306,-4.8306,-4.8306,-4.8306,-4.8306,-4.8306,-4.8306,-4.8306,-4.8306,-4.8306,-4.8306,-4.8306,-4.8306,-4.8306,-4.8306,-4.8306,-4.8306,-4.8306,-4.8361,-4.8746,-4.9226,-4.9687,-4.2492,-4.2492,-4.2492,-4.2492,-4.2381,-4.2318,-4.2318,-4.2174,-4.2109,-4.2109,-4.2109,-4.2109,-4.2109,-4.2109,-4.2174,-4.2318,-4.2318,-4.2381,-4.2571,-4.2713,-4.2883,-4.3052,-4.3251,-4.3449,-4.3568,-4.3864,-4.4039,-4.4097,-4.4536,-4.4814,-4.4978,-4.514,-4.5247,-4.5423,-4.5423,-4.5423,-4.5423,-4.5423,-4.5476,-4.5581,-4.5718,-4.5871,-4.5972,-4.6122,-4.6301,-4.6447,-4.659,-4.6702,-4.6842,-4.6998,-4.6998,-4.6998,-4.6998,-4.7088,-4.7205,-4.7276,-4.7407,-4.7554,-4.7657,-4.7717,-4.7759,-4.7759,-4.7842,-4.7888,-4.7706,-4.7201,-4.6697,-4.6332,-4.5387,-4.4547,-4.44,-4.3885,-4.3497,-4.3497,0.0,0.0,0.0,-4.3767,-4.3883,-4.3883,-4.4689,-4.5296,-4.5514,-4.6832,-4.7742,-4.7961,-4.8556,-4.8909,-4.8874,-4.8804,-4.8697,-4.8514,-4.8382,-4.8306,-4.8306,-4.8306,-4.8306,-4.8306,-4.8306,-4.8306,-4.8306,-4.8306,-4.8306,-4.8306,-4.8306,-4.8306,-4.8306,-4.8306,-4.8306,-4.8306,-4.8306,-4.8306,-4.8306,-4.8306,-4.8728,-4.9318,-4.2109,-4.2109,-4.2109,-4.2109,-4.2109,-4.2109,-4.2109,-4.2109,-4.2109,-4.2109,-4.2109,-4.2109,-4.2109,-4.2109,-4.2109,-4.2109,-4.2109,-4.219,-4.2381,-4.2445,-4.2571,-4.2899,-4.3207,-4.3372,-4.3432,-4.3763,-4.4015,-4.4097,-4.4406,-4.4686,-4.4978,-4.514,-4.5247,-4.5423,-4.5423,-4.5423,-4.5423,-4.5423,-4.5423,-4.5423,-4.5684,-4.5838,-4.5821,-4.6073,-4.6368,-4.659,-4.659,-4.6795,-4.6998,-4.6998,-4.6998,-4.6998,-4.6998,-4.7143,-4.7302,-4.732,-4.7468,-4.7675,-4.7717,-4.7801,-4.7879,-4.7879,-4.7947,-4.7809,-4.7022,-4.6861,-4.6387,-4.504,-4.4693,-4.44,-4.3701,-4.3534,-4.3497,-4.3497,0.0,0.0,-4.3582,-4.3719,-4.3804,-4.3804,-4.4524,-4.5349,-4.6157,-4.7046,-4.7932,-4.876,-4.8872,-4.8874,-4.8822,-4.8678,-4.8514,-4.8344,-4.8306,-4.8306,-4.8306,-4.8306,-4.8306,-4.8306,-4.8306,-4.8306,-4.8306,-4.8306,-4.8306,-4.8306,-4.8306,-4.8306,-4.8306,-4.8306,-4.8306,-4.8306,-4.8306,-4.8306,-4.8306,-4.8306,-4.8343,-4.8398,-4.2109,-4.2109,-4.2109,-4.2109,-4.1996,-4.1947,-4.1947,-4.1517,-4.1166,-4.1166,-4.1166,-4.1166,-4.1166,-4.1531,-4.1851,-4.1947,-4.1947,-4.2077,-4.2381,-4.2381,-4.2571,-4.2899,-4.3129,-4.3235,-4.3372,-4.3704,-4.3956,-4.4097,-4.431,-4.4536,-4.4886,-4.494,-4.5032,-4.5157,-4.5247,-4.53,-4.53,-4.5353,-4.5423,-4.5423,-4.5667,-4.577,-4.5821,-4.6073,-4.6301,-4.6495,-4.659,-4.6731,-4.6888,-4.698,-4.6998,-4.6998,-4.6998,-4.716,-4.7302,-4.7511,-4.7253,-4.6975,-4.6975,-4.7379,-4.7692,-4.7243,-4.7219,-4.7062,-4.6337,-4.5846,-4.5352,-4.4784,-4.4235,-4.376,-4.3501,-4.3358,-4.3304,-4.3304,0.0,-4.3481,-4.3481,-4.3566,-4.3667,-4.3667,-4.4897,-4.5854,-4.6202,-4.7457,-4.8364,-4.8695,-4.8714,-4.8492,-4.7957,-4.7369,-4.6985,-4.6819,-4.7258,-4.7714,-4.8247,-4.8265,-4.8208,-4.8111,-4.8208,-4.8265,-4.8247,-4.8267,-4.8306,-4.8306,-4.8306,-4.8306,-4.8306,-4.8306,-4.8306,-4.8306,-4.8306,-4.8306,-4.8306,-4.8306,-4.8306,-4.8306,-4.1916,-4.1916,-4.1916,-4.1916,-4.1866,-4.1754,-4.1547,-4.0974,-4.0514,-4.0277,-4.0245,-4.0245,-4.0245,-4.0672,-4.1005,-4.1166,-4.1166,-4.1294,-4.1533,-4.1884,-4.2282,-4.2759,-4.299,-4.3174,-4.3312,-4.3628,-4.3881,-4.4056,-4.4155,-4.4423,-4.4703,-4.4776,-4.4886,-4.4978,-4.5086,-4.5177,-4.5194,-4.53,-4.5371,-4.5423,-4.5632,-4.577,-4.5821,-4.6023,-4.627,-4.6429,-4.6542,-4.6684,-4.6842,-4.6934,-4.6998,-4.6998,-4.6998,-4.716,-4.7309,-4.7265,-4.6897,-4.645,-4.6196,-4.654,-4.683,-4.6426,-4.6364,-4.6223,-4.5496,-4.4967,-4.451,-4.4272,-4.3742,-4.334,-4.334,-4.3251,-4.3214,-4.3214,-4.3305,-4.334,-4.334,-4.3428,-4.3479,-4.3532,-4.4814,-4.5823,-4.6151,-4.7406,-4.8292,-4.8569,-4.8365,-4.7867,-4.7037,-4.6359,-4.6011,-4.5865,-4.6615,-4.7234,-4.7725,-4.798,-4.809,-4.7992,-4.809,-4.8148,-4.8148,-4.819,-4.819,-4.819,-4.8229,-4.8286,-4.8286,-4.8306,-4.8306,-4.8306,-4.8306,-4.8306,-4.8306,-4.8306,-4.8306,-4.8306,-4.1588,-4.1588,-4.1588,-4.1588,-4.1588,-4.1367,-4.0704,-4.0593,-4.0324,-3.9582,-3.9487,-3.9487,-3.9487,-3.9503,-3.9503,-3.9503,-3.9503,-3.9581,-3.9799,-4.078,-4.1719,-4.2539,-4.2929,-4.3113,-4.3113,-4.3432,-4.3704,-4.3898,-4.4056,-4.4253,-4.4502,-4.4703,-4.4886,-4.4978,-4.4978,-4.5086,-4.5194,-4.5177,-4.53,-4.5423,-4.5528,-4.5667,-4.5821,-4.5922,-4.6172,-4.6429,-4.6542,-4.6684,-4.6842,-4.6934,-4.6998,-4.6998,-4.6998,-4.7143,-4.714,-4.6495,-4.6385,-4.6305,-4.5508,-4.5291,-4.533,-4.5485,-4.5544,-4.5384,-4.4564,-4.4381,-4.4144,-4.336,-4.3214,-4.3214,-4.3214,-4.3214,-4.3214,-4.3214,-4.3214,-4.3214,-4.3214,-4.3214,-4.3251,-4.3376,-4.4108,-4.4985,-4.6009,-4.6819,-4.7647,-4.8532,-4.7848,-4.7,-4.6119,-4.5974,-4.5847,-4.5772,-4.6577,-4.6882,-4.6684,-4.7569,-4.7992,-4.7992,-4.7992,-4.7992,-4.7992,-4.7992,-4.7992,-4.7992,-4.8148,-4.8187,-4.8187,-4.8286,-4.8306,-4.8306,-4.8306,-4.8306,-4.8306,-4.8306,-4.8306,-4.8306,-4.1588,-4.1588,-4.1588,-4.1588,-4.1209,-4.083,-4.0625,-3.9771,-3.906,-3.8839,-3.8807,-3.8807,-3.8807,-3.9218,-3.9503,-3.9503,-3.9503,-3.9628,-3.9952,-4.036,-4.0994,-4.1857,-4.2561,-4.3007,-4.3113,-4.3312,-4.3628,-4.3898,-4.3956,-4.4056,-4.4196,-4.4367,-4.448,-4.4536,-4.4759,-4.4886,-4.494,-4.514,-4.5247,-4.53,-4.5511,-4.5615,-4.5667,-4.5922,-4.6073,-4.6172,-4.6398,-4.6495,-4.6542,-4.6778,-4.6842,-4.6888,-4.7088,-4.6784,-4.6388,-4.6241,-4.5462,-4.4584,-4.4429,-4.396,-4.3731,-4.4465,-4.4669,-4.4489,-4.3743,-4.3561,-4.3488,-4.3251,-4.3142,-4.3123,-4.3123,-4.3068,-4.3013,-4.3013,-4.3068,-4.3123,-4.3123,-4.3178,-4.3196,-4.3251,-4.3962,-4.4839,-4.5792,-4.6617,-4.7462,-4.8309,-4.7114,-4.5993,-4.5148,-4.4508,-4.4144,-4.4108,-4.5293,-4.5927,-4.5848,-4.7252,-4.7884,-4.7783,-4.7866,-4.7925,-4.7925,-4.797,-4.7992,-4.7992,-4.8032,-4.809,-4.8187,-4.8226,-4.8247,-4.8306,-4.8306,-4.8306,-4.8306,-4.8306,-4.8363,-4.8457,-4.1456,-4.1522,-4.1588,-4.1588,-4.1035,-4.0498,-4.0214,-3.9234,-3.8412,-3.8144,-3.8096,-3.8096,-3.8096,-3.846,-3.8697,-3.8697,-3.8697,-3.893,-3.9582,-3.975,-4.0192,-4.1112,-4.1687,-4.2167,-4.2566,-4.2764,-4.302,-4.3273,-4.3315,-4.3581,-4.3998,-4.4155,-4.4196,-4.4253,-4.448,-4.4648,-4.4703,-4.4923,-4.5069,-4.523,-4.5406,-4.5528,-4.5632,-4.577,-4.5922,-4.6023,-4.6253,-4.6332,-4.6429,-4.6637,-4.6749,-4.6842,-4.7043,-4.6597,-4.5942,-4.5724,-4.4761,-4.3742,-4.3516,-4.3105,-4.2892,-4.3534,-4.3719,-4.363,-4.3196,-4.3087,-4.3087,-4.3087,-4.3068,-4.3012,-4.3012,-4.2938,-4.2882,-4.2882,-4.2956,-4.3012,-4.3012,-4.3068,-4.3087,-4.3142,-4.3579,-4.4254,-4.5149,-4.5973,-4.6649,-4.7201,-4.6048,-4.4967,-4.4162,-4.3596,-4.3305,-4.3287,-4.4725,-4.5485,-4.5446,-4.6944,-4.7717,-4.7717,-4.7759,-4.7819,-4.7819,-4.7866,-4.7888,-4.7888,-4.7947,-4.7988,-4.8087,-4.8166,-4.8208,-4.8247,-4.8267,-4.8306,-4.8306,-4.8306,-4.8363,-4.8494,-4.1256,-4.1456,-4.1507,-4.1444,-4.0941,-4.0261,-3.9518,-3.8855,-3.8191,-3.7559,-3.748,-3.748,-3.748,-3.748,-3.748,-3.748,-3.748,-3.7927,-3.8862,-3.8894,-3.9317,-4.0367,-4.0399,-4.0767,-4.1553,-4.1831,-4.2026,-4.2186,-4.2344,-4.2841,-4.3739,-4.3898,-4.3972,-4.4039,-4.4196,-4.435,-4.4502,-4.4703,-4.4923,-4.5194,-4.5177,-4.5353,-4.5581,-4.5581,-4.5718,-4.5972,-4.6154,-4.6235,-4.6398,-4.6542,-4.6684,-4.6778,-4.6934,-4.6454,-4.5702,-4.4986,-4.4247,-4.3504,-4.2767,-4.257,-4.2609,-4.2745,-4.2842,-4.29,-4.29,-4.2882,-4.2882,-4.2882,-4.2882,-4.2882,-4.2882,-4.2882,-4.2882,-4.2882,-4.2882,-4.2882,-4.2882,-4.2882,-4.2956,-4.3067,-4.3067,-4.3395,-4.4271,-4.5129,-4.5567,-4.5494,-4.4801,-4.4035,-4.3251,-4.3196,-4.316,-4.3104,-4.4611,-4.5388,-4.5251,-4.6759,-4.7554,-4.7657,-4.7657,-4.7657,-4.7657,-4.7657,-4.7657,-4.7699,-4.7819,-4.7861,-4.7902,-4.8087,-4.8187,-4.8187,-4.8286,-4.8306,-4.8306,-4.8306,-4.8401,-4.8532,-4.1169,-4.1169,-4.1064,-4.0532,-3.9924,-3.9361,-3.8654,-3.8083,-3.7638,-3.7496,-3.748,-3.748,-3.748,-3.748,-3.748,-3.748,-3.748,-3.7646,-3.8099,-3.8158,-3.8595,-3.9671,-3.9703,-3.9842,-3.9988,-4.0733,-4.1128,-4.1271,-4.1329,-4.1707,-4.2489,-4.2734,-4.3165,-4.3747,-4.4039,-4.4196,-4.435,-4.4519,-4.4686,-4.4886,-4.514,-4.523,-4.53,-4.5511,-4.5632,-4.5718,-4.5972,-4.6073,-4.6105,-4.635,-4.6542,-4.6637,-4.6684,-4.5853,-4.4804,-4.4644,-4.3661,-4.2601,-4.2539,-4.2526,-4.2526,-4.2609,-4.2649,-4.2709,-4.2844,-4.2882,-4.2882,-4.2882,-4.2882,-4.2882,-4.2882,-4.2882,-4.2882,-4.2882,-4.2882,-4.2882,-4.2882,-4.2824,-4.2822,-4.286,-4.2783,-4.3072,-4.4044,-4.5053,-4.533,-4.4691,-4.4491,-4.4035,-4.3251,-4.316,-4.3086,-4.2938,-4.44,-4.5129,-4.5083,-4.6572,-4.7407,-4.7554,-4.7468,-4.7407,-4.7407,-4.7407,-4.745,-4.7554,-4.7554,-4.7717,-4.7902,-4.7943,-4.8046,-4.8187,-4.8226,-4.8247,-4.8306,-4.8306,-4.842,-4.8605,-4.095,-4.0769,-4.0509,-4.015,-3.9294,-3.8545,-3.8185,-3.7726,-3.7329,-3.7329,-3.7464,-3.748,-3.748,-3.748,-3.748,-3.748,-3.748,-3.7583,-3.7876,-3.7876,-3.821,-3.8942,-3.8974,-3.8974,-3.8974,-3.9331,-3.9861,-4.0402,-4.0402,-4.0778,-4.1573,-4.2061,-4.2541,-4.2997,-4.358,-4.3981,-4.4097,-4.4293,-4.4519,-4.4703,-4.4923,-4.5086,-4.5196,-4.4957,-4.4975,-4.5026,-4.4831,-4.5067,-4.553,-4.5756,-4.6147,-4.6542,-4.659,-4.5592,-4.4414,-4.4458,-4.3408,-4.2246,-4.2346,-4.2387,-4.2445,-4.2526,-4.2548,-4.2588,-4.2709,-4.2786,-4.2842,-4.2842,-4.2862,-4.2882,-4.2882,-4.2882,-4.2882,-4.2882,-4.2882,-4.29,-4.288,-4.2822,-4.2783,-4.2706,-4.2649,-4.2954,-4.3866,-4.4093,-4.417,-4.4134,-4.3772,-4.3373,-4.2936,-4.288,-4.2842,-4.2747,-4.4259,-4.5024,-4.5,-4.6416,-4.7187,-4.7249,-4.7276,-4.7302,-4.7302,-4.7302,-4.7363,-4.7407,-4.7468,-4.7572,-4.7717,-4.7861,-4.7966,-4.809,-4.8187,-4.8247,-4.8306,-4.8306,-4.842,-4.8623,-4.0576,-4.0246,-3.9944,-3.971,-3.8698,-3.7888,-3.7764,-3.7449,-3.7134,-3.7134,-3.7285,-3.7421,-3.748,-3.748,-3.748,-3.748,-3.748,-3.7583,-3.7876,-3.7876,-3.8049,-3.8278,-3.8351,-3.8335,-3.8351,-3.8237,-3.8569,-3.9422,-3.9422,-3.9854,-4.0704,-4.1367,-4.177,-4.2078,-4.2997,-4.3505,-4.3714,-4.4105,-4.4293,-4.4502,-4.4648,-4.4855,-4.4919,-4.4318,-4.4148,-4.4212,-4.3638,-4.3959,-4.4743,-4.5093,-4.5646,-4.6222,-4.6459,-4.5499,-4.4279,-4.4414,-4.3322,-4.2103,-4.2246,-4.2287,-4.2346,-4.2445,-4.2463,-4.2486,-4.2588,-4.2706,-4.2783,-4.2822,-4.2862,-4.2882,-4.2882,-4.2882,-4.2882,-4.2882,-4.29,-4.2862,-4.2822,-4.2763,-4.2706,-4.2588,-4.257,-4.2781,-4.3445,-4.2925,-4.2839,-4.3504,-4.2947,-4.257,-4.257,-4.257,-4.253,-4.253,-4.3948,-4.4773,-4.4874,-4.6114,-4.6809,-4.6934,-4.7098,-4.7169,-4.7232,-4.7232,-4.7276,-4.7276,-4.7425,-4.7468,-4.7511,-4.7759,-4.7884,-4.801,-4.8108,-4.8208,-4.8286,-4.8306,-4.8458,-4.8623,-3.977,-3.9653,-3.9221,-3.8049,-3.7807,-3.7545,-3.694,-3.6985,-3.6999,-3.6999,-3.706,-3.7121,-3.7254,-3.7405,-3.748,-3.748,-3.748,-3.7583,-3.77,-3.7817,-3.7934,-3.7992,-3.8107,-3.818,-3.7992,-3.7934,-3.8097,-3.8423,-3.8251,-3.8589,-3.9457,-3.9703,-4.0268,-4.102,-4.2061,-4.2534,-4.2725,-4.3598,-4.4097,-4.435,-4.4446,-4.4368,-4.4074,-4.406,-4.3786,-4.3352,-4.3398,-4.361,-4.396,-4.469,-4.5102,-4.5409,-4.6059,-4.5264,-4.4124,-4.4124,-4.3173,-4.2103,-4.2103,-4.2205,-4.2287,-4.2328,-4.2405,-4.2503,-4.2503,-4.2645,-4.2822,-4.2862,-4.2882,-4.2882,-4.2882,-4.2882,-4.2882,-4.2882,-4.2842,-4.2822,-4.2783,-4.2645,-4.2544,-4.2503,-4.2427,-4.2323,-4.2329,-4.2341,-4.2382,-4.2471,-4.2382,-4.2328,-4.2328,-4.2328,-4.2287,-4.2187,-4.3059,-4.3835,-4.4396,-4.5237,-4.5999,-4.6637,-4.6684,-4.6778,-4.687,-4.698,-4.7088,-4.7223,-4.7223,-4.7356,-4.7511,-4.7554,-4.7699,-4.7943,-4.801,-4.809,-4.8226,-4.8419,-4.8513,-4.8623,-3.9585,-3.8908,-3.82,-3.76,-3.7247,-3.6955,-3.6647,-3.6739,-3.68,-3.68,-3.6938,-3.706,-3.7194,-3.7405,-3.748,-3.748,-3.748,-3.7539,-3.77,-3.7759,-3.7817,-3.7876,-3.7992,-3.7992,-3.7876,-3.7817,-3.7817,-3.7934,-3.7934,-3.8094,-3.8499,-3.9076,-3.9622,-4.0096,-4.1047,-4.1575,-4.1791,-4.2344,-4.2705,-4.297,-4.3137,-4.3135,-4.3062,-4.2826,-4.2551,-4.2408,-4.2206,-4.2437,-4.2932,-4.3471,-4.4218,-4.5036,-4.5435,-4.4864,-4.4014,-4.417,-4.3209,-4.2055,-4.2163,-4.2246,-4.2328,-4.2387,-4.2463,-4.2544,-4.2645,-4.2724,-4.2822,-4.2842,-4.2862,-4.2882,-4.2882,-4.2862,-4.2842,-4.2842,-4.2765,-4.2667,-4.2645,-4.2544,-4.2445,-4.2305,-4.2181,-4.2097,-4.2055,-4.2115,-4.2097,-4.2037,-4.2037,-4.1995,-4.1909,-4.1909,-4.1892,-4.1805,-4.2626,-4.3164,-4.3472,-4.423,-4.4777,-4.5094,-4.5158,-4.574,-4.6684,-4.6842,-4.6934,-4.6962,-4.6668,-4.6603,-4.674,-4.635,-4.6336,-4.6557,-4.6579,-4.6736,-4.6945,-4.7573,-4.785,-4.796]}]]